<?xml version="1.0" encoding="UTF-8" standalone="no" ?>
<gpx xmlns="http://www.topografix.com/GPX/1/1" xmlns:xsi="http://www.w3.org/2001/XMLSchema-instance" xsi:schemaLocation="http://www.topografix.com/GPX/1/1 http://www.topografix.com/GPX/1/1/gpx.xsd" version="1.1" creator="VisuGPX - https://www.visugpx.com">
  <metadata>
    <name>Tour du Vercors en vélo</name>
    <desc><![CDATA[Tour du Vercors en vélo]]></desc>
  </metadata>
  <trk>
    <name><![CDATA[Tour du Vercors en vélo_1]]></name>
    <trkseg>
      <trkpt lat="45.20118" lon="5.5706">
        <ele>1116</ele>
        <time>2019-07-11T16:31:05Z</time>
      </trkpt>
      <trkpt lat="45.20118" lon="5.5706">
        <ele>1116</ele>
        <time>2019-07-11T16:31:05Z</time>
      </trkpt>
      <trkpt lat="45.20118" lon="5.5706">
        <ele>1116</ele>
        <time>2019-07-11T16:31:05Z</time>
      </trkpt>
      <trkpt lat="45.20118" lon="5.5706">
        <ele>1116</ele>
        <time>2019-07-11T16:31:05Z</time>
      </trkpt>
      <trkpt lat="45.20118" lon="5.5706">
        <ele>1116</ele>
        <time>2019-07-11T16:31:05Z</time>
      </trkpt>
      <trkpt lat="45.20118" lon="5.5706">
        <ele>1116</ele>
        <time>2019-07-11T16:31:15Z</time>
      </trkpt>
      <trkpt lat="45.20169" lon="5.57087">
        <ele>1118</ele>
        <time>2019-07-11T16:31:24Z</time>
      </trkpt>
      <trkpt lat="45.20219" lon="5.57109">
        <ele>1121</ele>
        <time>2019-07-11T16:31:39Z</time>
      </trkpt>
      <trkpt lat="45.203" lon="5.57133">
        <ele>1124</ele>
        <time>2019-07-11T16:31:43Z</time>
      </trkpt>
      <trkpt lat="45.20322" lon="5.57146">
        <ele>1123</ele>
        <time>2019-07-11T16:31:58Z</time>
      </trkpt>
      <trkpt lat="45.20393" lon="5.57204">
        <ele>1127</ele>
        <time>2019-07-11T16:32:07Z</time>
      </trkpt>
      <trkpt lat="45.20443" lon="5.57238">
        <ele>1128</ele>
        <time>2019-07-11T16:32:19Z</time>
      </trkpt>
      <trkpt lat="45.20503" lon="5.57267">
        <ele>1127</ele>
        <time>2019-07-11T16:33:00Z</time>
      </trkpt>
      <trkpt lat="45.20721" lon="5.57382">
        <ele>1140</ele>
        <time>2019-07-11T16:33:16Z</time>
      </trkpt>
      <trkpt lat="45.20804" lon="5.57421">
        <ele>1141</ele>
        <time>2019-07-11T16:33:41Z</time>
      </trkpt>
      <trkpt lat="45.20938" lon="5.57489">
        <ele>1148</ele>
        <time>2019-07-11T16:33:47Z</time>
      </trkpt>
      <trkpt lat="45.20972" lon="5.57502">
        <ele>1149</ele>
        <time>2019-07-11T16:34:11Z</time>
      </trkpt>
      <trkpt lat="45.21104" lon="5.57537">
        <ele>1161</ele>
        <time>2019-07-11T16:34:22Z</time>
      </trkpt>
      <trkpt lat="45.21166" lon="5.57552">
        <ele>1163</ele>
        <time>2019-07-11T16:34:34Z</time>
      </trkpt>
      <trkpt lat="45.2123" lon="5.57571">
        <ele>1170</ele>
        <time>2019-07-11T16:35:14Z</time>
      </trkpt>
      <trkpt lat="45.21447" lon="5.57666">
        <ele>1182</ele>
        <time>2019-07-11T16:35:21Z</time>
      </trkpt>
      <trkpt lat="45.21483" lon="5.57684">
        <ele>1185</ele>
        <time>2019-07-11T16:35:31Z</time>
      </trkpt>
      <trkpt lat="45.21532" lon="5.57722">
        <ele>1189</ele>
        <time>2019-07-11T16:35:35Z</time>
      </trkpt>
      <trkpt lat="45.21551" lon="5.57732">
        <ele>1190</ele>
        <time>2019-07-11T16:36:19Z</time>
      </trkpt>
      <trkpt lat="45.21789" lon="5.57847">
        <ele>1209</ele>
        <time>2019-07-11T16:36:29Z</time>
      </trkpt>
      <trkpt lat="45.21839" lon="5.57865">
        <ele>1211</ele>
        <time>2019-07-11T16:36:44Z</time>
      </trkpt>
      <trkpt lat="45.21922" lon="5.57887">
        <ele>1218</ele>
        <time>2019-07-11T16:36:59Z</time>
      </trkpt>
      <trkpt lat="45.22007" lon="5.57917">
        <ele>1222</ele>
        <time>2019-07-11T16:37:06Z</time>
      </trkpt>
      <trkpt lat="45.22043" lon="5.57933">
        <ele>1227</ele>
        <time>2019-07-11T16:37:11Z</time>
      </trkpt>
      <trkpt lat="45.22073" lon="5.57939">
        <ele>1230</ele>
        <time>2019-07-11T16:37:27Z</time>
      </trkpt>
      <trkpt lat="45.22161" lon="5.57945">
        <ele>1239</ele>
        <time>2019-07-11T16:37:40Z</time>
      </trkpt>
      <trkpt lat="45.22231" lon="5.57959">
        <ele>1243</ele>
        <time>2019-07-11T16:38:14Z</time>
      </trkpt>
      <trkpt lat="45.22423" lon="5.58007">
        <ele>1253</ele>
        <time>2019-07-11T16:38:24Z</time>
      </trkpt>
      <trkpt lat="45.22476" lon="5.58034">
        <ele>1261</ele>
        <time>2019-07-11T16:38:30Z</time>
      </trkpt>
      <trkpt lat="45.22505" lon="5.58044">
        <ele>1265</ele>
        <time>2019-07-11T16:38:33Z</time>
      </trkpt>
      <trkpt lat="45.22524" lon="5.58045">
        <ele>1266</ele>
        <time>2019-07-11T16:38:41Z</time>
      </trkpt>
      <trkpt lat="45.2257" lon="5.58038">
        <ele>1271</ele>
        <time>2019-07-11T16:38:44Z</time>
      </trkpt>
      <trkpt lat="45.22585" lon="5.58041">
        <ele>1272</ele>
        <time>2019-07-11T16:38:50Z</time>
      </trkpt>
      <trkpt lat="45.2262" lon="5.58052">
        <ele>1274</ele>
        <time>2019-07-11T16:38:54Z</time>
      </trkpt>
      <trkpt lat="45.22641" lon="5.58055">
        <ele>1275</ele>
        <time>2019-07-11T16:39:03Z</time>
      </trkpt>
      <trkpt lat="45.22691" lon="5.5804">
        <ele>1282</ele>
        <time>2019-07-11T16:39:07Z</time>
      </trkpt>
      <trkpt lat="45.22713" lon="5.58041">
        <ele>1286</ele>
        <time>2019-07-11T16:39:20Z</time>
      </trkpt>
      <trkpt lat="45.22787" lon="5.58059">
        <ele>1294</ele>
        <time>2019-07-11T16:39:28Z</time>
      </trkpt>
      <trkpt lat="45.2283" lon="5.58058">
        <ele>1301</ele>
        <time>2019-07-11T16:39:31Z</time>
      </trkpt>
      <trkpt lat="45.22844" lon="5.58059">
        <ele>1304</ele>
        <time>2019-07-11T16:39:33Z</time>
      </trkpt>
      <trkpt lat="45.22859" lon="5.58063">
        <ele>1305</ele>
        <time>2019-07-11T16:39:37Z</time>
      </trkpt>
      <trkpt lat="45.22875" lon="5.58075">
        <ele>1304</ele>
        <time>2019-07-11T16:39:40Z</time>
      </trkpt>
      <trkpt lat="45.22885" lon="5.58102">
        <ele>1302</ele>
        <time>2019-07-11T16:39:46Z</time>
      </trkpt>
      <trkpt lat="45.22904" lon="5.58134">
        <ele>1302</ele>
        <time>2019-07-11T16:39:52Z</time>
      </trkpt>
      <trkpt lat="45.22931" lon="5.58163">
        <ele>1301</ele>
        <time>2019-07-11T16:39:56Z</time>
      </trkpt>
      <trkpt lat="45.2295" lon="5.58179">
        <ele>1305</ele>
        <time>2019-07-11T16:39:57Z</time>
      </trkpt>
      <trkpt lat="45.22959" lon="5.58183">
        <ele>1306</ele>
        <time>2019-07-11T16:40:02Z</time>
      </trkpt>
      <trkpt lat="45.22983" lon="5.5818">
        <ele>1307</ele>
        <time>2019-07-11T16:40:03Z</time>
      </trkpt>
      <trkpt lat="45.2299" lon="5.58181">
        <ele>1307</ele>
        <time>2019-07-11T16:40:09Z</time>
      </trkpt>
      <trkpt lat="45.23027" lon="5.58172">
        <ele>1310</ele>
        <time>2019-07-11T16:40:12Z</time>
      </trkpt>
      <trkpt lat="45.23041" lon="5.58175">
        <ele>1313</ele>
        <time>2019-07-11T16:40:13Z</time>
      </trkpt>
      <trkpt lat="45.23048" lon="5.58182">
        <ele>1314</ele>
        <time>2019-07-11T16:40:16Z</time>
      </trkpt>
      <trkpt lat="45.23056" lon="5.58198">
        <ele>1318</ele>
        <time>2019-07-11T16:40:19Z</time>
      </trkpt>
      <trkpt lat="45.23058" lon="5.58219">
        <ele>1321</ele>
        <time>2019-07-11T16:40:21Z</time>
      </trkpt>
      <trkpt lat="45.23056" lon="5.58237">
        <ele>1323</ele>
        <time>2019-07-11T16:40:22Z</time>
      </trkpt>
      <trkpt lat="45.23053" lon="5.58249">
        <ele>1324</ele>
        <time>2019-07-11T16:40:23Z</time>
      </trkpt>
      <trkpt lat="45.2305" lon="5.58256">
        <ele>1325</ele>
        <time>2019-07-11T16:40:26Z</time>
      </trkpt>
      <trkpt lat="45.23037" lon="5.58267">
        <ele>1324</ele>
        <time>2019-07-11T16:40:29Z</time>
      </trkpt>
      <trkpt lat="45.23023" lon="5.5827">
        <ele>1322</ele>
        <time>2019-07-11T16:40:35Z</time>
      </trkpt>
      <trkpt lat="45.22986" lon="5.58263">
        <ele>1318</ele>
        <time>2019-07-11T16:40:38Z</time>
      </trkpt>
      <trkpt lat="45.2297" lon="5.58265">
        <ele>1319</ele>
        <time>2019-07-11T16:40:40Z</time>
      </trkpt>
      <trkpt lat="45.22963" lon="5.58268">
        <ele>1320</ele>
        <time>2019-07-11T16:40:42Z</time>
      </trkpt>
      <trkpt lat="45.22957" lon="5.58286">
        <ele>1323</ele>
        <time>2019-07-11T16:40:43Z</time>
      </trkpt>
      <trkpt lat="45.22956" lon="5.58296">
        <ele>1324</ele>
        <time>2019-07-11T16:40:45Z</time>
      </trkpt>
      <trkpt lat="45.22958" lon="5.58311">
        <ele>1327</ele>
        <time>2019-07-11T16:40:48Z</time>
      </trkpt>
      <trkpt lat="45.22968" lon="5.58325">
        <ele>1329</ele>
        <time>2019-07-11T16:40:55Z</time>
      </trkpt>
      <trkpt lat="45.23003" lon="5.58357">
        <ele>1337</ele>
        <time>2019-07-11T16:40:58Z</time>
      </trkpt>
      <trkpt lat="45.23018" lon="5.58366">
        <ele>1340</ele>
        <time>2019-07-11T16:41:02Z</time>
      </trkpt>
      <trkpt lat="45.23039" lon="5.58371">
        <ele>1343</ele>
        <time>2019-07-11T16:41:04Z</time>
      </trkpt>
      <trkpt lat="45.23054" lon="5.58367">
        <ele>1343</ele>
        <time>2019-07-11T16:41:11Z</time>
      </trkpt>
      <trkpt lat="45.23091" lon="5.58348">
        <ele>1341</ele>
        <time>2019-07-11T16:41:32Z</time>
      </trkpt>
      <trkpt lat="45.23195" lon="5.58282">
        <ele>1349</ele>
        <time>2019-07-11T16:41:35Z</time>
      </trkpt>
      <trkpt lat="45.23214" lon="5.58273">
        <ele>1350</ele>
        <time>2019-07-11T16:41:38Z</time>
      </trkpt>
      <trkpt lat="45.23227" lon="5.58272">
        <ele>1352</ele>
        <time>2019-07-11T16:41:40Z</time>
      </trkpt>
      <trkpt lat="45.23238" lon="5.58274">
        <ele>1353</ele>
        <time>2019-07-11T16:41:42Z</time>
      </trkpt>
      <trkpt lat="45.23249" lon="5.58279">
        <ele>1355</ele>
        <time>2019-07-11T16:41:45Z</time>
      </trkpt>
      <trkpt lat="45.23265" lon="5.58291">
        <ele>1357</ele>
        <time>2019-07-11T16:42:00Z</time>
      </trkpt>
      <trkpt lat="45.23335" lon="5.58355">
        <ele>1362</ele>
        <time>2019-07-11T16:42:05Z</time>
      </trkpt>
      <trkpt lat="45.2336" lon="5.58384">
        <ele>1366</ele>
        <time>2019-07-11T16:42:09Z</time>
      </trkpt>
      <trkpt lat="45.2338" lon="5.58397">
        <ele>1369</ele>
        <time>2019-07-11T16:42:12Z</time>
      </trkpt>
      <trkpt lat="45.23397" lon="5.58398">
        <ele>1369</ele>
        <time>2019-07-11T16:42:22Z</time>
      </trkpt>
      <trkpt lat="45.2345" lon="5.58379">
        <ele>1372</ele>
        <time>2019-07-11T16:42:31Z</time>
      </trkpt>
      <trkpt lat="45.235" lon="5.58364">
        <ele>1378</ele>
        <time>2019-07-11T16:42:45Z</time>
      </trkpt>
      <trkpt lat="45.23572" lon="5.58326">
        <ele>1383</ele>
        <time>2019-07-11T16:42:50Z</time>
      </trkpt>
      <trkpt lat="45.23599" lon="5.58308">
        <ele>1386</ele>
        <time>2019-07-11T16:42:58Z</time>
      </trkpt>
      <trkpt lat="45.23635" lon="5.58274">
        <ele>1388</ele>
        <time>2019-07-11T16:43:08Z</time>
      </trkpt>
      <trkpt lat="45.2368" lon="5.58228">
        <ele>1394</ele>
        <time>2019-07-11T16:43:14Z</time>
      </trkpt>
      <trkpt lat="45.23705" lon="5.58189">
        <ele>1397</ele>
        <time>2019-07-11T16:43:19Z</time>
      </trkpt>
      <trkpt lat="45.23728" lon="5.58165">
        <ele>1398</ele>
        <time>2019-07-11T16:43:31Z</time>
      </trkpt>
      <trkpt lat="45.23784" lon="5.58114">
        <ele>1413</ele>
        <time>2019-07-11T16:43:34Z</time>
      </trkpt>
      <trkpt lat="45.238" lon="5.58103">
        <ele>1416</ele>
        <time>2019-07-11T16:43:39Z</time>
      </trkpt>
      <trkpt lat="45.23826" lon="5.58093">
        <ele>1419</ele>
        <time>2019-07-11T16:43:42Z</time>
      </trkpt>
      <trkpt lat="45.23844" lon="5.58091">
        <ele>1422</ele>
        <time>2019-07-11T16:43:44Z</time>
      </trkpt>
      <trkpt lat="45.23853" lon="5.58095">
        <ele>1424</ele>
        <time>2019-07-11T16:43:46Z</time>
      </trkpt>
      <trkpt lat="45.23864" lon="5.58104">
        <ele>1425</ele>
        <time>2019-07-11T16:43:49Z</time>
      </trkpt>
      <trkpt lat="45.23875" lon="5.58122">
        <ele>1426</ele>
        <time>2019-07-11T16:43:54Z</time>
      </trkpt>
      <trkpt lat="45.23889" lon="5.58153">
        <ele>1426</ele>
        <time>2019-07-11T16:43:57Z</time>
      </trkpt>
      <trkpt lat="45.23894" lon="5.58174">
        <ele>1426</ele>
        <time>2019-07-11T16:43:59Z</time>
      </trkpt>
      <trkpt lat="45.23892" lon="5.58195">
        <ele>1426</ele>
        <time>2019-07-11T16:44:14Z</time>
      </trkpt>
      <trkpt lat="45.23859" lon="5.58299">
        <ele>1423</ele>
        <time>2019-07-11T16:44:21Z</time>
      </trkpt>
      <trkpt lat="45.23839" lon="5.5835">
        <ele>1425</ele>
        <time>2019-07-11T16:44:24Z</time>
      </trkpt>
      <trkpt lat="45.2383" lon="5.5837">
        <ele>1428</ele>
        <time>2019-07-11T16:44:26Z</time>
      </trkpt>
      <trkpt lat="45.23823" lon="5.58378">
        <ele>1430</ele>
        <time>2019-07-11T16:44:28Z</time>
      </trkpt>
      <trkpt lat="45.23807" lon="5.58383">
        <ele>1430</ele>
        <time>2019-07-11T16:44:36Z</time>
      </trkpt>
      <trkpt lat="45.23764" lon="5.58373">
        <ele>1427</ele>
        <time>2019-07-11T16:44:39Z</time>
      </trkpt>
      <trkpt lat="45.23751" lon="5.58379">
        <ele>1428</ele>
        <time>2019-07-11T16:44:42Z</time>
      </trkpt>
      <trkpt lat="45.23735" lon="5.58395">
        <ele>1428</ele>
        <time>2019-07-11T16:44:53Z</time>
      </trkpt>
      <trkpt lat="45.23689" lon="5.58451">
        <ele>1433</ele>
        <time>2019-07-11T16:44:58Z</time>
      </trkpt>
      <trkpt lat="45.23673" lon="5.58484">
        <ele>1438</ele>
        <time>2019-07-11T16:45:20Z</time>
      </trkpt>
      <trkpt lat="45.23574" lon="5.5859">
        <ele>1443</ele>
        <time>2019-07-11T16:45:25Z</time>
      </trkpt>
      <trkpt lat="45.23552" lon="5.58619">
        <ele>1441</ele>
        <time>2019-07-11T16:45:34Z</time>
      </trkpt>
      <trkpt lat="45.23521" lon="5.58676">
        <ele>1442</ele>
        <time>2019-07-11T16:45:36Z</time>
      </trkpt>
      <trkpt lat="45.23518" lon="5.58689">
        <ele>1444</ele>
        <time>2019-07-11T16:45:37Z</time>
      </trkpt>
      <trkpt lat="45.23517" lon="5.58697">
        <ele>1445</ele>
        <time>2019-07-11T16:45:44Z</time>
      </trkpt>
      <trkpt lat="45.23523" lon="5.58752">
        <ele>1457</ele>
        <time>2019-07-11T16:45:45Z</time>
      </trkpt>
      <trkpt lat="45.23522" lon="5.58758">
        <ele>1457</ele>
        <time>2019-07-11T16:45:47Z</time>
      </trkpt>
      <trkpt lat="45.23514" lon="5.58773">
        <ele>1458</ele>
        <time>2019-07-11T16:45:48Z</time>
      </trkpt>
      <trkpt lat="45.23509" lon="5.58777">
        <ele>1458</ele>
        <time>2019-07-11T16:45:52Z</time>
      </trkpt>
      <trkpt lat="45.23489" lon="5.58786">
        <ele>1458</ele>
        <time>2019-07-11T16:45:57Z</time>
      </trkpt>
      <trkpt lat="45.23463" lon="5.5879">
        <ele>1459</ele>
        <time>2019-07-11T16:46:04Z</time>
      </trkpt>
      <trkpt lat="45.23423" lon="5.5878">
        <ele>1457</ele>
        <time>2019-07-11T16:46:11Z</time>
      </trkpt>
      <trkpt lat="45.23385" lon="5.58781">
        <ele>1460</ele>
        <time>2019-07-11T16:46:13Z</time>
      </trkpt>
      <trkpt lat="45.23372" lon="5.58775">
        <ele>1460</ele>
        <time>2019-07-11T16:46:16Z</time>
      </trkpt>
      <trkpt lat="45.23358" lon="5.58758">
        <ele>1456</ele>
        <time>2019-07-11T16:46:18Z</time>
      </trkpt>
      <trkpt lat="45.23349" lon="5.58751">
        <ele>1454</ele>
        <time>2019-07-11T16:46:21Z</time>
      </trkpt>
      <trkpt lat="45.23334" lon="5.58749">
        <ele>1455</ele>
        <time>2019-07-11T16:46:25Z</time>
      </trkpt>
      <trkpt lat="45.23311" lon="5.58753">
        <ele>1455</ele>
        <time>2019-07-11T16:46:29Z</time>
      </trkpt>
      <trkpt lat="45.23291" lon="5.58746">
        <ele>1452</ele>
        <time>2019-07-11T16:46:31Z</time>
      </trkpt>
      <trkpt lat="45.23279" lon="5.58744">
        <ele>1451</ele>
        <time>2019-07-11T16:46:33Z</time>
      </trkpt>
      <trkpt lat="45.23268" lon="5.58748">
        <ele>1452</ele>
        <time>2019-07-11T16:46:38Z</time>
      </trkpt>
      <trkpt lat="45.23248" lon="5.58774">
        <ele>1460</ele>
        <time>2019-07-11T16:46:39Z</time>
      </trkpt>
      <trkpt lat="45.2324" lon="5.58779">
        <ele>1461</ele>
        <time>2019-07-11T16:46:41Z</time>
      </trkpt>
      <trkpt lat="45.23231" lon="5.5878">
        <ele>1461</ele>
        <time>2019-07-11T16:46:44Z</time>
      </trkpt>
      <trkpt lat="45.23211" lon="5.58773">
        <ele>1458</ele>
        <time>2019-07-11T16:46:47Z</time>
      </trkpt>
      <trkpt lat="45.23199" lon="5.58773">
        <ele>1457</ele>
        <time>2019-07-11T16:46:49Z</time>
      </trkpt>
      <trkpt lat="45.23187" lon="5.58777">
        <ele>1458</ele>
        <time>2019-07-11T16:46:54Z</time>
      </trkpt>
      <trkpt lat="45.23162" lon="5.58793">
        <ele>1461</ele>
        <time>2019-07-11T16:46:55Z</time>
      </trkpt>
      <trkpt lat="45.23152" lon="5.58795">
        <ele>1462</ele>
        <time>2019-07-11T16:46:57Z</time>
      </trkpt>
      <trkpt lat="45.23143" lon="5.58794">
        <ele>1462</ele>
        <time>2019-07-11T16:46:59Z</time>
      </trkpt>
      <trkpt lat="45.23133" lon="5.5879">
        <ele>1460</ele>
        <time>2019-07-11T16:47:02Z</time>
      </trkpt>
      <trkpt lat="45.23116" lon="5.58789">
        <ele>1460</ele>
        <time>2019-07-11T16:47:06Z</time>
      </trkpt>
      <trkpt lat="45.23095" lon="5.58793">
        <ele>1461</ele>
        <time>2019-07-11T16:47:12Z</time>
      </trkpt>
      <trkpt lat="45.23061" lon="5.58803">
        <ele>1464</ele>
        <time>2019-07-11T16:47:17Z</time>
      </trkpt>
      <trkpt lat="45.23033" lon="5.588">
        <ele>1462</ele>
        <time>2019-07-11T16:47:21Z</time>
      </trkpt>
      <trkpt lat="45.23009" lon="5.58803">
        <ele>1462</ele>
        <time>2019-07-11T16:47:34Z</time>
      </trkpt>
      <trkpt lat="45.22938" lon="5.58825">
        <ele>1464</ele>
        <time>2019-07-11T16:47:51Z</time>
      </trkpt>
      <trkpt lat="45.22846" lon="5.58858">
        <ele>1468</ele>
        <time>2019-07-11T16:47:58Z</time>
      </trkpt>
      <trkpt lat="45.22807" lon="5.58866">
        <ele>1472</ele>
        <time>2019-07-11T16:48:06Z</time>
      </trkpt>
      <trkpt lat="45.22761" lon="5.58869">
        <ele>1478</ele>
        <time>2019-07-11T16:48:10Z</time>
      </trkpt>
      <trkpt lat="45.22742" lon="5.58864">
        <ele>1480</ele>
        <time>2019-07-11T16:48:13Z</time>
      </trkpt>
      <trkpt lat="45.22723" lon="5.58854">
        <ele>1483</ele>
        <time>2019-07-11T16:48:15Z</time>
      </trkpt>
      <trkpt lat="45.22714" lon="5.58846">
        <ele>1484</ele>
        <time>2019-07-11T16:48:17Z</time>
      </trkpt>
      <trkpt lat="45.22708" lon="5.58837">
        <ele>1485</ele>
        <time>2019-07-11T16:48:22Z</time>
      </trkpt>
      <trkpt lat="45.22696" lon="5.58795">
        <ele>1482</ele>
        <time>2019-07-11T16:48:27Z</time>
      </trkpt>
      <trkpt lat="45.22675" lon="5.58768">
        <ele>1484</ele>
        <time>2019-07-11T16:48:35Z</time>
      </trkpt>
      <trkpt lat="45.22651" lon="5.58718">
        <ele>1478</ele>
        <time>2019-07-11T16:48:36Z</time>
      </trkpt>
      <trkpt lat="45.22644" lon="5.58711">
        <ele>1477</ele>
        <time>2019-07-11T16:48:38Z</time>
      </trkpt>
      <trkpt lat="45.22636" lon="5.58706">
        <ele>1476</ele>
        <time>2019-07-11T16:48:41Z</time>
      </trkpt>
      <trkpt lat="45.22617" lon="5.58701">
        <ele>1477</ele>
        <time>2019-07-11T16:48:48Z</time>
      </trkpt>
      <trkpt lat="45.22579" lon="5.587">
        <ele>1479</ele>
        <time>2019-07-11T16:48:52Z</time>
      </trkpt>
      <trkpt lat="45.22561" lon="5.58707">
        <ele>1478</ele>
        <time>2019-07-11T16:48:54Z</time>
      </trkpt>
      <trkpt lat="45.22549" lon="5.58719">
        <ele>1480</ele>
        <time>2019-07-11T16:49:01Z</time>
      </trkpt>
      <trkpt lat="45.22523" lon="5.58758">
        <ele>1485</ele>
        <time>2019-07-11T16:49:05Z</time>
      </trkpt>
      <trkpt lat="45.22501" lon="5.58776">
        <ele>1485</ele>
        <time>2019-07-11T16:49:10Z</time>
      </trkpt>
      <trkpt lat="45.22476" lon="5.58786">
        <ele>1488</ele>
        <time>2019-07-11T16:49:15Z</time>
      </trkpt>
      <trkpt lat="45.2245" lon="5.58798">
        <ele>1492</ele>
        <time>2019-07-11T16:49:18Z</time>
      </trkpt>
      <trkpt lat="45.22433" lon="5.588">
        <ele>1492</ele>
        <time>2019-07-11T16:49:21Z</time>
      </trkpt>
      <trkpt lat="45.22417" lon="5.58796">
        <ele>1491</ele>
        <time>2019-07-11T16:49:25Z</time>
      </trkpt>
      <trkpt lat="45.22396" lon="5.58782">
        <ele>1495</ele>
        <time>2019-07-11T16:49:29Z</time>
      </trkpt>
      <trkpt lat="45.22379" lon="5.58765">
        <ele>1497</ele>
        <time>2019-07-11T16:49:35Z</time>
      </trkpt>
      <trkpt lat="45.22352" lon="5.58731">
        <ele>1495</ele>
        <time>2019-07-11T16:49:37Z</time>
      </trkpt>
      <trkpt lat="45.22343" lon="5.58723">
        <ele>1495</ele>
        <time>2019-07-11T16:49:39Z</time>
      </trkpt>
      <trkpt lat="45.22334" lon="5.58717">
        <ele>1496</ele>
        <time>2019-07-11T16:49:43Z</time>
      </trkpt>
      <trkpt lat="45.22312" lon="5.58709">
        <ele>1495</ele>
        <time>2019-07-11T16:49:52Z</time>
      </trkpt>
      <trkpt lat="45.2226" lon="5.58703">
        <ele>1499</ele>
        <time>2019-07-11T16:50:06Z</time>
      </trkpt>
      <trkpt lat="45.22181" lon="5.58709">
        <ele>1506</ele>
        <time>2019-07-11T16:50:11Z</time>
      </trkpt>
      <trkpt lat="45.22155" lon="5.58708">
        <ele>1507</ele>
        <time>2019-07-11T16:50:18Z</time>
      </trkpt>
      <trkpt lat="45.22115" lon="5.58699">
        <ele>1508</ele>
        <time>2019-07-11T16:50:29Z</time>
      </trkpt>
      <trkpt lat="45.22055" lon="5.5868">
        <ele>1500</ele>
        <time>2019-07-11T16:50:33Z</time>
      </trkpt>
      <trkpt lat="45.22032" lon="5.58676">
        <ele>1496</ele>
        <time>2019-07-11T16:50:35Z</time>
      </trkpt>
      <trkpt lat="45.22021" lon="5.5868">
        <ele>1496</ele>
        <time>2019-07-11T16:50:36Z</time>
      </trkpt>
      <trkpt lat="45.22017" lon="5.58684">
        <ele>1497</ele>
        <time>2019-07-11T16:50:46Z</time>
      </trkpt>
      <trkpt lat="45.21981" lon="5.58744">
        <ele>1507</ele>
        <time>2019-07-11T16:50:53Z</time>
      </trkpt>
      <trkpt lat="45.21948" lon="5.58776">
        <ele>1502</ele>
        <time>2019-07-11T16:50:55Z</time>
      </trkpt>
      <trkpt lat="45.2194" lon="5.58789">
        <ele>1503</ele>
        <time>2019-07-11T16:50:57Z</time>
      </trkpt>
      <trkpt lat="45.21937" lon="5.588">
        <ele>1505</ele>
        <time>2019-07-11T16:50:58Z</time>
      </trkpt>
      <trkpt lat="45.21936" lon="5.5881">
        <ele>1507</ele>
        <time>2019-07-11T16:51:04Z</time>
      </trkpt>
      <trkpt lat="45.21943" lon="5.58861">
        <ele>1523</ele>
        <time>2019-07-11T16:51:05Z</time>
      </trkpt>
      <trkpt lat="45.21943" lon="5.5887">
        <ele>1525</ele>
        <time>2019-07-11T16:51:07Z</time>
      </trkpt>
      <trkpt lat="45.21939" lon="5.58883">
        <ele>1526</ele>
        <time>2019-07-11T16:51:09Z</time>
      </trkpt>
      <trkpt lat="45.21931" lon="5.58894">
        <ele>1525</ele>
        <time>2019-07-11T16:51:14Z</time>
      </trkpt>
      <trkpt lat="45.21907" lon="5.5891">
        <ele>1522</ele>
        <time>2019-07-11T16:51:18Z</time>
      </trkpt>
      <trkpt lat="45.21886" lon="5.58916">
        <ele>1522</ele>
        <time>2019-07-11T16:51:24Z</time>
      </trkpt>
      <trkpt lat="45.21851" lon="5.58913">
        <ele>1520</ele>
        <time>2019-07-11T16:51:28Z</time>
      </trkpt>
      <trkpt lat="45.2183" lon="5.58913">
        <ele>1520</ele>
        <time>2019-07-11T16:51:31Z</time>
      </trkpt>
      <trkpt lat="45.21814" lon="5.58906">
        <ele>1524</ele>
        <time>2019-07-11T16:51:35Z</time>
      </trkpt>
      <trkpt lat="45.21793" lon="5.58888">
        <ele>1526</ele>
        <time>2019-07-11T16:51:40Z</time>
      </trkpt>
      <trkpt lat="45.21765" lon="5.58876">
        <ele>1531</ele>
        <time>2019-07-11T16:51:42Z</time>
      </trkpt>
      <trkpt lat="45.21756" lon="5.58868">
        <ele>1531</ele>
        <time>2019-07-11T16:51:44Z</time>
      </trkpt>
      <trkpt lat="45.2175" lon="5.58858">
        <ele>1529</ele>
        <time>2019-07-11T16:51:47Z</time>
      </trkpt>
      <trkpt lat="45.21741" lon="5.58833">
        <ele>1525</ele>
        <time>2019-07-11T16:51:53Z</time>
      </trkpt>
      <trkpt lat="45.21733" lon="5.58793">
        <ele>1518</ele>
        <time>2019-07-11T16:51:54Z</time>
      </trkpt>
      <trkpt lat="45.2173" lon="5.58785">
        <ele>1518</ele>
        <time>2019-07-11T16:51:55Z</time>
      </trkpt>
      <trkpt lat="45.21725" lon="5.58779">
        <ele>1518</ele>
        <time>2019-07-11T16:51:57Z</time>
      </trkpt>
      <trkpt lat="45.21715" lon="5.58771">
        <ele>1521</ele>
        <time>2019-07-11T16:52:05Z</time>
      </trkpt>
      <trkpt lat="45.2167" lon="5.58751">
        <ele>1534</ele>
        <time>2019-07-11T16:52:13Z</time>
      </trkpt>
      <trkpt lat="45.21631" lon="5.5872">
        <ele>1531</ele>
        <time>2019-07-11T16:52:18Z</time>
      </trkpt>
      <trkpt lat="45.21604" lon="5.58706">
        <ele>1532</ele>
        <time>2019-07-11T16:52:31Z</time>
      </trkpt>
      <trkpt lat="45.21534" lon="5.58687">
        <ele>1536</ele>
        <time>2019-07-11T16:52:43Z</time>
      </trkpt>
      <trkpt lat="45.21467" lon="5.58677">
        <ele>1542</ele>
        <time>2019-07-11T16:52:53Z</time>
      </trkpt>
      <trkpt lat="45.21411" lon="5.58671">
        <ele>1549</ele>
        <time>2019-07-11T16:53:02Z</time>
      </trkpt>
      <trkpt lat="45.21361" lon="5.58648">
        <ele>1548</ele>
        <time>2019-07-11T16:53:07Z</time>
      </trkpt>
      <trkpt lat="45.21336" lon="5.58639">
        <ele>1548</ele>
        <time>2019-07-11T16:53:13Z</time>
      </trkpt>
      <trkpt lat="45.213" lon="5.58628">
        <ele>1546</ele>
        <time>2019-07-11T16:53:19Z</time>
      </trkpt>
      <trkpt lat="45.21269" lon="5.58622">
        <ele>1546</ele>
        <time>2019-07-11T16:53:25Z</time>
      </trkpt>
      <trkpt lat="45.21238" lon="5.58606">
        <ele>1542</ele>
        <time>2019-07-11T16:53:32Z</time>
      </trkpt>
      <trkpt lat="45.212" lon="5.58593">
        <ele>1544</ele>
        <time>2019-07-11T16:53:39Z</time>
      </trkpt>
      <trkpt lat="45.21161" lon="5.58572">
        <ele>1543</ele>
        <time>2019-07-11T16:53:45Z</time>
      </trkpt>
      <trkpt lat="45.21128" lon="5.58567">
        <ele>1548</ele>
        <time>2019-07-11T16:53:51Z</time>
      </trkpt>
      <trkpt lat="45.21096" lon="5.58546">
        <ele>1545</ele>
        <time>2019-07-11T16:53:55Z</time>
      </trkpt>
      <trkpt lat="45.21076" lon="5.58538">
        <ele>1545</ele>
        <time>2019-07-11T16:54:03Z</time>
      </trkpt>
      <trkpt lat="45.21034" lon="5.58525">
        <ele>1543</ele>
        <time>2019-07-11T16:54:16Z</time>
      </trkpt>
      <trkpt lat="45.2096" lon="5.58512">
        <ele>1547</ele>
        <time>2019-07-11T16:54:22Z</time>
      </trkpt>
      <trkpt lat="45.20927" lon="5.58492">
        <ele>1546</ele>
        <time>2019-07-11T16:54:26Z</time>
      </trkpt>
      <trkpt lat="45.20908" lon="5.58483">
        <ele>1544</ele>
        <time>2019-07-11T16:54:29Z</time>
      </trkpt>
      <trkpt lat="45.2089" lon="5.58478">
        <ele>1541</ele>
        <time>2019-07-11T16:54:31Z</time>
      </trkpt>
      <trkpt lat="45.20882" lon="5.58477">
        <ele>1540</ele>
        <time>2019-07-11T16:54:33Z</time>
      </trkpt>
      <trkpt lat="45.20867" lon="5.58481">
        <ele>1541</ele>
        <time>2019-07-11T16:54:37Z</time>
      </trkpt>
      <trkpt lat="45.20846" lon="5.58474">
        <ele>1538</ele>
        <time>2019-07-11T16:54:40Z</time>
      </trkpt>
      <trkpt lat="45.20833" lon="5.58474">
        <ele>1537</ele>
        <time>2019-07-11T16:54:41Z</time>
      </trkpt>
      <trkpt lat="45.20824" lon="5.58481">
        <ele>1539</ele>
        <time>2019-07-11T16:54:46Z</time>
      </trkpt>
      <trkpt lat="45.20807" lon="5.58505">
        <ele>1547</ele>
        <time>2019-07-11T16:54:48Z</time>
      </trkpt>
      <trkpt lat="45.20802" lon="5.58518">
        <ele>1549</ele>
        <time>2019-07-11T16:54:49Z</time>
      </trkpt>
      <trkpt lat="45.20797" lon="5.58526">
        <ele>1550</ele>
        <time>2019-07-11T16:54:50Z</time>
      </trkpt>
      <trkpt lat="45.20791" lon="5.58528">
        <ele>1550</ele>
        <time>2019-07-11T16:54:51Z</time>
      </trkpt>
      <trkpt lat="45.20784" lon="5.58526">
        <ele>1550</ele>
        <time>2019-07-11T16:54:59Z</time>
      </trkpt>
      <trkpt lat="45.20746" lon="5.58501">
        <ele>1543</ele>
        <time>2019-07-11T16:55:00Z</time>
      </trkpt>
      <trkpt lat="45.20739" lon="5.58499">
        <ele>1541</ele>
        <time>2019-07-11T16:55:01Z</time>
      </trkpt>
      <trkpt lat="45.20731" lon="5.58499">
        <ele>1539</ele>
        <time>2019-07-11T16:55:02Z</time>
      </trkpt>
      <trkpt lat="45.20727" lon="5.58501">
        <ele>1538</ele>
        <time>2019-07-11T16:55:07Z</time>
      </trkpt>
      <trkpt lat="45.20704" lon="5.58528">
        <ele>1539</ele>
        <time>2019-07-11T16:55:09Z</time>
      </trkpt>
      <trkpt lat="45.20697" lon="5.58539">
        <ele>1540</ele>
        <time>2019-07-11T16:55:17Z</time>
      </trkpt>
      <trkpt lat="45.20673" lon="5.5859">
        <ele>1547</ele>
        <time>2019-07-11T16:55:25Z</time>
      </trkpt>
      <trkpt lat="45.20639" lon="5.58631">
        <ele>1550</ele>
        <time>2019-07-11T16:55:32Z</time>
      </trkpt>
      <trkpt lat="45.20615" lon="5.58676">
        <ele>1554</ele>
        <time>2019-07-11T16:55:36Z</time>
      </trkpt>
      <trkpt lat="45.20599" lon="5.58693">
        <ele>1554</ele>
        <time>2019-07-11T16:55:37Z</time>
      </trkpt>
      <trkpt lat="45.20594" lon="5.58701">
        <ele>1554</ele>
        <time>2019-07-11T16:55:38Z</time>
      </trkpt>
      <trkpt lat="45.2059" lon="5.5871">
        <ele>1555</ele>
        <time>2019-07-11T16:55:43Z</time>
      </trkpt>
      <trkpt lat="45.20583" lon="5.58745">
        <ele>1558</ele>
        <time>2019-07-11T16:55:45Z</time>
      </trkpt>
      <trkpt lat="45.20577" lon="5.58758">
        <ele>1560</ele>
        <time>2019-07-11T16:55:48Z</time>
      </trkpt>
      <trkpt lat="45.20563" lon="5.58778">
        <ele>1562</ele>
        <time>2019-07-11T16:55:51Z</time>
      </trkpt>
      <trkpt lat="45.20552" lon="5.58787">
        <ele>1562</ele>
        <time>2019-07-11T16:55:52Z</time>
      </trkpt>
      <trkpt lat="45.20546" lon="5.5879">
        <ele>1562</ele>
        <time>2019-07-11T16:55:54Z</time>
      </trkpt>
      <trkpt lat="45.20531" lon="5.58793">
        <ele>1561</ele>
        <time>2019-07-11T16:56:02Z</time>
      </trkpt>
      <trkpt lat="45.20487" lon="5.58796">
        <ele>1559</ele>
        <time>2019-07-11T16:56:05Z</time>
      </trkpt>
      <trkpt lat="45.20472" lon="5.58806">
        <ele>1562</ele>
        <time>2019-07-11T16:56:06Z</time>
      </trkpt>
      <trkpt lat="45.20467" lon="5.58806">
        <ele>1562</ele>
        <time>2019-07-11T16:56:07Z</time>
      </trkpt>
      <trkpt lat="45.20461" lon="5.58804">
        <ele>1563</ele>
        <time>2019-07-11T16:56:08Z</time>
      </trkpt>
      <trkpt lat="45.20456" lon="5.588">
        <ele>1563</ele>
        <time>2019-07-11T16:56:09Z</time>
      </trkpt>
      <trkpt lat="45.20453" lon="5.58795">
        <ele>1563</ele>
        <time>2019-07-11T16:56:11Z</time>
      </trkpt>
      <trkpt lat="45.20452" lon="5.5878">
        <ele>1561</ele>
        <time>2019-07-11T16:56:13Z</time>
      </trkpt>
      <trkpt lat="45.20455" lon="5.58762">
        <ele>1559</ele>
        <time>2019-07-11T16:56:17Z</time>
      </trkpt>
      <trkpt lat="45.20466" lon="5.58732">
        <ele>1554</ele>
        <time>2019-07-11T16:56:20Z</time>
      </trkpt>
      <trkpt lat="45.20466" lon="5.58715">
        <ele>1552</ele>
        <time>2019-07-11T16:56:21Z</time>
      </trkpt>
      <trkpt lat="45.20464" lon="5.58707">
        <ele>1552</ele>
        <time>2019-07-11T16:56:22Z</time>
      </trkpt>
      <trkpt lat="45.20459" lon="5.58697">
        <ele>1552</ele>
        <time>2019-07-11T16:56:24Z</time>
      </trkpt>
      <trkpt lat="45.20453" lon="5.58688">
        <ele>1552</ele>
        <time>2019-07-11T16:56:29Z</time>
      </trkpt>
      <trkpt lat="45.20429" lon="5.58665">
        <ele>1554</ele>
        <time>2019-07-11T16:56:31Z</time>
      </trkpt>
      <trkpt lat="45.20419" lon="5.5866">
        <ele>1554</ele>
        <time>2019-07-11T16:56:32Z</time>
      </trkpt>
      <trkpt lat="45.20411" lon="5.58658">
        <ele>1555</ele>
        <time>2019-07-11T16:56:38Z</time>
      </trkpt>
      <trkpt lat="45.20378" lon="5.58654">
        <ele>1557</ele>
        <time>2019-07-11T16:56:45Z</time>
      </trkpt>
      <trkpt lat="45.20341" lon="5.58633">
        <ele>1554</ele>
        <time>2019-07-11T16:56:48Z</time>
      </trkpt>
      <trkpt lat="45.20328" lon="5.58629">
        <ele>1554</ele>
        <time>2019-07-11T16:56:57Z</time>
      </trkpt>
      <trkpt lat="45.20273" lon="5.58621">
        <ele>1556</ele>
        <time>2019-07-11T16:57:09Z</time>
      </trkpt>
      <trkpt lat="45.20209" lon="5.58615">
        <ele>1559</ele>
        <time>2019-07-11T16:57:11Z</time>
      </trkpt>
      <trkpt lat="45.20199" lon="5.58614">
        <ele>1559</ele>
        <time>2019-07-11T16:57:16Z</time>
      </trkpt>
      <trkpt lat="45.20169" lon="5.58622">
        <ele>1562</ele>
        <time>2019-07-11T16:57:19Z</time>
      </trkpt>
      <trkpt lat="45.20154" lon="5.58623">
        <ele>1566</ele>
        <time>2019-07-11T16:57:21Z</time>
      </trkpt>
      <trkpt lat="45.20143" lon="5.58616">
        <ele>1568</ele>
        <time>2019-07-11T16:57:24Z</time>
      </trkpt>
      <trkpt lat="45.20129" lon="5.58601">
        <ele>1570</ele>
        <time>2019-07-11T16:57:27Z</time>
      </trkpt>
      <trkpt lat="45.20117" lon="5.58579">
        <ele>1571</ele>
        <time>2019-07-11T16:57:29Z</time>
      </trkpt>
      <trkpt lat="45.20113" lon="5.58569">
        <ele>1571</ele>
        <time>2019-07-11T16:57:33Z</time>
      </trkpt>
      <trkpt lat="45.20105" lon="5.58536">
        <ele>1569</ele>
        <time>2019-07-11T16:57:36Z</time>
      </trkpt>
      <trkpt lat="45.20102" lon="5.58512">
        <ele>1567</ele>
        <time>2019-07-11T16:57:41Z</time>
      </trkpt>
      <trkpt lat="45.20102" lon="5.58477">
        <ele>1564</ele>
        <time>2019-07-11T16:57:53Z</time>
      </trkpt>
      <trkpt lat="45.20117" lon="5.58383">
        <ele>1553</ele>
        <time>2019-07-11T16:57:54Z</time>
      </trkpt>
      <trkpt lat="45.20115" lon="5.58375">
        <ele>1553</ele>
        <time>2019-07-11T16:57:55Z</time>
      </trkpt>
      <trkpt lat="45.2011" lon="5.58368">
        <ele>1554</ele>
        <time>2019-07-11T16:57:56Z</time>
      </trkpt>
      <trkpt lat="45.20103" lon="5.58364">
        <ele>1555</ele>
        <time>2019-07-11T16:57:58Z</time>
      </trkpt>
      <trkpt lat="45.20092" lon="5.58363">
        <ele>1558</ele>
        <time>2019-07-11T16:58:10Z</time>
      </trkpt>
      <trkpt lat="45.20027" lon="5.58365">
        <ele>1561</ele>
        <time>2019-07-11T16:58:17Z</time>
      </trkpt>
      <trkpt lat="45.19987" lon="5.58371">
        <ele>1557</ele>
        <time>2019-07-11T16:58:19Z</time>
      </trkpt>
      <trkpt lat="45.19977" lon="5.58377">
        <ele>1555</ele>
        <time>2019-07-11T16:58:20Z</time>
      </trkpt>
      <trkpt lat="45.19974" lon="5.58381">
        <ele>1554</ele>
        <time>2019-07-11T16:58:22Z</time>
      </trkpt>
      <trkpt lat="45.19967" lon="5.58393">
        <ele>1554</ele>
        <time>2019-07-11T16:58:23Z</time>
      </trkpt>
      <trkpt lat="45.19965" lon="5.58401">
        <ele>1554</ele>
        <time>2019-07-11T16:58:24Z</time>
      </trkpt>
      <trkpt lat="45.19965" lon="5.5841">
        <ele>1555</ele>
        <time>2019-07-11T16:58:30Z</time>
      </trkpt>
      <trkpt lat="45.19972" lon="5.5846">
        <ele>1562</ele>
        <time>2019-07-11T16:58:35Z</time>
      </trkpt>
      <trkpt lat="45.1997" lon="5.58496">
        <ele>1565</ele>
        <time>2019-07-11T16:58:38Z</time>
      </trkpt>
      <trkpt lat="45.19963" lon="5.58523">
        <ele>1567</ele>
        <time>2019-07-11T16:58:47Z</time>
      </trkpt>
      <trkpt lat="45.19942" lon="5.5858">
        <ele>1567</ele>
        <time>2019-07-11T16:58:48Z</time>
      </trkpt>
      <trkpt lat="45.19938" lon="5.58588">
        <ele>1567</ele>
        <time>2019-07-11T16:58:54Z</time>
      </trkpt>
      <trkpt lat="45.19908" lon="5.58619">
        <ele>1565</ele>
        <time>2019-07-11T16:58:57Z</time>
      </trkpt>
      <trkpt lat="45.19897" lon="5.58629">
        <ele>1565</ele>
        <time>2019-07-11T16:58:59Z</time>
      </trkpt>
      <trkpt lat="45.19885" lon="5.58636">
        <ele>1565</ele>
        <time>2019-07-11T16:59:07Z</time>
      </trkpt>
      <trkpt lat="45.1984" lon="5.58645">
        <ele>1560</ele>
        <time>2019-07-11T16:59:17Z</time>
      </trkpt>
      <trkpt lat="45.19785" lon="5.58663">
        <ele>1562</ele>
        <time>2019-07-11T16:59:21Z</time>
      </trkpt>
      <trkpt lat="45.19762" lon="5.5866">
        <ele>1561</ele>
        <time>2019-07-11T16:59:30Z</time>
      </trkpt>
      <trkpt lat="45.19714" lon="5.58641">
        <ele>1555</ele>
        <time>2019-07-11T16:59:37Z</time>
      </trkpt>
      <trkpt lat="45.19679" lon="5.58619">
        <ele>1550</ele>
        <time>2019-07-11T16:59:40Z</time>
      </trkpt>
      <trkpt lat="45.19664" lon="5.58612">
        <ele>1548</ele>
        <time>2019-07-11T16:59:42Z</time>
      </trkpt>
      <trkpt lat="45.1965" lon="5.58608">
        <ele>1547</ele>
        <time>2019-07-11T16:59:45Z</time>
      </trkpt>
      <trkpt lat="45.19635" lon="5.58608">
        <ele>1546</ele>
        <time>2019-07-11T16:59:55Z</time>
      </trkpt>
      <trkpt lat="45.19577" lon="5.58621">
        <ele>1546</ele>
        <time>2019-07-11T17:00:02Z</time>
      </trkpt>
      <trkpt lat="45.19544" lon="5.58638">
        <ele>1548</ele>
        <time>2019-07-11T17:00:04Z</time>
      </trkpt>
      <trkpt lat="45.19531" lon="5.58642">
        <ele>1548</ele>
        <time>2019-07-11T17:00:06Z</time>
      </trkpt>
      <trkpt lat="45.19522" lon="5.5864">
        <ele>1547</ele>
        <time>2019-07-11T17:00:09Z</time>
      </trkpt>
      <trkpt lat="45.19508" lon="5.58628">
        <ele>1544</ele>
        <time>2019-07-11T17:00:11Z</time>
      </trkpt>
      <trkpt lat="45.19495" lon="5.58621">
        <ele>1542</ele>
        <time>2019-07-11T17:00:14Z</time>
      </trkpt>
      <trkpt lat="45.19478" lon="5.58616">
        <ele>1539</ele>
        <time>2019-07-11T17:00:17Z</time>
      </trkpt>
      <trkpt lat="45.19464" lon="5.58616">
        <ele>1538</ele>
        <time>2019-07-11T17:00:20Z</time>
      </trkpt>
      <trkpt lat="45.19446" lon="5.58621">
        <ele>1537</ele>
        <time>2019-07-11T17:00:24Z</time>
      </trkpt>
      <trkpt lat="45.19422" lon="5.58634">
        <ele>1537</ele>
        <time>2019-07-11T17:00:27Z</time>
      </trkpt>
      <trkpt lat="45.19407" lon="5.58639">
        <ele>1537</ele>
        <time>2019-07-11T17:00:34Z</time>
      </trkpt>
      <trkpt lat="45.19366" lon="5.58641">
        <ele>1537</ele>
        <time>2019-07-11T17:00:36Z</time>
      </trkpt>
      <trkpt lat="45.19356" lon="5.58643">
        <ele>1537</ele>
        <time>2019-07-11T17:00:45Z</time>
      </trkpt>
      <trkpt lat="45.19311" lon="5.58668">
        <ele>1543</ele>
        <time>2019-07-11T17:00:48Z</time>
      </trkpt>
      <trkpt lat="45.19295" lon="5.58682">
        <ele>1547</ele>
        <time>2019-07-11T17:00:50Z</time>
      </trkpt>
      <trkpt lat="45.19285" lon="5.58682">
        <ele>1548</ele>
        <time>2019-07-11T17:00:51Z</time>
      </trkpt>
      <trkpt lat="45.1928" lon="5.58678">
        <ele>1548</ele>
        <time>2019-07-11T17:00:53Z</time>
      </trkpt>
      <trkpt lat="45.19272" lon="5.58668">
        <ele>1547</ele>
        <time>2019-07-11T17:00:59Z</time>
      </trkpt>
      <trkpt lat="45.19253" lon="5.5863">
        <ele>1544</ele>
        <time>2019-07-11T17:01:02Z</time>
      </trkpt>
      <trkpt lat="45.19241" lon="5.58613">
        <ele>1543</ele>
        <time>2019-07-11T17:01:10Z</time>
      </trkpt>
      <trkpt lat="45.19203" lon="5.5858">
        <ele>1544</ele>
        <time>2019-07-11T17:01:16Z</time>
      </trkpt>
      <trkpt lat="45.1918" lon="5.58546">
        <ele>1541</ele>
        <time>2019-07-11T17:01:19Z</time>
      </trkpt>
      <trkpt lat="45.19163" lon="5.58528">
        <ele>1540</ele>
        <time>2019-07-11T17:01:25Z</time>
      </trkpt>
      <trkpt lat="45.19133" lon="5.5851">
        <ele>1537</ele>
        <time>2019-07-11T17:01:31Z</time>
      </trkpt>
      <trkpt lat="45.191" lon="5.58504">
        <ele>1538</ele>
        <time>2019-07-11T17:01:34Z</time>
      </trkpt>
      <trkpt lat="45.19083" lon="5.58497">
        <ele>1538</ele>
        <time>2019-07-11T17:01:36Z</time>
      </trkpt>
      <trkpt lat="45.19074" lon="5.58492">
        <ele>1537</ele>
        <time>2019-07-11T17:01:47Z</time>
      </trkpt>
      <trkpt lat="45.19021" lon="5.5845">
        <ele>1533</ele>
        <time>2019-07-11T17:01:52Z</time>
      </trkpt>
      <trkpt lat="45.18994" lon="5.58441">
        <ele>1532</ele>
        <time>2019-07-11T17:01:59Z</time>
      </trkpt>
      <trkpt lat="45.18951" lon="5.5843">
        <ele>1527</ele>
        <time>2019-07-11T17:02:02Z</time>
      </trkpt>
      <trkpt lat="45.18938" lon="5.58429">
        <ele>1525</ele>
        <time>2019-07-11T17:02:05Z</time>
      </trkpt>
      <trkpt lat="45.1892" lon="5.58432">
        <ele>1524</ele>
        <time>2019-07-11T17:02:09Z</time>
      </trkpt>
      <trkpt lat="45.18895" lon="5.58431">
        <ele>1524</ele>
        <time>2019-07-11T17:02:13Z</time>
      </trkpt>
      <trkpt lat="45.18876" lon="5.58434">
        <ele>1526</ele>
        <time>2019-07-11T17:02:20Z</time>
      </trkpt>
      <trkpt lat="45.18837" lon="5.58447">
        <ele>1530</ele>
        <time>2019-07-11T17:02:22Z</time>
      </trkpt>
      <trkpt lat="45.18827" lon="5.58447">
        <ele>1531</ele>
        <time>2019-07-11T17:02:24Z</time>
      </trkpt>
      <trkpt lat="45.18817" lon="5.58442">
        <ele>1531</ele>
        <time>2019-07-11T17:02:28Z</time>
      </trkpt>
      <trkpt lat="45.18795" lon="5.58423">
        <ele>1529</ele>
        <time>2019-07-11T17:02:33Z</time>
      </trkpt>
      <trkpt lat="45.18773" lon="5.58406">
        <ele>1527</ele>
        <time>2019-07-11T17:02:41Z</time>
      </trkpt>
      <trkpt lat="45.18729" lon="5.58379">
        <ele>1527</ele>
        <time>2019-07-11T17:02:47Z</time>
      </trkpt>
      <trkpt lat="45.187" lon="5.58366">
        <ele>1530</ele>
        <time>2019-07-11T17:02:49Z</time>
      </trkpt>
      <trkpt lat="45.18686" lon="5.58358">
        <ele>1532</ele>
        <time>2019-07-11T17:02:53Z</time>
      </trkpt>
      <trkpt lat="45.18669" lon="5.58338">
        <ele>1533</ele>
        <time>2019-07-11T17:02:55Z</time>
      </trkpt>
      <trkpt lat="45.18664" lon="5.58329">
        <ele>1534</ele>
        <time>2019-07-11T17:02:57Z</time>
      </trkpt>
      <trkpt lat="45.18663" lon="5.58307">
        <ele>1533</ele>
        <time>2019-07-11T17:03:04Z</time>
      </trkpt>
      <trkpt lat="45.18664" lon="5.58257">
        <ele>1529</ele>
        <time>2019-07-11T17:03:09Z</time>
      </trkpt>
      <trkpt lat="45.18658" lon="5.58218">
        <ele>1528</ele>
        <time>2019-07-11T17:03:16Z</time>
      </trkpt>
      <trkpt lat="45.18646" lon="5.58162">
        <ele>1528</ele>
        <time>2019-07-11T17:03:31Z</time>
      </trkpt>
      <trkpt lat="45.18638" lon="5.58047">
        <ele>1509</ele>
        <time>2019-07-11T17:03:32Z</time>
      </trkpt>
      <trkpt lat="45.18636" lon="5.58037">
        <ele>1508</ele>
        <time>2019-07-11T17:03:34Z</time>
      </trkpt>
      <trkpt lat="45.18629" lon="5.58024">
        <ele>1508</ele>
        <time>2019-07-11T17:03:35Z</time>
      </trkpt>
      <trkpt lat="45.18622" lon="5.58017">
        <ele>1509</ele>
        <time>2019-07-11T17:03:39Z</time>
      </trkpt>
      <trkpt lat="45.18602" lon="5.58012">
        <ele>1514</ele>
        <time>2019-07-11T17:03:44Z</time>
      </trkpt>
      <trkpt lat="45.18573" lon="5.58017">
        <ele>1521</ele>
        <time>2019-07-11T17:03:49Z</time>
      </trkpt>
      <trkpt lat="45.18546" lon="5.58019">
        <ele>1522</ele>
        <time>2019-07-11T17:04:03Z</time>
      </trkpt>
      <trkpt lat="45.18467" lon="5.58009">
        <ele>1517</ele>
        <time>2019-07-11T17:04:06Z</time>
      </trkpt>
      <trkpt lat="45.1845" lon="5.58011">
        <ele>1517</ele>
        <time>2019-07-11T17:04:08Z</time>
      </trkpt>
      <trkpt lat="45.18439" lon="5.58019">
        <ele>1518</ele>
        <time>2019-07-11T17:04:13Z</time>
      </trkpt>
      <trkpt lat="45.18415" lon="5.58028">
        <ele>1519</ele>
        <time>2019-07-11T17:04:19Z</time>
      </trkpt>
      <trkpt lat="45.18381" lon="5.58029">
        <ele>1520</ele>
        <time>2019-07-11T17:04:24Z</time>
      </trkpt>
      <trkpt lat="45.18353" lon="5.58037">
        <ele>1522</ele>
        <time>2019-07-11T17:04:26Z</time>
      </trkpt>
      <trkpt lat="45.18342" lon="5.58034">
        <ele>1522</ele>
        <time>2019-07-11T17:04:30Z</time>
      </trkpt>
      <trkpt lat="45.18326" lon="5.58016">
        <ele>1522</ele>
        <time>2019-07-11T17:04:34Z</time>
      </trkpt>
      <trkpt lat="45.1831" lon="5.57986">
        <ele>1523</ele>
        <time>2019-07-11T17:04:42Z</time>
      </trkpt>
      <trkpt lat="45.1829" lon="5.57936">
        <ele>1523</ele>
        <time>2019-07-11T17:04:51Z</time>
      </trkpt>
      <trkpt lat="45.18265" lon="5.57871">
        <ele>1523</ele>
        <time>2019-07-11T17:04:57Z</time>
      </trkpt>
      <trkpt lat="45.1825" lon="5.57823">
        <ele>1521</ele>
        <time>2019-07-11T17:05:04Z</time>
      </trkpt>
      <trkpt lat="45.18235" lon="5.57771">
        <ele>1513</ele>
        <time>2019-07-11T17:05:07Z</time>
      </trkpt>
      <trkpt lat="45.18229" lon="5.57756">
        <ele>1510</ele>
        <time>2019-07-11T17:05:08Z</time>
      </trkpt>
      <trkpt lat="45.18221" lon="5.57749">
        <ele>1509</ele>
        <time>2019-07-11T17:05:10Z</time>
      </trkpt>
      <trkpt lat="45.18212" lon="5.57751">
        <ele>1510</ele>
        <time>2019-07-11T17:05:11Z</time>
      </trkpt>
      <trkpt lat="45.18205" lon="5.57757">
        <ele>1511</ele>
        <time>2019-07-11T17:05:14Z</time>
      </trkpt>
      <trkpt lat="45.18198" lon="5.57775">
        <ele>1513</ele>
        <time>2019-07-11T17:05:18Z</time>
      </trkpt>
      <trkpt lat="45.18181" lon="5.57801">
        <ele>1517</ele>
        <time>2019-07-11T17:05:24Z</time>
      </trkpt>
      <trkpt lat="45.18158" lon="5.5783">
        <ele>1522</ele>
        <time>2019-07-11T17:05:25Z</time>
      </trkpt>
      <trkpt lat="45.18151" lon="5.57836">
        <ele>1523</ele>
        <time>2019-07-11T17:05:27Z</time>
      </trkpt>
      <trkpt lat="45.18145" lon="5.57846">
        <ele>1525</ele>
        <time>2019-07-11T17:05:29Z</time>
      </trkpt>
      <trkpt lat="45.18141" lon="5.57864">
        <ele>1528</ele>
        <time>2019-07-11T17:05:32Z</time>
      </trkpt>
      <trkpt lat="45.18131" lon="5.57883">
        <ele>1532</ele>
        <time>2019-07-11T17:05:33Z</time>
      </trkpt>
      <trkpt lat="45.18126" lon="5.57886">
        <ele>1533</ele>
        <time>2019-07-11T17:05:35Z</time>
      </trkpt>
      <trkpt lat="45.18119" lon="5.57886">
        <ele>1533</ele>
        <time>2019-07-11T17:05:36Z</time>
      </trkpt>
      <trkpt lat="45.18111" lon="5.57877">
        <ele>1531</ele>
        <time>2019-07-11T17:05:39Z</time>
      </trkpt>
      <trkpt lat="45.18104" lon="5.57861">
        <ele>1529</ele>
        <time>2019-07-11T17:05:42Z</time>
      </trkpt>
      <trkpt lat="45.18101" lon="5.57839">
        <ele>1526</ele>
        <time>2019-07-11T17:05:44Z</time>
      </trkpt>
      <trkpt lat="45.181" lon="5.57823">
        <ele>1524</ele>
        <time>2019-07-11T17:05:47Z</time>
      </trkpt>
      <trkpt lat="45.18101" lon="5.57793">
        <ele>1520</ele>
        <time>2019-07-11T17:05:50Z</time>
      </trkpt>
      <trkpt lat="45.18104" lon="5.57768">
        <ele>1517</ele>
        <time>2019-07-11T17:05:54Z</time>
      </trkpt>
      <trkpt lat="45.18101" lon="5.57738">
        <ele>1513</ele>
        <time>2019-07-11T17:05:57Z</time>
      </trkpt>
      <trkpt lat="45.18092" lon="5.5772">
        <ele>1509</ele>
        <time>2019-07-11T17:06:00Z</time>
      </trkpt>
      <trkpt lat="45.18078" lon="5.57704">
        <ele>1507</ele>
        <time>2019-07-11T17:06:07Z</time>
      </trkpt>
      <trkpt lat="45.18042" lon="5.5768">
        <ele>1505</ele>
        <time>2019-07-11T17:06:11Z</time>
      </trkpt>
      <trkpt lat="45.18022" lon="5.57684">
        <ele>1508</ele>
        <time>2019-07-11T17:06:14Z</time>
      </trkpt>
      <trkpt lat="45.18008" lon="5.57697">
        <ele>1512</ele>
        <time>2019-07-11T17:06:16Z</time>
      </trkpt>
      <trkpt lat="45.17996" lon="5.57701">
        <ele>1515</ele>
        <time>2019-07-11T17:06:17Z</time>
      </trkpt>
      <trkpt lat="45.17989" lon="5.57697">
        <ele>1515</ele>
        <time>2019-07-11T17:06:19Z</time>
      </trkpt>
      <trkpt lat="45.17982" lon="5.57689">
        <ele>1514</ele>
        <time>2019-07-11T17:06:21Z</time>
      </trkpt>
      <trkpt lat="45.17978" lon="5.57677">
        <ele>1512</ele>
        <time>2019-07-11T17:06:28Z</time>
      </trkpt>
      <trkpt lat="45.17978" lon="5.57618">
        <ele>1496</ele>
        <time>2019-07-11T17:06:30Z</time>
      </trkpt>
      <trkpt lat="45.17975" lon="5.57603">
        <ele>1493</ele>
        <time>2019-07-11T17:06:31Z</time>
      </trkpt>
      <trkpt lat="45.17968" lon="5.57598">
        <ele>1491</ele>
        <time>2019-07-11T17:06:36Z</time>
      </trkpt>
      <trkpt lat="45.17942" lon="5.57594">
        <ele>1491</ele>
        <time>2019-07-11T17:06:38Z</time>
      </trkpt>
      <trkpt lat="45.17933" lon="5.57595">
        <ele>1492</ele>
        <time>2019-07-11T17:06:40Z</time>
      </trkpt>
      <trkpt lat="45.17921" lon="5.57606">
        <ele>1495</ele>
        <time>2019-07-11T17:06:45Z</time>
      </trkpt>
      <trkpt lat="45.17902" lon="5.57635">
        <ele>1506</ele>
        <time>2019-07-11T17:06:49Z</time>
      </trkpt>
      <trkpt lat="45.17887" lon="5.57653">
        <ele>1512</ele>
        <time>2019-07-11T17:06:53Z</time>
      </trkpt>
      <trkpt lat="45.17868" lon="5.57673">
        <ele>1518</ele>
        <time>2019-07-11T17:06:55Z</time>
      </trkpt>
      <trkpt lat="45.17859" lon="5.57675">
        <ele>1519</ele>
        <time>2019-07-11T17:06:56Z</time>
      </trkpt>
      <trkpt lat="45.17851" lon="5.57672">
        <ele>1518</ele>
        <time>2019-07-11T17:06:58Z</time>
      </trkpt>
      <trkpt lat="45.17846" lon="5.57662">
        <ele>1515</ele>
        <time>2019-07-11T17:07:01Z</time>
      </trkpt>
      <trkpt lat="45.17843" lon="5.57637">
        <ele>1508</ele>
        <time>2019-07-11T17:07:04Z</time>
      </trkpt>
      <trkpt lat="45.17838" lon="5.57611">
        <ele>1500</ele>
        <time>2019-07-11T17:07:06Z</time>
      </trkpt>
      <trkpt lat="45.1783" lon="5.57597">
        <ele>1496</ele>
        <time>2019-07-11T17:07:10Z</time>
      </trkpt>
      <trkpt lat="45.17815" lon="5.57583">
        <ele>1495</ele>
        <time>2019-07-11T17:07:15Z</time>
      </trkpt>
      <trkpt lat="45.17783" lon="5.5757">
        <ele>1496</ele>
        <time>2019-07-11T17:07:21Z</time>
      </trkpt>
      <trkpt lat="45.17754" lon="5.57563">
        <ele>1499</ele>
        <time>2019-07-11T17:07:29Z</time>
      </trkpt>
      <trkpt lat="45.17708" lon="5.57563">
        <ele>1499</ele>
        <time>2019-07-11T17:07:36Z</time>
      </trkpt>
      <trkpt lat="45.17666" lon="5.57555">
        <ele>1495</ele>
        <time>2019-07-11T17:07:40Z</time>
      </trkpt>
      <trkpt lat="45.17644" lon="5.57561">
        <ele>1498</ele>
        <time>2019-07-11T17:07:48Z</time>
      </trkpt>
      <trkpt lat="45.17603" lon="5.57586">
        <ele>1509</ele>
        <time>2019-07-11T17:07:50Z</time>
      </trkpt>
      <trkpt lat="45.17594" lon="5.57588">
        <ele>1510</ele>
        <time>2019-07-11T17:07:52Z</time>
      </trkpt>
      <trkpt lat="45.17583" lon="5.57584">
        <ele>1508</ele>
        <time>2019-07-11T17:07:58Z</time>
      </trkpt>
      <trkpt lat="45.17558" lon="5.57548">
        <ele>1504</ele>
        <time>2019-07-11T17:08:06Z</time>
      </trkpt>
      <trkpt lat="45.1753" lon="5.57497">
        <ele>1499</ele>
        <time>2019-07-11T17:08:11Z</time>
      </trkpt>
      <trkpt lat="45.17514" lon="5.57471">
        <ele>1499</ele>
        <time>2019-07-11T17:08:15Z</time>
      </trkpt>
      <trkpt lat="45.175" lon="5.57442">
        <ele>1497</ele>
        <time>2019-07-11T17:08:20Z</time>
      </trkpt>
      <trkpt lat="45.17489" lon="5.57406">
        <ele>1489</ele>
        <time>2019-07-11T17:08:31Z</time>
      </trkpt>
      <trkpt lat="45.17468" lon="5.57327">
        <ele>1472</ele>
        <time>2019-07-11T17:08:36Z</time>
      </trkpt>
      <trkpt lat="45.17456" lon="5.5729">
        <ele>1467</ele>
        <time>2019-07-11T17:08:38Z</time>
      </trkpt>
      <trkpt lat="45.17445" lon="5.57277">
        <ele>1466</ele>
        <time>2019-07-11T17:08:44Z</time>
      </trkpt>
      <trkpt lat="45.17415" lon="5.57259">
        <ele>1466</ele>
        <time>2019-07-11T17:08:46Z</time>
      </trkpt>
      <trkpt lat="45.17404" lon="5.57259">
        <ele>1461</ele>
        <time>2019-07-11T17:08:47Z</time>
      </trkpt>
      <trkpt lat="45.17397" lon="5.57263">
        <ele>1458</ele>
        <time>2019-07-11T17:08:49Z</time>
      </trkpt>
      <trkpt lat="45.17394" lon="5.57273">
        <ele>1458</ele>
        <time>2019-07-11T17:08:56Z</time>
      </trkpt>
      <trkpt lat="45.17392" lon="5.57327">
        <ele>1465</ele>
        <time>2019-07-11T17:09:08Z</time>
      </trkpt>
      <trkpt lat="45.17394" lon="5.57422">
        <ele>1469</ele>
        <time>2019-07-11T17:09:12Z</time>
      </trkpt>
      <trkpt lat="45.17392" lon="5.57455">
        <ele>1470</ele>
        <time>2019-07-11T17:09:14Z</time>
      </trkpt>
      <trkpt lat="45.17389" lon="5.57476">
        <ele>1470</ele>
        <time>2019-07-11T17:09:24Z</time>
      </trkpt>
      <trkpt lat="45.17369" lon="5.57549">
        <ele>1463</ele>
        <time>2019-07-11T17:09:30Z</time>
      </trkpt>
      <trkpt lat="45.17359" lon="5.57596">
        <ele>1462</ele>
        <time>2019-07-11T17:09:34Z</time>
      </trkpt>
      <trkpt lat="45.17355" lon="5.57621">
        <ele>1462</ele>
        <time>2019-07-11T17:09:36Z</time>
      </trkpt>
      <trkpt lat="45.17354" lon="5.57643">
        <ele>1463</ele>
        <time>2019-07-11T17:09:40Z</time>
      </trkpt>
      <trkpt lat="45.17354" lon="5.57669">
        <ele>1466</ele>
        <time>2019-07-11T17:09:47Z</time>
      </trkpt>
      <trkpt lat="45.17357" lon="5.57728">
        <ele>1473</ele>
        <time>2019-07-11T17:09:50Z</time>
      </trkpt>
      <trkpt lat="45.17352" lon="5.57751">
        <ele>1472</ele>
        <time>2019-07-11T17:09:52Z</time>
      </trkpt>
      <trkpt lat="45.17345" lon="5.57763">
        <ele>1471</ele>
        <time>2019-07-11T17:09:59Z</time>
      </trkpt>
      <trkpt lat="45.17314" lon="5.57802">
        <ele>1470</ele>
        <time>2019-07-11T17:10:04Z</time>
      </trkpt>
      <trkpt lat="45.17292" lon="5.57824">
        <ele>1472</ele>
        <time>2019-07-11T17:10:09Z</time>
      </trkpt>
      <trkpt lat="45.17265" lon="5.57837">
        <ele>1470</ele>
        <time>2019-07-11T17:10:12Z</time>
      </trkpt>
      <trkpt lat="45.17247" lon="5.57841">
        <ele>1468</ele>
        <time>2019-07-11T17:10:19Z</time>
      </trkpt>
      <trkpt lat="45.17209" lon="5.5784">
        <ele>1467</ele>
        <time>2019-07-11T17:10:22Z</time>
      </trkpt>
      <trkpt lat="45.17193" lon="5.57841">
        <ele>1466</ele>
        <time>2019-07-11T17:10:28Z</time>
      </trkpt>
      <trkpt lat="45.17157" lon="5.57838">
        <ele>1466</ele>
        <time>2019-07-11T17:10:35Z</time>
      </trkpt>
      <trkpt lat="45.17118" lon="5.57843">
        <ele>1471</ele>
        <time>2019-07-11T17:10:38Z</time>
      </trkpt>
      <trkpt lat="45.17106" lon="5.57841">
        <ele>1472</ele>
        <time>2019-07-11T17:10:43Z</time>
      </trkpt>
      <trkpt lat="45.17075" lon="5.57825">
        <ele>1469</ele>
        <time>2019-07-11T17:10:47Z</time>
      </trkpt>
      <trkpt lat="45.17056" lon="5.57819">
        <ele>1470</ele>
        <time>2019-07-11T17:10:57Z</time>
      </trkpt>
      <trkpt lat="45.16998" lon="5.57804">
        <ele>1471</ele>
        <time>2019-07-11T17:11:09Z</time>
      </trkpt>
      <trkpt lat="45.16933" lon="5.57812">
        <ele>1474</ele>
        <time>2019-07-11T17:11:14Z</time>
      </trkpt>
      <trkpt lat="45.16903" lon="5.57805">
        <ele>1472</ele>
        <time>2019-07-11T17:11:22Z</time>
      </trkpt>
      <trkpt lat="45.16861" lon="5.57801">
        <ele>1475</ele>
        <time>2019-07-11T17:11:24Z</time>
      </trkpt>
      <trkpt lat="45.16851" lon="5.57794">
        <ele>1474</ele>
        <time>2019-07-11T17:11:30Z</time>
      </trkpt>
      <trkpt lat="45.16829" lon="5.57752">
        <ele>1465</ele>
        <time>2019-07-11T17:11:33Z</time>
      </trkpt>
      <trkpt lat="45.16817" lon="5.57737">
        <ele>1461</ele>
        <time>2019-07-11T17:11:40Z</time>
      </trkpt>
      <trkpt lat="45.16785" lon="5.57716">
        <ele>1456</ele>
        <time>2019-07-11T17:11:46Z</time>
      </trkpt>
      <trkpt lat="45.16748" lon="5.57708">
        <ele>1457</ele>
        <time>2019-07-11T17:11:50Z</time>
      </trkpt>
      <trkpt lat="45.16731" lon="5.57696">
        <ele>1454</ele>
        <time>2019-07-11T17:11:51Z</time>
      </trkpt>
      <trkpt lat="45.16722" lon="5.57693">
        <ele>1453</ele>
        <time>2019-07-11T17:11:55Z</time>
      </trkpt>
      <trkpt lat="45.16703" lon="5.57692">
        <ele>1452</ele>
        <time>2019-07-11T17:11:59Z</time>
      </trkpt>
      <trkpt lat="45.16681" lon="5.57695">
        <ele>1453</ele>
        <time>2019-07-11T17:12:16Z</time>
      </trkpt>
      <trkpt lat="45.16584" lon="5.57721">
        <ele>1458</ele>
        <time>2019-07-11T17:12:19Z</time>
      </trkpt>
      <trkpt lat="45.16571" lon="5.57718">
        <ele>1460</ele>
        <time>2019-07-11T17:12:20Z</time>
      </trkpt>
      <trkpt lat="45.16564" lon="5.57711">
        <ele>1460</ele>
        <time>2019-07-11T17:12:36Z</time>
      </trkpt>
      <trkpt lat="45.16501" lon="5.57625">
        <ele>1458</ele>
        <time>2019-07-11T17:12:38Z</time>
      </trkpt>
      <trkpt lat="45.16495" lon="5.57604">
        <ele>1458</ele>
        <time>2019-07-11T17:12:42Z</time>
      </trkpt>
      <trkpt lat="45.16489" lon="5.57575">
        <ele>1458</ele>
        <time>2019-07-11T17:12:44Z</time>
      </trkpt>
      <trkpt lat="45.1649" lon="5.57563">
        <ele>1457</ele>
        <time>2019-07-11T17:12:46Z</time>
      </trkpt>
      <trkpt lat="45.16494" lon="5.57548">
        <ele>1453</ele>
        <time>2019-07-11T17:12:48Z</time>
      </trkpt>
      <trkpt lat="45.16496" lon="5.57532">
        <ele>1450</ele>
        <time>2019-07-11T17:12:50Z</time>
      </trkpt>
      <trkpt lat="45.16496" lon="5.57512">
        <ele>1449</ele>
        <time>2019-07-11T17:13:02Z</time>
      </trkpt>
      <trkpt lat="45.16489" lon="5.5742">
        <ele>1451</ele>
        <time>2019-07-11T17:13:23Z</time>
      </trkpt>
      <trkpt lat="45.16492" lon="5.57255">
        <ele>1445</ele>
        <time>2019-07-11T17:13:33Z</time>
      </trkpt>
      <trkpt lat="45.16495" lon="5.57174">
        <ele>1445</ele>
        <time>2019-07-11T17:13:44Z</time>
      </trkpt>
      <trkpt lat="45.16494" lon="5.57084">
        <ele>1451</ele>
        <time>2019-07-11T17:13:50Z</time>
      </trkpt>
      <trkpt lat="45.16496" lon="5.57037">
        <ele>1456</ele>
        <time>2019-07-11T17:13:57Z</time>
      </trkpt>
      <trkpt lat="45.16505" lon="5.56981">
        <ele>1456</ele>
        <time>2019-07-11T17:14:01Z</time>
      </trkpt>
      <trkpt lat="45.16512" lon="5.56954">
        <ele>1453</ele>
        <time>2019-07-11T17:14:05Z</time>
      </trkpt>
      <trkpt lat="45.16525" lon="5.56926">
        <ele>1444</ele>
        <time>2019-07-11T17:14:08Z</time>
      </trkpt>
      <trkpt lat="45.16532" lon="5.56904">
        <ele>1440</ele>
        <time>2019-07-11T17:14:15Z</time>
      </trkpt>
      <trkpt lat="45.16559" lon="5.56863">
        <ele>1423</ele>
        <time>2019-07-11T17:14:27Z</time>
      </trkpt>
      <trkpt lat="45.16586" lon="5.56778">
        <ele>1423</ele>
        <time>2019-07-11T17:14:31Z</time>
      </trkpt>
      <trkpt lat="45.16594" lon="5.56744">
        <ele>1424</ele>
        <time>2019-07-11T17:14:37Z</time>
      </trkpt>
      <trkpt lat="45.1661" lon="5.56703">
        <ele>1410</ele>
        <time>2019-07-11T17:14:38Z</time>
      </trkpt>
      <trkpt lat="45.16611" lon="5.56693">
        <ele>1409</ele>
        <time>2019-07-11T17:14:42Z</time>
      </trkpt>
      <trkpt lat="45.16603" lon="5.5667">
        <ele>1414</ele>
        <time>2019-07-11T17:14:44Z</time>
      </trkpt>
      <trkpt lat="45.16592" lon="5.56658">
        <ele>1417</ele>
        <time>2019-07-11T17:14:48Z</time>
      </trkpt>
      <trkpt lat="45.16572" lon="5.56645">
        <ele>1419</ele>
        <time>2019-07-11T17:14:52Z</time>
      </trkpt>
      <trkpt lat="45.16551" lon="5.56637">
        <ele>1418</ele>
        <time>2019-07-11T17:14:57Z</time>
      </trkpt>
      <trkpt lat="45.16524" lon="5.56632">
        <ele>1420</ele>
        <time>2019-07-11T17:15:15Z</time>
      </trkpt>
      <trkpt lat="45.16419" lon="5.56625">
        <ele>1423</ele>
        <time>2019-07-11T17:15:22Z</time>
      </trkpt>
      <trkpt lat="45.16384" lon="5.56614">
        <ele>1416</ele>
        <time>2019-07-11T17:15:28Z</time>
      </trkpt>
      <trkpt lat="45.16348" lon="5.56607">
        <ele>1410</ele>
        <time>2019-07-11T17:15:29Z</time>
      </trkpt>
      <trkpt lat="45.16343" lon="5.56608">
        <ele>1410</ele>
        <time>2019-07-11T17:15:30Z</time>
      </trkpt>
      <trkpt lat="45.16338" lon="5.56612">
        <ele>1410</ele>
        <time>2019-07-11T17:15:40Z</time>
      </trkpt>
      <trkpt lat="45.163" lon="5.56667">
        <ele>1423</ele>
        <time>2019-07-11T17:15:44Z</time>
      </trkpt>
      <trkpt lat="45.16281" lon="5.56691">
        <ele>1428</ele>
        <time>2019-07-11T17:15:47Z</time>
      </trkpt>
      <trkpt lat="45.16268" lon="5.56698">
        <ele>1429</ele>
        <time>2019-07-11T17:15:48Z</time>
      </trkpt>
      <trkpt lat="45.16261" lon="5.56698">
        <ele>1428</ele>
        <time>2019-07-11T17:15:50Z</time>
      </trkpt>
      <trkpt lat="45.1625" lon="5.56694">
        <ele>1425</ele>
        <time>2019-07-11T17:15:51Z</time>
      </trkpt>
      <trkpt lat="45.16244" lon="5.56688">
        <ele>1424</ele>
        <time>2019-07-11T17:15:53Z</time>
      </trkpt>
      <trkpt lat="45.16238" lon="5.56676">
        <ele>1422</ele>
        <time>2019-07-11T17:15:59Z</time>
      </trkpt>
      <trkpt lat="45.16222" lon="5.56632">
        <ele>1412</ele>
        <time>2019-07-11T17:16:01Z</time>
      </trkpt>
      <trkpt lat="45.16216" lon="5.56622">
        <ele>1410</ele>
        <time>2019-07-11T17:16:04Z</time>
      </trkpt>
      <trkpt lat="45.16203" lon="5.56604">
        <ele>1408</ele>
        <time>2019-07-11T17:16:07Z</time>
      </trkpt>
      <trkpt lat="45.16188" lon="5.56594">
        <ele>1409</ele>
        <time>2019-07-11T17:16:10Z</time>
      </trkpt>
      <trkpt lat="45.16175" lon="5.56589">
        <ele>1410</ele>
        <time>2019-07-11T17:16:14Z</time>
      </trkpt>
      <trkpt lat="45.16153" lon="5.56587">
        <ele>1412</ele>
        <time>2019-07-11T17:16:22Z</time>
      </trkpt>
      <trkpt lat="45.16108" lon="5.56586">
        <ele>1414</ele>
        <time>2019-07-11T17:16:28Z</time>
      </trkpt>
      <trkpt lat="45.16075" lon="5.56577">
        <ele>1412</ele>
        <time>2019-07-11T17:16:30Z</time>
      </trkpt>
      <trkpt lat="45.16061" lon="5.56577">
        <ele>1410</ele>
        <time>2019-07-11T17:16:32Z</time>
      </trkpt>
      <trkpt lat="45.16053" lon="5.56577">
        <ele>1410</ele>
        <time>2019-07-11T17:16:39Z</time>
      </trkpt>
      <trkpt lat="45.16013" lon="5.56592">
        <ele>1409</ele>
        <time>2019-07-11T17:16:42Z</time>
      </trkpt>
      <trkpt lat="45.15996" lon="5.56596">
        <ele>1409</ele>
        <time>2019-07-11T17:16:45Z</time>
      </trkpt>
      <trkpt lat="45.15981" lon="5.56595">
        <ele>1410</ele>
        <time>2019-07-11T17:16:47Z</time>
      </trkpt>
      <trkpt lat="45.15973" lon="5.56585">
        <ele>1409</ele>
        <time>2019-07-11T17:16:58Z</time>
      </trkpt>
      <trkpt lat="45.15932" lon="5.56513">
        <ele>1398</ele>
        <time>2019-07-11T17:17:01Z</time>
      </trkpt>
      <trkpt lat="45.1592" lon="5.565">
        <ele>1397</ele>
        <time>2019-07-11T17:17:04Z</time>
      </trkpt>
      <trkpt lat="45.15903" lon="5.56486">
        <ele>1394</ele>
        <time>2019-07-11T17:17:07Z</time>
      </trkpt>
      <trkpt lat="45.15887" lon="5.56476">
        <ele>1391</ele>
        <time>2019-07-11T17:17:09Z</time>
      </trkpt>
      <trkpt lat="45.15878" lon="5.56472">
        <ele>1389</ele>
        <time>2019-07-11T17:17:13Z</time>
      </trkpt>
      <trkpt lat="45.15859" lon="5.56475">
        <ele>1389</ele>
        <time>2019-07-11T17:17:15Z</time>
      </trkpt>
      <trkpt lat="45.15844" lon="5.56482">
        <ele>1389</ele>
        <time>2019-07-11T17:17:17Z</time>
      </trkpt>
      <trkpt lat="45.15837" lon="5.56488">
        <ele>1389</ele>
        <time>2019-07-11T17:17:20Z</time>
      </trkpt>
      <trkpt lat="45.15823" lon="5.56506">
        <ele>1388</ele>
        <time>2019-07-11T17:17:24Z</time>
      </trkpt>
      <trkpt lat="45.15812" lon="5.56535">
        <ele>1388</ele>
        <time>2019-07-11T17:17:28Z</time>
      </trkpt>
      <trkpt lat="45.15807" lon="5.56561">
        <ele>1389</ele>
        <time>2019-07-11T17:17:30Z</time>
      </trkpt>
      <trkpt lat="45.15806" lon="5.56578">
        <ele>1391</ele>
        <time>2019-07-11T17:17:31Z</time>
      </trkpt>
      <trkpt lat="45.15807" lon="5.56589">
        <ele>1392</ele>
        <time>2019-07-11T17:17:34Z</time>
      </trkpt>
      <trkpt lat="45.15814" lon="5.56606">
        <ele>1395</ele>
        <time>2019-07-11T17:17:40Z</time>
      </trkpt>
      <trkpt lat="45.15836" lon="5.5665">
        <ele>1400</ele>
        <time>2019-07-11T17:17:44Z</time>
      </trkpt>
      <trkpt lat="45.15841" lon="5.56675">
        <ele>1402</ele>
        <time>2019-07-11T17:17:46Z</time>
      </trkpt>
      <trkpt lat="45.15841" lon="5.5669">
        <ele>1403</ele>
        <time>2019-07-11T17:17:52Z</time>
      </trkpt>
      <trkpt lat="45.15831" lon="5.56737">
        <ele>1404</ele>
        <time>2019-07-11T17:17:54Z</time>
      </trkpt>
      <trkpt lat="45.15823" lon="5.56754">
        <ele>1406</ele>
        <time>2019-07-11T17:17:55Z</time>
      </trkpt>
      <trkpt lat="45.15819" lon="5.56759">
        <ele>1407</ele>
        <time>2019-07-11T17:17:58Z</time>
      </trkpt>
      <trkpt lat="45.15806" lon="5.56761">
        <ele>1408</ele>
        <time>2019-07-11T17:18:00Z</time>
      </trkpt>
      <trkpt lat="45.15797" lon="5.56752">
        <ele>1408</ele>
        <time>2019-07-11T17:18:02Z</time>
      </trkpt>
      <trkpt lat="45.15792" lon="5.56732">
        <ele>1405</ele>
        <time>2019-07-11T17:18:05Z</time>
      </trkpt>
      <trkpt lat="45.1579" lon="5.5671">
        <ele>1401</ele>
        <time>2019-07-11T17:18:07Z</time>
      </trkpt>
      <trkpt lat="45.15785" lon="5.56699">
        <ele>1399</ele>
        <time>2019-07-11T17:18:09Z</time>
      </trkpt>
      <trkpt lat="45.15775" lon="5.56689">
        <ele>1397</ele>
        <time>2019-07-11T17:18:17Z</time>
      </trkpt>
      <trkpt lat="45.15732" lon="5.56656">
        <ele>1391</ele>
        <time>2019-07-11T17:18:26Z</time>
      </trkpt>
      <trkpt lat="45.15693" lon="5.56615">
        <ele>1387</ele>
        <time>2019-07-11T17:18:34Z</time>
      </trkpt>
      <trkpt lat="45.1567" lon="5.56564">
        <ele>1374</ele>
        <time>2019-07-11T17:18:35Z</time>
      </trkpt>
      <trkpt lat="45.15666" lon="5.56561">
        <ele>1373</ele>
        <time>2019-07-11T17:18:36Z</time>
      </trkpt>
      <trkpt lat="45.15658" lon="5.56561">
        <ele>1373</ele>
        <time>2019-07-11T17:18:37Z</time>
      </trkpt>
      <trkpt lat="45.15651" lon="5.56566">
        <ele>1373</ele>
        <time>2019-07-11T17:18:40Z</time>
      </trkpt>
      <trkpt lat="45.15641" lon="5.56581">
        <ele>1377</ele>
        <time>2019-07-11T17:18:48Z</time>
      </trkpt>
      <trkpt lat="45.15616" lon="5.5663">
        <ele>1386</ele>
        <time>2019-07-11T17:18:53Z</time>
      </trkpt>
      <trkpt lat="45.156" lon="5.56668">
        <ele>1391</ele>
        <time>2019-07-11T17:18:58Z</time>
      </trkpt>
      <trkpt lat="45.15581" lon="5.56691">
        <ele>1393</ele>
        <time>2019-07-11T17:19:02Z</time>
      </trkpt>
      <trkpt lat="45.1556" lon="5.56712">
        <ele>1397</ele>
        <time>2019-07-11T17:19:09Z</time>
      </trkpt>
      <trkpt lat="45.15524" lon="5.56739">
        <ele>1399</ele>
        <time>2019-07-11T17:19:10Z</time>
      </trkpt>
      <trkpt lat="45.15519" lon="5.56739">
        <ele>1399</ele>
        <time>2019-07-11T17:19:12Z</time>
      </trkpt>
      <trkpt lat="45.1551" lon="5.56732">
        <ele>1398</ele>
        <time>2019-07-11T17:19:14Z</time>
      </trkpt>
      <trkpt lat="45.15503" lon="5.5672">
        <ele>1398</ele>
        <time>2019-07-11T17:19:15Z</time>
      </trkpt>
      <trkpt lat="45.15501" lon="5.56712">
        <ele>1398</ele>
        <time>2019-07-11T17:19:17Z</time>
      </trkpt>
      <trkpt lat="45.155" lon="5.56699">
        <ele>1398</ele>
        <time>2019-07-11T17:19:18Z</time>
      </trkpt>
      <trkpt lat="45.15502" lon="5.56693">
        <ele>1398</ele>
        <time>2019-07-11T17:19:19Z</time>
      </trkpt>
      <trkpt lat="45.15504" lon="5.56683">
        <ele>1398</ele>
        <time>2019-07-11T17:19:30Z</time>
      </trkpt>
      <trkpt lat="45.15542" lon="5.5661">
        <ele>1388</ele>
        <time>2019-07-11T17:19:32Z</time>
      </trkpt>
      <trkpt lat="45.15544" lon="5.56593">
        <ele>1386</ele>
        <time>2019-07-11T17:19:36Z</time>
      </trkpt>
      <trkpt lat="45.15542" lon="5.56563">
        <ele>1382</ele>
        <time>2019-07-11T17:19:43Z</time>
      </trkpt>
      <trkpt lat="45.15529" lon="5.56515">
        <ele>1378</ele>
        <time>2019-07-11T17:19:46Z</time>
      </trkpt>
      <trkpt lat="45.15519" lon="5.56495">
        <ele>1378</ele>
        <time>2019-07-11T17:19:48Z</time>
      </trkpt>
      <trkpt lat="45.1551" lon="5.56482">
        <ele>1379</ele>
        <time>2019-07-11T17:19:54Z</time>
      </trkpt>
      <trkpt lat="45.15482" lon="5.56451">
        <ele>1380</ele>
        <time>2019-07-11T17:19:59Z</time>
      </trkpt>
      <trkpt lat="45.15464" lon="5.56428">
        <ele>1380</ele>
        <time>2019-07-11T17:20:06Z</time>
      </trkpt>
      <trkpt lat="45.15436" lon="5.56381">
        <ele>1377</ele>
        <time>2019-07-11T17:20:14Z</time>
      </trkpt>
      <trkpt lat="45.15403" lon="5.56338">
        <ele>1374</ele>
        <time>2019-07-11T17:20:16Z</time>
      </trkpt>
      <trkpt lat="45.15393" lon="5.5633">
        <ele>1372</ele>
        <time>2019-07-11T17:20:18Z</time>
      </trkpt>
      <trkpt lat="45.15386" lon="5.56327">
        <ele>1371</ele>
        <time>2019-07-11T17:20:21Z</time>
      </trkpt>
      <trkpt lat="45.15367" lon="5.56328">
        <ele>1370</ele>
        <time>2019-07-11T17:20:25Z</time>
      </trkpt>
      <trkpt lat="45.15346" lon="5.56333">
        <ele>1371</ele>
        <time>2019-07-11T17:20:27Z</time>
      </trkpt>
      <trkpt lat="45.15337" lon="5.56339">
        <ele>1373</ele>
        <time>2019-07-11T17:20:33Z</time>
      </trkpt>
      <trkpt lat="45.15307" lon="5.56366">
        <ele>1374</ele>
        <time>2019-07-11T17:20:34Z</time>
      </trkpt>
      <trkpt lat="45.15303" lon="5.56371">
        <ele>1375</ele>
        <time>2019-07-11T17:20:37Z</time>
      </trkpt>
      <trkpt lat="45.15293" lon="5.5639">
        <ele>1378</ele>
        <time>2019-07-11T17:20:47Z</time>
      </trkpt>
      <trkpt lat="45.15265" lon="5.56464">
        <ele>1389</ele>
        <time>2019-07-11T17:20:49Z</time>
      </trkpt>
      <trkpt lat="45.15257" lon="5.56473">
        <ele>1389</ele>
        <time>2019-07-11T17:20:51Z</time>
      </trkpt>
      <trkpt lat="45.15245" lon="5.56476">
        <ele>1388</ele>
        <time>2019-07-11T17:21:03Z</time>
      </trkpt>
      <trkpt lat="45.15183" lon="5.56459">
        <ele>1377</ele>
        <time>2019-07-11T17:21:08Z</time>
      </trkpt>
      <trkpt lat="45.15155" lon="5.56462">
        <ele>1373</ele>
        <time>2019-07-11T17:21:12Z</time>
      </trkpt>
      <trkpt lat="45.15133" lon="5.56474">
        <ele>1370</ele>
        <time>2019-07-11T17:21:15Z</time>
      </trkpt>
      <trkpt lat="45.15119" lon="5.56487">
        <ele>1370</ele>
        <time>2019-07-11T17:21:16Z</time>
      </trkpt>
      <trkpt lat="45.15116" lon="5.56494">
        <ele>1372</ele>
        <time>2019-07-11T17:21:17Z</time>
      </trkpt>
      <trkpt lat="45.15115" lon="5.565">
        <ele>1373</ele>
        <time>2019-07-11T17:21:19Z</time>
      </trkpt>
      <trkpt lat="45.15115" lon="5.56516">
        <ele>1375</ele>
        <time>2019-07-11T17:21:25Z</time>
      </trkpt>
      <trkpt lat="45.15131" lon="5.56562">
        <ele>1386</ele>
        <time>2019-07-11T17:21:27Z</time>
      </trkpt>
      <trkpt lat="45.15133" lon="5.56575">
        <ele>1388</ele>
        <time>2019-07-11T17:21:29Z</time>
      </trkpt>
      <trkpt lat="45.1513" lon="5.5659">
        <ele>1390</ele>
        <time>2019-07-11T17:21:30Z</time>
      </trkpt>
      <trkpt lat="45.15125" lon="5.56598">
        <ele>1391</ele>
        <time>2019-07-11T17:21:31Z</time>
      </trkpt>
      <trkpt lat="45.15121" lon="5.566">
        <ele>1390</ele>
        <time>2019-07-11T17:21:32Z</time>
      </trkpt>
      <trkpt lat="45.15115" lon="5.566">
        <ele>1389</ele>
        <time>2019-07-11T17:21:35Z</time>
      </trkpt>
      <trkpt lat="45.15095" lon="5.56595">
        <ele>1384</ele>
        <time>2019-07-11T17:21:41Z</time>
      </trkpt>
      <trkpt lat="45.15065" lon="5.56604">
        <ele>1387</ele>
        <time>2019-07-11T17:21:42Z</time>
      </trkpt>
      <trkpt lat="45.1506" lon="5.56604">
        <ele>1388</ele>
        <time>2019-07-11T17:21:43Z</time>
      </trkpt>
      <trkpt lat="45.15052" lon="5.56602">
        <ele>1388</ele>
        <time>2019-07-11T17:21:45Z</time>
      </trkpt>
      <trkpt lat="45.15047" lon="5.56594">
        <ele>1387</ele>
        <time>2019-07-11T17:21:47Z</time>
      </trkpt>
      <trkpt lat="45.15043" lon="5.56578">
        <ele>1384</ele>
        <time>2019-07-11T17:21:49Z</time>
      </trkpt>
      <trkpt lat="45.15042" lon="5.56559">
        <ele>1381</ele>
        <time>2019-07-11T17:21:50Z</time>
      </trkpt>
      <trkpt lat="45.15039" lon="5.56553">
        <ele>1380</ele>
        <time>2019-07-11T17:21:52Z</time>
      </trkpt>
      <trkpt lat="45.1503" lon="5.56542">
        <ele>1380</ele>
        <time>2019-07-11T17:21:56Z</time>
      </trkpt>
      <trkpt lat="45.15012" lon="5.56526">
        <ele>1380</ele>
        <time>2019-07-11T17:22:02Z</time>
      </trkpt>
      <trkpt lat="45.14986" lon="5.56496">
        <ele>1378</ele>
        <time>2019-07-11T17:22:06Z</time>
      </trkpt>
      <trkpt lat="45.1497" lon="5.56472">
        <ele>1375</ele>
        <time>2019-07-11T17:22:10Z</time>
      </trkpt>
      <trkpt lat="45.14958" lon="5.56442">
        <ele>1369</ele>
        <time>2019-07-11T17:22:13Z</time>
      </trkpt>
      <trkpt lat="45.14945" lon="5.56426">
        <ele>1369</ele>
        <time>2019-07-11T17:22:15Z</time>
      </trkpt>
      <trkpt lat="45.14934" lon="5.56424">
        <ele>1372</ele>
        <time>2019-07-11T17:22:20Z</time>
      </trkpt>
      <trkpt lat="45.14907" lon="5.5643">
        <ele>1378</ele>
        <time>2019-07-11T17:22:23Z</time>
      </trkpt>
      <trkpt lat="45.14893" lon="5.56431">
        <ele>1379</ele>
        <time>2019-07-11T17:22:24Z</time>
      </trkpt>
      <trkpt lat="45.14885" lon="5.56427">
        <ele>1379</ele>
        <time>2019-07-11T17:22:25Z</time>
      </trkpt>
      <trkpt lat="45.1488" lon="5.5642">
        <ele>1377</ele>
        <time>2019-07-11T17:22:29Z</time>
      </trkpt>
      <trkpt lat="45.14869" lon="5.56398">
        <ele>1375</ele>
        <time>2019-07-11T17:22:34Z</time>
      </trkpt>
      <trkpt lat="45.14856" lon="5.56361">
        <ele>1371</ele>
        <time>2019-07-11T17:22:48Z</time>
      </trkpt>
      <trkpt lat="45.14814" lon="5.56265">
        <ele>1362</ele>
        <time>2019-07-11T17:22:50Z</time>
      </trkpt>
      <trkpt lat="45.14808" lon="5.56254">
        <ele>1360</ele>
        <time>2019-07-11T17:22:52Z</time>
      </trkpt>
      <trkpt lat="45.14799" lon="5.56246">
        <ele>1359</ele>
        <time>2019-07-11T17:22:54Z</time>
      </trkpt>
      <trkpt lat="45.1479" lon="5.56242">
        <ele>1358</ele>
        <time>2019-07-11T17:22:57Z</time>
      </trkpt>
      <trkpt lat="45.1477" lon="5.56245">
        <ele>1359</ele>
        <time>2019-07-11T17:23:05Z</time>
      </trkpt>
      <trkpt lat="45.14729" lon="5.56264">
        <ele>1357</ele>
        <time>2019-07-11T17:23:07Z</time>
      </trkpt>
      <trkpt lat="45.14721" lon="5.56278">
        <ele>1357</ele>
        <time>2019-07-11T17:23:09Z</time>
      </trkpt>
      <trkpt lat="45.14718" lon="5.56296">
        <ele>1357</ele>
        <time>2019-07-11T17:23:14Z</time>
      </trkpt>
      <trkpt lat="45.14724" lon="5.56333">
        <ele>1361</ele>
        <time>2019-07-11T17:23:17Z</time>
      </trkpt>
      <trkpt lat="45.14717" lon="5.56349">
        <ele>1361</ele>
        <time>2019-07-11T17:23:20Z</time>
      </trkpt>
      <trkpt lat="45.14701" lon="5.5636">
        <ele>1359</ele>
        <time>2019-07-11T17:23:23Z</time>
      </trkpt>
      <trkpt lat="45.14685" lon="5.56367">
        <ele>1356</ele>
        <time>2019-07-11T17:23:26Z</time>
      </trkpt>
      <trkpt lat="45.14673" lon="5.56382">
        <ele>1355</ele>
        <time>2019-07-11T17:23:33Z</time>
      </trkpt>
      <trkpt lat="45.14663" lon="5.56439">
        <ele>1361</ele>
        <time>2019-07-11T17:23:35Z</time>
      </trkpt>
      <trkpt lat="45.14654" lon="5.56453">
        <ele>1365</ele>
        <time>2019-07-11T17:23:37Z</time>
      </trkpt>
      <trkpt lat="45.14646" lon="5.56454">
        <ele>1366</ele>
        <time>2019-07-11T17:23:39Z</time>
      </trkpt>
      <trkpt lat="45.14637" lon="5.56444">
        <ele>1366</ele>
        <time>2019-07-11T17:23:42Z</time>
      </trkpt>
      <trkpt lat="45.14628" lon="5.5642">
        <ele>1364</ele>
        <time>2019-07-11T17:23:47Z</time>
      </trkpt>
      <trkpt lat="45.14619" lon="5.56384">
        <ele>1359</ele>
        <time>2019-07-11T17:23:53Z</time>
      </trkpt>
      <trkpt lat="45.14599" lon="5.56341">
        <ele>1353</ele>
        <time>2019-07-11T17:24:03Z</time>
      </trkpt>
      <trkpt lat="45.14568" lon="5.56274">
        <ele>1344</ele>
        <time>2019-07-11T17:24:08Z</time>
      </trkpt>
      <trkpt lat="45.14552" lon="5.56248">
        <ele>1341</ele>
        <time>2019-07-11T17:24:10Z</time>
      </trkpt>
      <trkpt lat="45.14545" lon="5.56238">
        <ele>1339</ele>
        <time>2019-07-11T17:24:13Z</time>
      </trkpt>
      <trkpt lat="45.14527" lon="5.56223">
        <ele>1337</ele>
        <time>2019-07-11T17:24:19Z</time>
      </trkpt>
      <trkpt lat="45.14497" lon="5.56224">
        <ele>1340</ele>
        <time>2019-07-11T17:24:20Z</time>
      </trkpt>
      <trkpt lat="45.14489" lon="5.56222">
        <ele>1339</ele>
        <time>2019-07-11T17:24:22Z</time>
      </trkpt>
      <trkpt lat="45.14481" lon="5.56217">
        <ele>1336</ele>
        <time>2019-07-11T17:24:25Z</time>
      </trkpt>
      <trkpt lat="45.14464" lon="5.562">
        <ele>1330</ele>
        <time>2019-07-11T17:24:27Z</time>
      </trkpt>
      <trkpt lat="45.14455" lon="5.56198">
        <ele>1329</ele>
        <time>2019-07-11T17:24:28Z</time>
      </trkpt>
      <trkpt lat="45.14447" lon="5.56199">
        <ele>1328</ele>
        <time>2019-07-11T17:24:31Z</time>
      </trkpt>
      <trkpt lat="45.14436" lon="5.56207">
        <ele>1329</ele>
        <time>2019-07-11T17:24:37Z</time>
      </trkpt>
      <trkpt lat="45.14416" lon="5.56248">
        <ele>1336</ele>
        <time>2019-07-11T17:24:39Z</time>
      </trkpt>
      <trkpt lat="45.14405" lon="5.56256">
        <ele>1337</ele>
        <time>2019-07-11T17:24:41Z</time>
      </trkpt>
      <trkpt lat="45.14395" lon="5.56251">
        <ele>1334</ele>
        <time>2019-07-11T17:24:44Z</time>
      </trkpt>
      <trkpt lat="45.1438" lon="5.56237">
        <ele>1329</ele>
        <time>2019-07-11T17:24:47Z</time>
      </trkpt>
      <trkpt lat="45.14364" lon="5.56231">
        <ele>1325</ele>
        <time>2019-07-11T17:24:50Z</time>
      </trkpt>
      <trkpt lat="45.14345" lon="5.56229">
        <ele>1322</ele>
        <time>2019-07-11T17:24:52Z</time>
      </trkpt>
      <trkpt lat="45.14335" lon="5.5623">
        <ele>1321</ele>
        <time>2019-07-11T17:24:55Z</time>
      </trkpt>
      <trkpt lat="45.14317" lon="5.56235">
        <ele>1322</ele>
        <time>2019-07-11T17:25:01Z</time>
      </trkpt>
      <trkpt lat="45.14287" lon="5.5625">
        <ele>1325</ele>
        <time>2019-07-11T17:25:03Z</time>
      </trkpt>
      <trkpt lat="45.14278" lon="5.56251">
        <ele>1326</ele>
        <time>2019-07-11T17:25:05Z</time>
      </trkpt>
      <trkpt lat="45.14263" lon="5.56246">
        <ele>1324</ele>
        <time>2019-07-11T17:25:10Z</time>
      </trkpt>
      <trkpt lat="45.14239" lon="5.56227">
        <ele>1319</ele>
        <time>2019-07-11T17:25:13Z</time>
      </trkpt>
      <trkpt lat="45.14224" lon="5.56222">
        <ele>1317</ele>
        <time>2019-07-11T17:25:19Z</time>
      </trkpt>
      <trkpt lat="45.14193" lon="5.56216">
        <ele>1315</ele>
        <time>2019-07-11T17:25:24Z</time>
      </trkpt>
      <trkpt lat="45.14161" lon="5.56217">
        <ele>1313</ele>
        <time>2019-07-11T17:25:30Z</time>
      </trkpt>
      <trkpt lat="45.14132" lon="5.56213">
        <ele>1306</ele>
        <time>2019-07-11T17:25:31Z</time>
      </trkpt>
      <trkpt lat="45.14126" lon="5.56215">
        <ele>1305</ele>
        <time>2019-07-11T17:25:32Z</time>
      </trkpt>
      <trkpt lat="45.1412" lon="5.5622">
        <ele>1305</ele>
        <time>2019-07-11T17:25:38Z</time>
      </trkpt>
      <trkpt lat="45.14099" lon="5.56263">
        <ele>1310</ele>
        <time>2019-07-11T17:25:43Z</time>
      </trkpt>
      <trkpt lat="45.14082" lon="5.56287">
        <ele>1313</ele>
        <time>2019-07-11T17:25:44Z</time>
      </trkpt>
      <trkpt lat="45.14073" lon="5.56289">
        <ele>1313</ele>
        <time>2019-07-11T17:25:46Z</time>
      </trkpt>
      <trkpt lat="45.14067" lon="5.56285">
        <ele>1312</ele>
        <time>2019-07-11T17:25:52Z</time>
      </trkpt>
      <trkpt lat="45.14043" lon="5.56241">
        <ele>1303</ele>
        <time>2019-07-11T17:26:01Z</time>
      </trkpt>
      <trkpt lat="45.14014" lon="5.56192">
        <ele>1295</ele>
        <time>2019-07-11T17:26:03Z</time>
      </trkpt>
      <trkpt lat="45.14005" lon="5.56179">
        <ele>1294</ele>
        <time>2019-07-11T17:26:04Z</time>
      </trkpt>
      <trkpt lat="45.14" lon="5.56176">
        <ele>1294</ele>
        <time>2019-07-11T17:26:06Z</time>
      </trkpt>
      <trkpt lat="45.13987" lon="5.56177">
        <ele>1294</ele>
        <time>2019-07-11T17:26:07Z</time>
      </trkpt>
      <trkpt lat="45.13982" lon="5.56183">
        <ele>1295</ele>
        <time>2019-07-11T17:26:15Z</time>
      </trkpt>
      <trkpt lat="45.13958" lon="5.56234">
        <ele>1302</ele>
        <time>2019-07-11T17:26:18Z</time>
      </trkpt>
      <trkpt lat="45.13949" lon="5.5625">
        <ele>1304</ele>
        <time>2019-07-11T17:26:20Z</time>
      </trkpt>
      <trkpt lat="45.13936" lon="5.56254">
        <ele>1304</ele>
        <time>2019-07-11T17:26:21Z</time>
      </trkpt>
      <trkpt lat="45.1393" lon="5.56252">
        <ele>1304</ele>
        <time>2019-07-11T17:26:22Z</time>
      </trkpt>
      <trkpt lat="45.13926" lon="5.56246">
        <ele>1303</ele>
        <time>2019-07-11T17:26:25Z</time>
      </trkpt>
      <trkpt lat="45.13919" lon="5.56225">
        <ele>1300</ele>
        <time>2019-07-11T17:26:34Z</time>
      </trkpt>
      <trkpt lat="45.13908" lon="5.56157">
        <ele>1292</ele>
        <time>2019-07-11T17:26:41Z</time>
      </trkpt>
      <trkpt lat="45.1391" lon="5.56095">
        <ele>1281</ele>
        <time>2019-07-11T17:26:44Z</time>
      </trkpt>
      <trkpt lat="45.13909" lon="5.56072">
        <ele>1276</ele>
        <time>2019-07-11T17:26:46Z</time>
      </trkpt>
      <trkpt lat="45.13904" lon="5.56061">
        <ele>1275</ele>
        <time>2019-07-11T17:26:48Z</time>
      </trkpt>
      <trkpt lat="45.13894" lon="5.5605">
        <ele>1273</ele>
        <time>2019-07-11T17:26:53Z</time>
      </trkpt>
      <trkpt lat="45.13865" lon="5.56048">
        <ele>1274</ele>
        <time>2019-07-11T17:26:57Z</time>
      </trkpt>
      <trkpt lat="45.13843" lon="5.56049">
        <ele>1276</ele>
        <time>2019-07-11T17:27:03Z</time>
      </trkpt>
      <trkpt lat="45.13813" lon="5.56054">
        <ele>1275</ele>
        <time>2019-07-11T17:27:15Z</time>
      </trkpt>
      <trkpt lat="45.13747" lon="5.56075">
        <ele>1270</ele>
        <time>2019-07-11T17:27:26Z</time>
      </trkpt>
      <trkpt lat="45.13685" lon="5.56103">
        <ele>1269</ele>
        <time>2019-07-11T17:27:37Z</time>
      </trkpt>
      <trkpt lat="45.13626" lon="5.56112">
        <ele>1264</ele>
        <time>2019-07-11T17:27:43Z</time>
      </trkpt>
      <trkpt lat="45.13591" lon="5.56116">
        <ele>1261</ele>
        <time>2019-07-11T17:27:46Z</time>
      </trkpt>
      <trkpt lat="45.13577" lon="5.5612">
        <ele>1261</ele>
        <time>2019-07-11T17:27:47Z</time>
      </trkpt>
      <trkpt lat="45.13572" lon="5.56123">
        <ele>1262</ele>
        <time>2019-07-11T17:27:51Z</time>
      </trkpt>
      <trkpt lat="45.13563" lon="5.56152">
        <ele>1268</ele>
        <time>2019-07-11T17:27:52Z</time>
      </trkpt>
      <trkpt lat="45.13558" lon="5.56163">
        <ele>1270</ele>
        <time>2019-07-11T17:27:54Z</time>
      </trkpt>
      <trkpt lat="45.13553" lon="5.5617">
        <ele>1272</ele>
        <time>2019-07-11T17:27:55Z</time>
      </trkpt>
      <trkpt lat="45.13547" lon="5.56175">
        <ele>1273</ele>
        <time>2019-07-11T17:27:56Z</time>
      </trkpt>
      <trkpt lat="45.13542" lon="5.56176">
        <ele>1273</ele>
        <time>2019-07-11T17:27:57Z</time>
      </trkpt>
      <trkpt lat="45.13537" lon="5.56176">
        <ele>1273</ele>
        <time>2019-07-11T17:27:58Z</time>
      </trkpt>
      <trkpt lat="45.13529" lon="5.56171">
        <ele>1273</ele>
        <time>2019-07-11T17:28:03Z</time>
      </trkpt>
      <trkpt lat="45.13511" lon="5.56139">
        <ele>1265</ele>
        <time>2019-07-11T17:28:07Z</time>
      </trkpt>
      <trkpt lat="45.13494" lon="5.5612">
        <ele>1261</ele>
        <time>2019-07-11T17:28:13Z</time>
      </trkpt>
      <trkpt lat="45.13464" lon="5.56103">
        <ele>1259</ele>
        <time>2019-07-11T17:28:22Z</time>
      </trkpt>
      <trkpt lat="45.13413" lon="5.5608">
        <ele>1257</ele>
        <time>2019-07-11T17:28:24Z</time>
      </trkpt>
      <trkpt lat="45.13402" lon="5.56079">
        <ele>1255</ele>
        <time>2019-07-11T17:28:26Z</time>
      </trkpt>
      <trkpt lat="45.1339" lon="5.56081">
        <ele>1253</ele>
        <time>2019-07-11T17:28:29Z</time>
      </trkpt>
      <trkpt lat="45.13377" lon="5.56088">
        <ele>1252</ele>
        <time>2019-07-11T17:28:36Z</time>
      </trkpt>
      <trkpt lat="45.13344" lon="5.56116">
        <ele>1251</ele>
        <time>2019-07-11T17:28:40Z</time>
      </trkpt>
      <trkpt lat="45.13329" lon="5.56146">
        <ele>1252</ele>
        <time>2019-07-11T17:28:45Z</time>
      </trkpt>
      <trkpt lat="45.13317" lon="5.56177">
        <ele>1256</ele>
        <time>2019-07-11T17:28:46Z</time>
      </trkpt>
      <trkpt lat="45.13312" lon="5.56185">
        <ele>1257</ele>
        <time>2019-07-11T17:28:47Z</time>
      </trkpt>
      <trkpt lat="45.13308" lon="5.56188">
        <ele>1257</ele>
        <time>2019-07-11T17:28:49Z</time>
      </trkpt>
      <trkpt lat="45.13296" lon="5.5619">
        <ele>1256</ele>
        <time>2019-07-11T17:28:50Z</time>
      </trkpt>
      <trkpt lat="45.1329" lon="5.56187">
        <ele>1255</ele>
        <time>2019-07-11T17:28:55Z</time>
      </trkpt>
      <trkpt lat="45.1327" lon="5.56157">
        <ele>1250</ele>
        <time>2019-07-11T17:28:58Z</time>
      </trkpt>
      <trkpt lat="45.13257" lon="5.56149">
        <ele>1248</ele>
        <time>2019-07-11T17:28:59Z</time>
      </trkpt>
      <trkpt lat="45.1325" lon="5.56146">
        <ele>1247</ele>
        <time>2019-07-11T17:29:01Z</time>
      </trkpt>
      <trkpt lat="45.13243" lon="5.56146">
        <ele>1246</ele>
        <time>2019-07-11T17:29:12Z</time>
      </trkpt>
      <trkpt lat="45.13179" lon="5.56165">
        <ele>1241</ele>
        <time>2019-07-11T17:29:17Z</time>
      </trkpt>
      <trkpt lat="45.13155" lon="5.56177">
        <ele>1241</ele>
        <time>2019-07-11T17:29:25Z</time>
      </trkpt>
      <trkpt lat="45.13115" lon="5.56209">
        <ele>1245</ele>
        <time>2019-07-11T17:29:26Z</time>
      </trkpt>
      <trkpt lat="45.13107" lon="5.56211">
        <ele>1245</ele>
        <time>2019-07-11T17:29:29Z</time>
      </trkpt>
      <trkpt lat="45.13094" lon="5.56209">
        <ele>1244</ele>
        <time>2019-07-11T17:29:30Z</time>
      </trkpt>
      <trkpt lat="45.13086" lon="5.562">
        <ele>1243</ele>
        <time>2019-07-11T17:29:46Z</time>
      </trkpt>
      <trkpt lat="45.13065" lon="5.56079">
        <ele>1234</ele>
        <time>2019-07-11T17:29:54Z</time>
      </trkpt>
      <trkpt lat="45.13048" lon="5.56022">
        <ele>1229</ele>
        <time>2019-07-11T17:30:00Z</time>
      </trkpt>
      <trkpt lat="45.13045" lon="5.55972">
        <ele>1228</ele>
        <time>2019-07-11T17:30:06Z</time>
      </trkpt>
      <trkpt lat="45.13012" lon="5.55983">
        <ele>1228</ele>
        <time>2019-07-11T17:30:31Z</time>
      </trkpt>
      <trkpt lat="45.1287" lon="5.55991">
        <ele>1225</ele>
        <time>2019-07-11T17:30:52Z</time>
      </trkpt>
      <trkpt lat="45.12754" lon="5.55968">
        <ele>1216</ele>
        <time>2019-07-11T17:30:56Z</time>
      </trkpt>
      <trkpt lat="45.12735" lon="5.55961">
        <ele>1216</ele>
        <time>2019-07-11T17:31:09Z</time>
      </trkpt>
      <trkpt lat="45.12666" lon="5.55926">
        <ele>1212</ele>
        <time>2019-07-11T17:31:11Z</time>
      </trkpt>
      <trkpt lat="45.12656" lon="5.55923">
        <ele>1212</ele>
        <time>2019-07-11T17:31:14Z</time>
      </trkpt>
      <trkpt lat="45.12635" lon="5.55923">
        <ele>1212</ele>
        <time>2019-07-11T17:31:21Z</time>
      </trkpt>
      <trkpt lat="45.12601" lon="5.55931">
        <ele>1212</ele>
        <time>2019-07-11T17:31:25Z</time>
      </trkpt>
      <trkpt lat="45.12576" lon="5.55946">
        <ele>1211</ele>
        <time>2019-07-11T17:31:27Z</time>
      </trkpt>
      <trkpt lat="45.12568" lon="5.55953">
        <ele>1211</ele>
        <time>2019-07-11T17:31:39Z</time>
      </trkpt>
      <trkpt lat="45.1252" lon="5.56018">
        <ele>1204</ele>
        <time>2019-07-11T17:31:54Z</time>
      </trkpt>
      <trkpt lat="45.12456" lon="5.56097">
        <ele>1195</ele>
        <time>2019-07-11T17:31:57Z</time>
      </trkpt>
      <trkpt lat="45.12441" lon="5.56114">
        <ele>1194</ele>
        <time>2019-07-11T17:32:02Z</time>
      </trkpt>
      <trkpt lat="45.12416" lon="5.56128">
        <ele>1192</ele>
        <time>2019-07-11T17:32:05Z</time>
      </trkpt>
      <trkpt lat="45.12401" lon="5.5613">
        <ele>1192</ele>
        <time>2019-07-11T17:32:08Z</time>
      </trkpt>
      <trkpt lat="45.12383" lon="5.56124">
        <ele>1192</ele>
        <time>2019-07-11T17:32:19Z</time>
      </trkpt>
      <trkpt lat="45.1233" lon="5.56088">
        <ele>1189</ele>
        <time>2019-07-11T17:32:22Z</time>
      </trkpt>
      <trkpt lat="45.12312" lon="5.56081">
        <ele>1188</ele>
        <time>2019-07-11T17:32:23Z</time>
      </trkpt>
      <trkpt lat="45.12304" lon="5.5608">
        <ele>1188</ele>
        <time>2019-07-11T17:32:27Z</time>
      </trkpt>
      <trkpt lat="45.12281" lon="5.56081">
        <ele>1187</ele>
        <time>2019-07-11T17:33:33Z</time>
      </trkpt>
      <trkpt lat="45.11925" lon="5.56225">
        <ele>1162</ele>
        <time>2019-07-11T17:33:36Z</time>
      </trkpt>
      <trkpt lat="45.11913" lon="5.56235">
        <ele>1160</ele>
        <time>2019-07-11T17:33:38Z</time>
      </trkpt>
      <trkpt lat="45.11901" lon="5.56248">
        <ele>1158</ele>
        <time>2019-07-11T17:33:42Z</time>
      </trkpt>
      <trkpt lat="45.11889" lon="5.56268">
        <ele>1158</ele>
        <time>2019-07-11T17:33:49Z</time>
      </trkpt>
      <trkpt lat="45.11866" lon="5.56314">
        <ele>1157</ele>
        <time>2019-07-11T17:33:54Z</time>
      </trkpt>
      <trkpt lat="45.11846" lon="5.56349">
        <ele>1153</ele>
        <time>2019-07-11T17:34:11Z</time>
      </trkpt>
      <trkpt lat="45.11779" lon="5.56445">
        <ele>1138</ele>
        <time>2019-07-11T17:34:18Z</time>
      </trkpt>
      <trkpt lat="45.11757" lon="5.56485">
        <ele>1132</ele>
        <time>2019-07-11T17:34:23Z</time>
      </trkpt>
      <trkpt lat="45.11741" lon="5.56522">
        <ele>1128</ele>
        <time>2019-07-11T17:34:27Z</time>
      </trkpt>
      <trkpt lat="45.11732" lon="5.56549">
        <ele>1126</ele>
        <time>2019-07-11T17:34:30Z</time>
      </trkpt>
      <trkpt lat="45.11728" lon="5.56572">
        <ele>1124</ele>
        <time>2019-07-11T17:34:33Z</time>
      </trkpt>
      <trkpt lat="45.11728" lon="5.56597">
        <ele>1124</ele>
        <time>2019-07-11T17:34:36Z</time>
      </trkpt>
      <trkpt lat="45.11732" lon="5.56621">
        <ele>1123</ele>
        <time>2019-07-11T17:34:39Z</time>
      </trkpt>
      <trkpt lat="45.11739" lon="5.56644">
        <ele>1124</ele>
        <time>2019-07-11T17:34:42Z</time>
      </trkpt>
      <trkpt lat="45.11748" lon="5.5666">
        <ele>1125</ele>
        <time>2019-07-11T17:34:44Z</time>
      </trkpt>
      <trkpt lat="45.11757" lon="5.56671">
        <ele>1125</ele>
        <time>2019-07-11T17:34:46Z</time>
      </trkpt>
      <trkpt lat="45.11769" lon="5.56679">
        <ele>1124</ele>
        <time>2019-07-11T17:34:53Z</time>
      </trkpt>
      <trkpt lat="45.11804" lon="5.56696">
        <ele>1122</ele>
        <time>2019-07-11T17:34:56Z</time>
      </trkpt>
      <trkpt lat="45.11816" lon="5.56712">
        <ele>1120</ele>
        <time>2019-07-11T17:34:57Z</time>
      </trkpt>
      <trkpt lat="45.11821" lon="5.56721">
        <ele>1119</ele>
        <time>2019-07-11T17:35:01Z</time>
      </trkpt>
      <trkpt lat="45.11826" lon="5.56745">
        <ele>1115</ele>
        <time>2019-07-11T17:35:03Z</time>
      </trkpt>
      <trkpt lat="45.11827" lon="5.56768">
        <ele>1114</ele>
        <time>2019-07-11T17:35:07Z</time>
      </trkpt>
      <trkpt lat="45.11824" lon="5.56797">
        <ele>1113</ele>
        <time>2019-07-11T17:35:13Z</time>
      </trkpt>
      <trkpt lat="45.11817" lon="5.56841">
        <ele>1109</ele>
        <time>2019-07-11T17:35:17Z</time>
      </trkpt>
      <trkpt lat="45.11817" lon="5.56871">
        <ele>1106</ele>
        <time>2019-07-11T17:35:19Z</time>
      </trkpt>
      <trkpt lat="45.11822" lon="5.5689">
        <ele>1107</ele>
        <time>2019-07-11T17:35:20Z</time>
      </trkpt>
      <trkpt lat="45.11825" lon="5.56897">
        <ele>1107</ele>
        <time>2019-07-11T17:35:23Z</time>
      </trkpt>
      <trkpt lat="45.11837" lon="5.56911">
        <ele>1109</ele>
        <time>2019-07-11T17:35:28Z</time>
      </trkpt>
      <trkpt lat="45.11863" lon="5.56928">
        <ele>1111</ele>
        <time>2019-07-11T17:35:41Z</time>
      </trkpt>
      <trkpt lat="45.11932" lon="5.56966">
        <ele>1109</ele>
        <time>2019-07-11T17:35:53Z</time>
      </trkpt>
      <trkpt lat="45.11995" lon="5.56995">
        <ele>1104</ele>
        <time>2019-07-11T17:35:56Z</time>
      </trkpt>
      <trkpt lat="45.12012" lon="5.57005">
        <ele>1103</ele>
        <time>2019-07-11T17:36:00Z</time>
      </trkpt>
      <trkpt lat="45.12029" lon="5.57018">
        <ele>1102</ele>
        <time>2019-07-11T17:36:08Z</time>
      </trkpt>
      <trkpt lat="45.12068" lon="5.57055">
        <ele>1096</ele>
        <time>2019-07-11T17:36:28Z</time>
      </trkpt>
      <trkpt lat="45.12174" lon="5.57103">
        <ele>1093</ele>
        <time>2019-07-11T17:36:48Z</time>
      </trkpt>
      <trkpt lat="45.12278" lon="5.57169">
        <ele>1083</ele>
        <time>2019-07-11T17:37:03Z</time>
      </trkpt>
      <trkpt lat="45.12352" lon="5.57233">
        <ele>1074</ele>
        <time>2019-07-11T17:37:20Z</time>
      </trkpt>
      <trkpt lat="45.12432" lon="5.57295">
        <ele>1069</ele>
        <time>2019-07-11T17:37:55Z</time>
      </trkpt>
      <trkpt lat="45.12595" lon="5.57458">
        <ele>1052</ele>
        <time>2019-07-11T17:38:16Z</time>
      </trkpt>
      <trkpt lat="45.12686" lon="5.57568">
        <ele>1048</ele>
        <time>2019-07-11T17:38:26Z</time>
      </trkpt>
      <trkpt lat="45.12737" lon="5.57602">
        <ele>1048</ele>
        <time>2019-07-11T17:38:28Z</time>
      </trkpt>
      <trkpt lat="45.12745" lon="5.57609">
        <ele>1047</ele>
        <time>2019-07-11T17:38:34Z</time>
      </trkpt>
      <trkpt lat="45.12767" lon="5.5764">
        <ele>1041</ele>
        <time>2019-07-11T17:38:51Z</time>
      </trkpt>
      <trkpt lat="45.12834" lon="5.57743">
        <ele>1032</ele>
        <time>2019-07-11T17:38:56Z</time>
      </trkpt>
      <trkpt lat="45.12854" lon="5.57769">
        <ele>1031</ele>
        <time>2019-07-11T17:39:26Z</time>
      </trkpt>
      <trkpt lat="45.12985" lon="5.57913">
        <ele>1017</ele>
        <time>2019-07-11T17:39:30Z</time>
      </trkpt>
      <trkpt lat="45.13002" lon="5.57935">
        <ele>1015</ele>
        <time>2019-07-11T17:39:39Z</time>
      </trkpt>
      <trkpt lat="45.13037" lon="5.57986">
        <ele>1014</ele>
        <time>2019-07-11T17:39:44Z</time>
      </trkpt>
      <trkpt lat="45.13056" lon="5.58019">
        <ele>1012</ele>
        <time>2019-07-11T17:39:46Z</time>
      </trkpt>
      <trkpt lat="45.13059" lon="5.58031">
        <ele>1011</ele>
        <time>2019-07-11T17:39:48Z</time>
      </trkpt>
      <trkpt lat="45.1306" lon="5.5805">
        <ele>1009</ele>
        <time>2019-07-11T17:39:52Z</time>
      </trkpt>
      <trkpt lat="45.1305" lon="5.58096">
        <ele>1005.5</ele>
        <time>2019-07-11T17:46:21Z</time>
      </trkpt>
      <trkpt lat="45.1305" lon="5.58097">
        <ele>1005.5</ele>
        <time>2019-07-11T17:47:01Z</time>
      </trkpt>
      <trkpt lat="45.12282" lon="5.57489">
        <ele>999.3</ele>
        <time>2019-07-11T17:47:19Z</time>
      </trkpt>
      <trkpt lat="45.12173" lon="5.57401">
        <ele>1003</ele>
        <time>2019-07-11T17:47:26Z</time>
      </trkpt>
      <trkpt lat="45.12064" lon="5.57277">
        <ele>1013</ele>
        <time>2019-07-11T17:47:39Z</time>
      </trkpt>
      <trkpt lat="45.12027" lon="5.57255">
        <ele>1015</ele>
        <time>2019-07-11T17:47:44Z</time>
      </trkpt>
      <trkpt lat="45.11807" lon="5.57193">
        <ele>1013</ele>
        <time>2019-07-11T17:48:08Z</time>
      </trkpt>
      <trkpt lat="45.11704" lon="5.57179">
        <ele>1013</ele>
        <time>2019-07-11T17:48:12Z</time>
      </trkpt>
      <trkpt lat="45.11667" lon="5.57191">
        <ele>1012</ele>
        <time>2019-07-11T17:48:15Z</time>
      </trkpt>
      <trkpt lat="45.116" lon="5.57233">
        <ele>1008</ele>
        <time>2019-07-11T17:48:19Z</time>
      </trkpt>
      <trkpt lat="45.11574" lon="5.57246">
        <ele>1007</ele>
        <time>2019-07-11T17:48:23Z</time>
      </trkpt>
      <trkpt lat="45.11439" lon="5.57277">
        <ele>1003</ele>
        <time>2019-07-11T17:48:27Z</time>
      </trkpt>
      <trkpt lat="45.11419" lon="5.57277">
        <ele>1003</ele>
        <time>2019-07-11T17:48:29Z</time>
      </trkpt>
      <trkpt lat="45.114" lon="5.57273">
        <ele>1002</ele>
        <time>2019-07-11T17:48:34Z</time>
      </trkpt>
      <trkpt lat="45.1138" lon="5.57262">
        <ele>1002</ele>
        <time>2019-07-11T17:48:41Z</time>
      </trkpt>
      <trkpt lat="45.11362" lon="5.57247">
        <ele>1001</ele>
        <time>2019-07-11T17:48:47Z</time>
      </trkpt>
      <trkpt lat="45.11343" lon="5.57222">
        <ele>1001</ele>
        <time>2019-07-11T17:48:52Z</time>
      </trkpt>
      <trkpt lat="45.11335" lon="5.57208">
        <ele>1001</ele>
        <time>2019-07-11T17:49:11Z</time>
      </trkpt>
      <trkpt lat="45.11325" lon="5.57177">
        <ele>1001</ele>
        <time>2019-07-11T17:49:19Z</time>
      </trkpt>
      <trkpt lat="45.11312" lon="5.57124">
        <ele>1002</ele>
        <time>2019-07-11T17:49:23Z</time>
      </trkpt>
      <trkpt lat="45.11299" lon="5.57079">
        <ele>1001</ele>
        <time>2019-07-11T17:49:38Z</time>
      </trkpt>
      <trkpt lat="45.11285" lon="5.57042">
        <ele>999</ele>
        <time>2019-07-11T17:49:45Z</time>
      </trkpt>
      <trkpt lat="45.11222" lon="5.56923">
        <ele>996</ele>
        <time>2019-07-11T17:50:15Z</time>
      </trkpt>
      <trkpt lat="45.11193" lon="5.56877">
        <ele>996</ele>
        <time>2019-07-11T17:50:30Z</time>
      </trkpt>
      <trkpt lat="45.11178" lon="5.56846">
        <ele>995</ele>
        <time>2019-07-11T17:51:05Z</time>
      </trkpt>
      <trkpt lat="45.11126" lon="5.56757">
        <ele>991</ele>
        <time>2019-07-11T17:51:31Z</time>
      </trkpt>
      <trkpt lat="45.11095" lon="5.56715">
        <ele>993</ele>
        <time>2019-07-11T17:51:53Z</time>
      </trkpt>
      <trkpt lat="45.10956" lon="5.56579">
        <ele>994</ele>
        <time>2019-07-11T17:52:24Z</time>
      </trkpt>
      <trkpt lat="45.10886" lon="5.5652">
        <ele>993</ele>
        <time>2019-07-11T17:52:31Z</time>
      </trkpt>
      <trkpt lat="45.10713" lon="5.5639">
        <ele>989</ele>
        <time>2019-07-11T17:52:42Z</time>
      </trkpt>
      <trkpt lat="45.10581" lon="5.56303">
        <ele>991</ele>
        <time>2019-07-11T17:53:08Z</time>
      </trkpt>
      <trkpt lat="45.10465" lon="5.5624">
        <ele>988</ele>
        <time>2019-07-11T17:53:12Z</time>
      </trkpt>
      <trkpt lat="45.10301" lon="5.56162">
        <ele>989</ele>
        <time>2019-07-11T17:53:15Z</time>
      </trkpt>
      <trkpt lat="45.10264" lon="5.56141">
        <ele>990</ele>
        <time>2019-07-11T17:54:39Z</time>
      </trkpt>
      <trkpt lat="45.10207" lon="5.56107">
        <ele>991</ele>
        <time>2019-07-11T17:54:53Z</time>
      </trkpt>
      <trkpt lat="45.10073" lon="5.56014">
        <ele>989</ele>
        <time>2019-07-11T17:55:00Z</time>
      </trkpt>
      <trkpt lat="45.10053" lon="5.55997">
        <ele>988</ele>
        <time>2019-07-11T17:55:07Z</time>
      </trkpt>
      <trkpt lat="45.10053" lon="5.55997">
        <ele>988</ele>
        <time>2019-07-11T17:55:33Z</time>
      </trkpt>
      <trkpt lat="45.10041" lon="5.55984">
        <ele>988</ele>
        <time>2019-07-11T17:55:38Z</time>
      </trkpt>
      <trkpt lat="45.09982" lon="5.55908">
        <ele>987</ele>
        <time>2019-07-11T17:55:44Z</time>
      </trkpt>
      <trkpt lat="45.09953" lon="5.55867">
        <ele>987</ele>
        <time>2019-07-11T17:56:08Z</time>
      </trkpt>
      <trkpt lat="45.0992" lon="5.55838">
        <ele>984</ele>
        <time>2019-07-11T17:56:40Z</time>
      </trkpt>
      <trkpt lat="45.09789" lon="5.55758">
        <ele>989</ele>
        <time>2019-07-11T17:56:46Z</time>
      </trkpt>
      <trkpt lat="45.09762" lon="5.55747">
        <ele>988</ele>
        <time>2019-07-11T17:56:51Z</time>
      </trkpt>
      <trkpt lat="45.09724" lon="5.55738">
        <ele>987</ele>
        <time>2019-07-11T17:56:55Z</time>
      </trkpt>
      <trkpt lat="45.09595" lon="5.55697">
        <ele>986</ele>
        <time>2019-07-11T17:57:01Z</time>
      </trkpt>
      <trkpt lat="45.09416" lon="5.55655">
        <ele>982</ele>
        <time>2019-07-11T17:58:02Z</time>
      </trkpt>
      <trkpt lat="45.09439" lon="5.55692">
        <ele>982</ele>
        <time>2019-07-11T17:58:10Z</time>
      </trkpt>
      <trkpt lat="45.09418" lon="5.55674">
        <ele>982</ele>
        <time>2019-07-11T17:58:12Z</time>
      </trkpt>
      <trkpt lat="45.09439" lon="5.55692">
        <ele>982</ele>
        <time>2019-07-11T17:58:13Z</time>
      </trkpt>
      <trkpt lat="45.09416" lon="5.55655">
        <ele>982</ele>
        <time>2019-07-11T17:58:14Z</time>
      </trkpt>
      <trkpt lat="45.09082" lon="5.55579">
        <ele>976</ele>
        <time>2019-07-11T17:58:16Z</time>
      </trkpt>
      <trkpt lat="45.09035" lon="5.55556">
        <ele>976</ele>
        <time>2019-07-11T17:58:17Z</time>
      </trkpt>
      <trkpt lat="45.09034" lon="5.55547">
        <ele>976</ele>
        <time>2019-07-11T17:58:19Z</time>
      </trkpt>
      <trkpt lat="45.09029" lon="5.55538">
        <ele>976</ele>
        <time>2019-07-11T17:58:22Z</time>
      </trkpt>
      <trkpt lat="45.09024" lon="5.55533">
        <ele>976</ele>
        <time>2019-07-11T17:58:29Z</time>
      </trkpt>
      <trkpt lat="45.09015" lon="5.55529">
        <ele>976</ele>
        <time>2019-07-11T17:59:23Z</time>
      </trkpt>
      <trkpt lat="45.09006" lon="5.55533">
        <ele>976</ele>
        <time>2019-07-11T17:59:46Z</time>
      </trkpt>
      <trkpt lat="45.08999" lon="5.5554">
        <ele>976</ele>
        <time>2019-07-11T17:59:47Z</time>
      </trkpt>
      <trkpt lat="45.08985" lon="5.55544">
        <ele>977</ele>
        <time>2019-07-11T18:00:12Z</time>
      </trkpt>
      <trkpt lat="45.08942" lon="5.55537">
        <ele>977</ele>
        <time>2019-07-11T18:00:17Z</time>
      </trkpt>
      <trkpt lat="45.08647" lon="5.5545">
        <ele>978</ele>
        <time>2019-07-11T18:00:23Z</time>
      </trkpt>
      <trkpt lat="45.08517" lon="5.55413">
        <ele>977</ele>
        <time>2019-07-11T18:00:51Z</time>
      </trkpt>
      <trkpt lat="45.08516" lon="5.5542">
        <ele>977</ele>
        <time>2019-07-11T18:00:52Z</time>
      </trkpt>
      <trkpt lat="45.08382" lon="5.55386">
        <ele>981</ele>
        <time>2019-07-11T18:00:54Z</time>
      </trkpt>
      <trkpt lat="45.08353" lon="5.55384">
        <ele>981</ele>
        <time>2019-07-11T18:01:02Z</time>
      </trkpt>
      <trkpt lat="45.08319" lon="5.55386">
        <ele>982</ele>
        <time>2019-07-11T18:01:15Z</time>
      </trkpt>
      <trkpt lat="45.08161" lon="5.55407">
        <ele>986</ele>
        <time>2019-07-11T18:01:19Z</time>
      </trkpt>
      <trkpt lat="45.08162" lon="5.55399">
        <ele>986</ele>
        <time>2019-07-11T18:01:23Z</time>
      </trkpt>
      <trkpt lat="45.08149" lon="5.55395">
        <ele>986</ele>
        <time>2019-07-11T18:01:28Z</time>
      </trkpt>
      <trkpt lat="45.08111" lon="5.5537">
        <ele>986</ele>
        <time>2019-07-11T18:01:35Z</time>
      </trkpt>
      <trkpt lat="45.08046" lon="5.55321">
        <ele>986</ele>
        <time>2019-07-11T18:01:36Z</time>
      </trkpt>
      <trkpt lat="45.08025" lon="5.55311">
        <ele>986</ele>
        <time>2019-07-11T18:01:36Z</time>
      </trkpt>
      <trkpt lat="45.08002" lon="5.55308">
        <ele>987</ele>
        <time>2019-07-11T18:01:38Z</time>
      </trkpt>
      <trkpt lat="45.07973" lon="5.55313">
        <ele>986</ele>
        <time>2019-07-11T18:01:40Z</time>
      </trkpt>
      <trkpt lat="45.07941" lon="5.55336">
        <ele>985</ele>
        <time>2019-07-11T18:01:42Z</time>
      </trkpt>
      <trkpt lat="45.07941" lon="5.55336">
        <ele>985</ele>
        <time>2019-07-11T18:01:46Z</time>
      </trkpt>
      <trkpt lat="45.07935" lon="5.55326">
        <ele>984</ele>
        <time>2019-07-11T18:01:50Z</time>
      </trkpt>
      <trkpt lat="45.07925" lon="5.55323">
        <ele>983</ele>
        <time>2019-07-11T18:01:54Z</time>
      </trkpt>
      <trkpt lat="45.07917" lon="5.5533">
        <ele>983</ele>
        <time>2019-07-11T18:01:57Z</time>
      </trkpt>
      <trkpt lat="45.07913" lon="5.55343">
        <ele>983</ele>
        <time>2019-07-11T18:02:00Z</time>
      </trkpt>
      <trkpt lat="45.07886" lon="5.55339">
        <ele>981</ele>
        <time>2019-07-11T18:02:03Z</time>
      </trkpt>
      <trkpt lat="45.07863" lon="5.55341">
        <ele>979</ele>
        <time>2019-07-11T18:02:05Z</time>
      </trkpt>
      <trkpt lat="45.07842" lon="5.5534">
        <ele>977</ele>
        <time>2019-07-11T18:02:14Z</time>
      </trkpt>
      <trkpt lat="45.07829" lon="5.55336">
        <ele>977</ele>
        <time>2019-07-11T18:02:24Z</time>
      </trkpt>
      <trkpt lat="45.0781" lon="5.55323">
        <ele>978</ele>
        <time>2019-07-11T18:02:29Z</time>
      </trkpt>
      <trkpt lat="45.078" lon="5.5531">
        <ele>978</ele>
        <time>2019-07-11T18:02:37Z</time>
      </trkpt>
      <trkpt lat="45.07792" lon="5.55295">
        <ele>978</ele>
        <time>2019-07-11T18:02:40Z</time>
      </trkpt>
      <trkpt lat="45.07765" lon="5.55237">
        <ele>976</ele>
        <time>2019-07-11T18:02:45Z</time>
      </trkpt>
      <trkpt lat="45.0773" lon="5.55172">
        <ele>979</ele>
        <time>2019-07-11T18:02:49Z</time>
      </trkpt>
      <trkpt lat="45.07711" lon="5.55141">
        <ele>979</ele>
        <time>2019-07-11T18:02:57Z</time>
      </trkpt>
      <trkpt lat="45.07678" lon="5.55095">
        <ele>977</ele>
        <time>2019-07-11T18:03:06Z</time>
      </trkpt>
      <trkpt lat="45.07665" lon="5.5508">
        <ele>977</ele>
        <time>2019-07-11T18:03:10Z</time>
      </trkpt>
      <trkpt lat="45.07642" lon="5.5506">
        <ele>976</ele>
        <time>2019-07-11T18:03:16Z</time>
      </trkpt>
      <trkpt lat="45.07624" lon="5.55051">
        <ele>976</ele>
        <time>2019-07-11T18:03:21Z</time>
      </trkpt>
      <trkpt lat="45.0758" lon="5.55022">
        <ele>975</ele>
        <time>2019-07-11T18:03:35Z</time>
      </trkpt>
      <trkpt lat="45.07535" lon="5.5499">
        <ele>974</ele>
        <time>2019-07-11T18:03:39Z</time>
      </trkpt>
      <trkpt lat="45.07515" lon="5.54974">
        <ele>974</ele>
        <time>2019-07-11T18:03:43Z</time>
      </trkpt>
      <trkpt lat="45.07487" lon="5.54948">
        <ele>973</ele>
        <time>2019-07-11T18:03:46Z</time>
      </trkpt>
      <trkpt lat="45.07469" lon="5.54925">
        <ele>972</ele>
        <time>2019-07-11T18:03:55Z</time>
      </trkpt>
      <trkpt lat="45.07403" lon="5.54853">
        <ele>972</ele>
        <time>2019-07-11T18:03:56Z</time>
      </trkpt>
      <trkpt lat="45.07388" lon="5.54832">
        <ele>971</ele>
        <time>2019-07-11T18:03:56Z</time>
      </trkpt>
      <trkpt lat="45.07376" lon="5.54803">
        <ele>970</ele>
        <time>2019-07-11T18:03:58Z</time>
      </trkpt>
      <trkpt lat="45.07371" lon="5.54782">
        <ele>968</ele>
        <time>2019-07-11T18:03:59Z</time>
      </trkpt>
      <trkpt lat="45.07367" lon="5.54712">
        <ele>965</ele>
        <time>2019-07-11T18:04:00Z</time>
      </trkpt>
      <trkpt lat="45.07367" lon="5.54712">
        <ele>965</ele>
        <time>2019-07-11T18:04:01Z</time>
      </trkpt>
      <trkpt lat="45.07373" lon="5.54704">
        <ele>965</ele>
        <time>2019-07-11T18:04:02Z</time>
      </trkpt>
      <trkpt lat="45.07376" lon="5.54695">
        <ele>965</ele>
        <time>2019-07-11T18:04:04Z</time>
      </trkpt>
      <trkpt lat="45.07374" lon="5.54684">
        <ele>964</ele>
        <time>2019-07-11T18:04:05Z</time>
      </trkpt>
      <trkpt lat="45.07371" lon="5.54677">
        <ele>964</ele>
        <time>2019-07-11T18:04:07Z</time>
      </trkpt>
      <trkpt lat="45.07365" lon="5.54673">
        <ele>964</ele>
        <time>2019-07-11T18:04:13Z</time>
      </trkpt>
      <trkpt lat="45.07359" lon="5.54672">
        <ele>964</ele>
        <time>2019-07-11T18:04:42Z</time>
      </trkpt>
      <trkpt lat="45.07352" lon="5.54676">
        <ele>964</ele>
        <time>2019-07-11T18:04:56Z</time>
      </trkpt>
      <trkpt lat="45.07347" lon="5.54685">
        <ele>964</ele>
        <time>2019-07-11T18:05:21Z</time>
      </trkpt>
      <trkpt lat="45.07338" lon="5.54678">
        <ele>964</ele>
        <time>2019-07-11T18:05:30Z</time>
      </trkpt>
      <trkpt lat="45.07308" lon="5.54663">
        <ele>964</ele>
        <time>2019-07-11T18:05:37Z</time>
      </trkpt>
      <trkpt lat="45.0715" lon="5.54604">
        <ele>969</ele>
        <time>2019-07-11T18:05:43Z</time>
      </trkpt>
      <trkpt lat="45.07073" lon="5.54579">
        <ele>972</ele>
        <time>2019-07-11T18:05:47Z</time>
      </trkpt>
      <trkpt lat="45.06937" lon="5.54529">
        <ele>990</ele>
        <time>2019-07-11T18:05:53Z</time>
      </trkpt>
      <trkpt lat="45.06887" lon="5.54526">
        <ele>994</ele>
        <time>2019-07-11T18:05:59Z</time>
      </trkpt>
      <trkpt lat="45.06849" lon="5.54531">
        <ele>996</ele>
        <time>2019-07-11T18:06:01Z</time>
      </trkpt>
      <trkpt lat="45.06815" lon="5.54543">
        <ele>993</ele>
        <time>2019-07-11T18:06:02Z</time>
      </trkpt>
      <trkpt lat="45.06794" lon="5.54552">
        <ele>991</ele>
        <time>2019-07-11T18:06:03Z</time>
      </trkpt>
      <trkpt lat="45.0676" lon="5.54572">
        <ele>985</ele>
        <time>2019-07-11T18:06:05Z</time>
      </trkpt>
      <trkpt lat="45.06731" lon="5.54597">
        <ele>980</ele>
        <time>2019-07-11T18:06:05Z</time>
      </trkpt>
      <trkpt lat="45.06725" lon="5.54587">
        <ele>981</ele>
        <time>2019-07-11T18:06:08Z</time>
      </trkpt>
      <trkpt lat="45.0672" lon="5.54586">
        <ele>981</ele>
        <time>2019-07-11T18:06:10Z</time>
      </trkpt>
      <trkpt lat="45.06715" lon="5.54587">
        <ele>981</ele>
        <time>2019-07-11T18:06:26Z</time>
      </trkpt>
      <trkpt lat="45.06716" lon="5.54573">
        <ele>985</ele>
        <time>2019-07-11T18:06:34Z</time>
      </trkpt>
      <trkpt lat="45.06719" lon="5.54568">
        <ele>987</ele>
        <time>2019-07-11T18:06:37Z</time>
      </trkpt>
      <trkpt lat="45.06734" lon="5.54567">
        <ele>988</ele>
        <time>2019-07-11T18:06:53Z</time>
      </trkpt>
      <trkpt lat="45.06747" lon="5.54562">
        <ele>989</ele>
        <time>2019-07-11T18:06:57Z</time>
      </trkpt>
      <trkpt lat="45.06826" lon="5.54513">
        <ele>1004</ele>
        <time>2019-07-11T18:07:01Z</time>
      </trkpt>
      <trkpt lat="45.06871" lon="5.54493">
        <ele>1008</ele>
        <time>2019-07-11T18:07:15Z</time>
      </trkpt>
      <trkpt lat="45.06889" lon="5.54491">
        <ele>1008</ele>
        <time>2019-07-11T18:07:18Z</time>
      </trkpt>
      <trkpt lat="45.06977" lon="5.545">
        <ele>1000</ele>
        <time>2019-07-11T18:07:20Z</time>
      </trkpt>
      <trkpt lat="45.07" lon="5.54505">
        <ele>998</ele>
        <time>2019-07-11T18:07:23Z</time>
      </trkpt>
      <trkpt lat="45.07023" lon="5.54504">
        <ele>999</ele>
        <time>2019-07-11T18:07:31Z</time>
      </trkpt>
      <trkpt lat="45.07097" lon="5.54479">
        <ele>1008</ele>
        <time>2019-07-11T18:07:36Z</time>
      </trkpt>
      <trkpt lat="45.07112" lon="5.5447">
        <ele>1008</ele>
        <time>2019-07-11T18:07:38Z</time>
      </trkpt>
      <trkpt lat="45.07124" lon="5.54458">
        <ele>1010</ele>
        <time>2019-07-11T18:07:40Z</time>
      </trkpt>
      <trkpt lat="45.07134" lon="5.54443">
        <ele>1013</ele>
        <time>2019-07-11T18:07:42Z</time>
      </trkpt>
      <trkpt lat="45.07163" lon="5.54391">
        <ele>1014</ele>
        <time>2019-07-11T18:07:45Z</time>
      </trkpt>
      <trkpt lat="45.07178" lon="5.54362">
        <ele>1013</ele>
        <time>2019-07-11T18:07:49Z</time>
      </trkpt>
      <trkpt lat="45.07184" lon="5.54346">
        <ele>1012</ele>
        <time>2019-07-11T18:08:04Z</time>
      </trkpt>
      <trkpt lat="45.07186" lon="5.54327">
        <ele>1012</ele>
        <time>2019-07-11T18:08:08Z</time>
      </trkpt>
      <trkpt lat="45.07187" lon="5.54313">
        <ele>1011</ele>
        <time>2019-07-11T18:08:14Z</time>
      </trkpt>
      <trkpt lat="45.07183" lon="5.54295">
        <ele>1012</ele>
        <time>2019-07-11T18:08:18Z</time>
      </trkpt>
      <trkpt lat="45.07173" lon="5.54263">
        <ele>1014</ele>
        <time>2019-07-11T18:08:31Z</time>
      </trkpt>
      <trkpt lat="45.07128" lon="5.54158">
        <ele>1018</ele>
        <time>2019-07-11T18:08:33Z</time>
      </trkpt>
      <trkpt lat="45.0712" lon="5.54136">
        <ele>1020</ele>
        <time>2019-07-11T18:08:35Z</time>
      </trkpt>
      <trkpt lat="45.0711" lon="5.5409">
        <ele>1022</ele>
        <time>2019-07-11T18:08:38Z</time>
      </trkpt>
      <trkpt lat="45.07097" lon="5.54061">
        <ele>1023</ele>
        <time>2019-07-11T18:08:48Z</time>
      </trkpt>
      <trkpt lat="45.07051" lon="5.53983">
        <ele>1028</ele>
        <time>2019-07-11T18:08:54Z</time>
      </trkpt>
      <trkpt lat="45.07042" lon="5.53971">
        <ele>1028</ele>
        <time>2019-07-11T18:09:12Z</time>
      </trkpt>
      <trkpt lat="45.07032" lon="5.5396">
        <ele>1029</ele>
        <time>2019-07-11T18:09:21Z</time>
      </trkpt>
      <trkpt lat="45.07016" lon="5.53949">
        <ele>1031</ele>
        <time>2019-07-11T18:09:39Z</time>
      </trkpt>
      <trkpt lat="45.06966" lon="5.53928">
        <ele>1043</ele>
        <time>2019-07-11T18:09:58Z</time>
      </trkpt>
      <trkpt lat="45.06933" lon="5.53911">
        <ele>1051</ele>
        <time>2019-07-11T18:10:03Z</time>
      </trkpt>
      <trkpt lat="45.06846" lon="5.53841">
        <ele>1058</ele>
        <time>2019-07-11T18:10:05Z</time>
      </trkpt>
      <trkpt lat="45.06798" lon="5.53805">
        <ele>1063</ele>
        <time>2019-07-11T18:10:07Z</time>
      </trkpt>
      <trkpt lat="45.06708" lon="5.53753">
        <ele>1078</ele>
        <time>2019-07-11T18:10:09Z</time>
      </trkpt>
      <trkpt lat="45.06616" lon="5.53667">
        <ele>1093</ele>
        <time>2019-07-11T18:10:11Z</time>
      </trkpt>
      <trkpt lat="45.06594" lon="5.53645">
        <ele>1102</ele>
        <time>2019-07-11T18:10:15Z</time>
      </trkpt>
      <trkpt lat="45.06585" lon="5.53631">
        <ele>1106</ele>
        <time>2019-07-11T18:10:17Z</time>
      </trkpt>
      <trkpt lat="45.06583" lon="5.53617">
        <ele>1107</ele>
        <time>2019-07-11T18:10:26Z</time>
      </trkpt>
      <trkpt lat="45.06584" lon="5.53605">
        <ele>1108</ele>
        <time>2019-07-11T18:10:47Z</time>
      </trkpt>
      <trkpt lat="45.0659" lon="5.53591">
        <ele>1109</ele>
        <time>2019-07-11T18:10:50Z</time>
      </trkpt>
      <trkpt lat="45.06608" lon="5.53575">
        <ele>1109</ele>
        <time>2019-07-11T18:10:57Z</time>
      </trkpt>
      <trkpt lat="45.06623" lon="5.53567">
        <ele>1109</ele>
        <time>2019-07-11T18:10:59Z</time>
      </trkpt>
      <trkpt lat="45.06673" lon="5.53552">
        <ele>1109</ele>
        <time>2019-07-11T18:11:11Z</time>
      </trkpt>
      <trkpt lat="45.06785" lon="5.53531">
        <ele>1110</ele>
        <time>2019-07-11T18:11:15Z</time>
      </trkpt>
      <trkpt lat="45.06803" lon="5.53523">
        <ele>1110</ele>
        <time>2019-07-11T18:11:19Z</time>
      </trkpt>
      <trkpt lat="45.06841" lon="5.53502">
        <ele>1111</ele>
        <time>2019-07-11T18:11:23Z</time>
      </trkpt>
      <trkpt lat="45.06848" lon="5.53491">
        <ele>1111</ele>
        <time>2019-07-11T18:11:28Z</time>
      </trkpt>
      <trkpt lat="45.06861" lon="5.53399">
        <ele>1118</ele>
        <time>2019-07-11T18:11:39Z</time>
      </trkpt>
      <trkpt lat="45.0686" lon="5.53365">
        <ele>1121</ele>
        <time>2019-07-11T18:11:44Z</time>
      </trkpt>
      <trkpt lat="45.06856" lon="5.53334">
        <ele>1124</ele>
        <time>2019-07-11T18:11:50Z</time>
      </trkpt>
      <trkpt lat="45.06842" lon="5.53313">
        <ele>1125</ele>
        <time>2019-07-11T18:12:04Z</time>
      </trkpt>
      <trkpt lat="45.06816" lon="5.53293">
        <ele>1126</ele>
        <time>2019-07-11T18:12:11Z</time>
      </trkpt>
      <trkpt lat="45.06757" lon="5.53263">
        <ele>1124</ele>
        <time>2019-07-11T18:12:14Z</time>
      </trkpt>
      <trkpt lat="45.06731" lon="5.53256">
        <ele>1125</ele>
        <time>2019-07-11T18:12:15Z</time>
      </trkpt>
      <trkpt lat="45.06699" lon="5.53252">
        <ele>1128</ele>
        <time>2019-07-11T18:12:16Z</time>
      </trkpt>
      <trkpt lat="45.06619" lon="5.53251">
        <ele>1133</ele>
        <time>2019-07-11T18:12:18Z</time>
      </trkpt>
      <trkpt lat="45.06579" lon="5.5324">
        <ele>1134</ele>
        <time>2019-07-11T18:12:20Z</time>
      </trkpt>
      <trkpt lat="45.06564" lon="5.53232">
        <ele>1134</ele>
        <time>2019-07-11T18:12:25Z</time>
      </trkpt>
      <trkpt lat="45.06559" lon="5.53226">
        <ele>1134</ele>
        <time>2019-07-11T18:12:30Z</time>
      </trkpt>
      <trkpt lat="45.06554" lon="5.53218">
        <ele>1134</ele>
        <time>2019-07-11T18:12:32Z</time>
      </trkpt>
      <trkpt lat="45.06553" lon="5.53208">
        <ele>1134</ele>
        <time>2019-07-11T18:12:44Z</time>
      </trkpt>
      <trkpt lat="45.06555" lon="5.53192">
        <ele>1133</ele>
        <time>2019-07-11T18:13:07Z</time>
      </trkpt>
      <trkpt lat="45.06571" lon="5.53152">
        <ele>1130</ele>
        <time>2019-07-11T18:13:11Z</time>
      </trkpt>
      <trkpt lat="45.06581" lon="5.5312">
        <ele>1131</ele>
        <time>2019-07-11T18:13:14Z</time>
      </trkpt>
      <trkpt lat="45.06584" lon="5.53104">
        <ele>1131</ele>
        <time>2019-07-11T18:13:16Z</time>
      </trkpt>
      <trkpt lat="45.06594" lon="5.53008">
        <ele>1130</ele>
        <time>2019-07-11T18:13:17Z</time>
      </trkpt>
      <trkpt lat="45.06609" lon="5.52827">
        <ele>1135</ele>
        <time>2019-07-11T18:13:17Z</time>
      </trkpt>
      <trkpt lat="45.0661" lon="5.52797">
        <ele>1135</ele>
        <time>2019-07-11T18:13:18Z</time>
      </trkpt>
      <trkpt lat="45.06609" lon="5.52775">
        <ele>1136</ele>
        <time>2019-07-11T18:13:27Z</time>
      </trkpt>
      <trkpt lat="45.06606" lon="5.52756">
        <ele>1136</ele>
        <time>2019-07-11T18:13:43Z</time>
      </trkpt>
      <trkpt lat="45.06604" lon="5.52752">
        <ele>1136</ele>
        <time>2019-07-11T18:13:48Z</time>
      </trkpt>
      <trkpt lat="45.06606" lon="5.52756">
        <ele>1136</ele>
        <time>2019-07-11T18:13:54Z</time>
      </trkpt>
      <trkpt lat="45.06605" lon="5.52749">
        <ele>1136</ele>
        <time>2019-07-11T18:13:58Z</time>
      </trkpt>
      <trkpt lat="45.0658" lon="5.5269">
        <ele>1136</ele>
        <time>2019-07-11T18:14:02Z</time>
      </trkpt>
      <trkpt lat="45.06528" lon="5.52589">
        <ele>1139</ele>
        <time>2019-07-11T18:14:06Z</time>
      </trkpt>
      <trkpt lat="45.06514" lon="5.52554">
        <ele>1140</ele>
        <time>2019-07-11T18:14:09Z</time>
      </trkpt>
      <trkpt lat="45.06502" lon="5.52505">
        <ele>1143</ele>
        <time>2019-07-11T18:14:12Z</time>
      </trkpt>
      <trkpt lat="45.06491" lon="5.52475">
        <ele>1143</ele>
        <time>2019-07-11T18:14:15Z</time>
      </trkpt>
      <trkpt lat="45.06477" lon="5.52453">
        <ele>1142</ele>
        <time>2019-07-11T18:14:33Z</time>
      </trkpt>
      <trkpt lat="45.06458" lon="5.5244">
        <ele>1142</ele>
        <time>2019-07-11T18:14:38Z</time>
      </trkpt>
      <trkpt lat="45.06438" lon="5.52437">
        <ele>1141</ele>
        <time>2019-07-11T18:14:44Z</time>
      </trkpt>
      <trkpt lat="45.06422" lon="5.52438">
        <ele>1141</ele>
        <time>2019-07-11T18:14:48Z</time>
      </trkpt>
      <trkpt lat="45.06406" lon="5.52443">
        <ele>1140</ele>
        <time>2019-07-11T18:14:58Z</time>
      </trkpt>
      <trkpt lat="45.06311" lon="5.5248">
        <ele>1139</ele>
        <time>2019-07-11T18:15:00Z</time>
      </trkpt>
      <trkpt lat="45.06281" lon="5.52485">
        <ele>1138</ele>
        <time>2019-07-11T18:15:12Z</time>
      </trkpt>
      <trkpt lat="45.0625" lon="5.52477">
        <ele>1137</ele>
        <time>2019-07-11T18:15:16Z</time>
      </trkpt>
      <trkpt lat="45.06228" lon="5.52464">
        <ele>1137</ele>
        <time>2019-07-11T18:15:17Z</time>
      </trkpt>
      <trkpt lat="45.06178" lon="5.52427">
        <ele>1137</ele>
        <time>2019-07-11T18:15:19Z</time>
      </trkpt>
      <trkpt lat="45.06168" lon="5.52424">
        <ele>1137</ele>
        <time>2019-07-11T18:15:21Z</time>
      </trkpt>
      <trkpt lat="45.06097" lon="5.52412">
        <ele>1141</ele>
        <time>2019-07-11T18:15:25Z</time>
      </trkpt>
      <trkpt lat="45.06081" lon="5.52402">
        <ele>1141</ele>
        <time>2019-07-11T18:15:28Z</time>
      </trkpt>
      <trkpt lat="45.06075" lon="5.52396">
        <ele>1141</ele>
        <time>2019-07-11T18:15:29Z</time>
      </trkpt>
      <trkpt lat="45.0607" lon="5.52385">
        <ele>1141</ele>
        <time>2019-07-11T18:15:33Z</time>
      </trkpt>
      <trkpt lat="45.06064" lon="5.52366">
        <ele>1140</ele>
        <time>2019-07-11T18:15:36Z</time>
      </trkpt>
      <trkpt lat="45.06058" lon="5.52336">
        <ele>1139</ele>
        <time>2019-07-11T18:15:38Z</time>
      </trkpt>
      <trkpt lat="45.06052" lon="5.52316">
        <ele>1138</ele>
        <time>2019-07-11T18:15:39Z</time>
      </trkpt>
      <trkpt lat="45.06047" lon="5.52307">
        <ele>1138</ele>
        <time>2019-07-11T18:15:41Z</time>
      </trkpt>
      <trkpt lat="45.06034" lon="5.52288">
        <ele>1137</ele>
        <time>2019-07-11T18:15:42Z</time>
      </trkpt>
      <trkpt lat="45.06018" lon="5.52269">
        <ele>1137</ele>
        <time>2019-07-11T18:15:43Z</time>
      </trkpt>
      <trkpt lat="45.06011" lon="5.52266">
        <ele>1137</ele>
        <time>2019-07-11T18:15:52Z</time>
      </trkpt>
      <trkpt lat="45.06004" lon="5.52268">
        <ele>1137</ele>
        <time>2019-07-11T18:15:56Z</time>
      </trkpt>
      <trkpt lat="45.05998" lon="5.52279">
        <ele>1138</ele>
        <time>2019-07-11T18:16:00Z</time>
      </trkpt>
      <trkpt lat="45.05997" lon="5.52287">
        <ele>1139</ele>
        <time>2019-07-11T18:16:18Z</time>
      </trkpt>
      <trkpt lat="45.06" lon="5.52298">
        <ele>1139</ele>
        <time>2019-07-11T18:16:29Z</time>
      </trkpt>
      <trkpt lat="45.05951" lon="5.52295">
        <ele>1139</ele>
        <time>2019-07-11T18:16:46Z</time>
      </trkpt>
      <trkpt lat="45.05928" lon="5.52288">
        <ele>1138</ele>
        <time>2019-07-11T18:16:50Z</time>
      </trkpt>
      <trkpt lat="45.05907" lon="5.52278">
        <ele>1139</ele>
        <time>2019-07-11T18:16:53Z</time>
      </trkpt>
      <trkpt lat="45.05814" lon="5.52224">
        <ele>1141</ele>
        <time>2019-07-11T18:17:09Z</time>
      </trkpt>
      <trkpt lat="45.05752" lon="5.52212">
        <ele>1147</ele>
        <time>2019-07-11T18:17:12Z</time>
      </trkpt>
      <trkpt lat="45.05662" lon="5.52163">
        <ele>1146</ele>
        <time>2019-07-11T18:17:15Z</time>
      </trkpt>
      <trkpt lat="45.05645" lon="5.52147">
        <ele>1148</ele>
        <time>2019-07-11T18:17:17Z</time>
      </trkpt>
      <trkpt lat="45.05634" lon="5.52124">
        <ele>1148</ele>
        <time>2019-07-11T18:17:31Z</time>
      </trkpt>
      <trkpt lat="45.0559" lon="5.52016">
        <ele>1157</ele>
        <time>2019-07-11T18:17:32Z</time>
      </trkpt>
      <trkpt lat="45.05588" lon="5.51991">
        <ele>1158</ele>
        <time>2019-07-11T18:17:41Z</time>
      </trkpt>
      <trkpt lat="45.05589" lon="5.51965">
        <ele>1156</ele>
        <time>2019-07-11T18:17:42Z</time>
      </trkpt>
      <trkpt lat="45.05587" lon="5.51951">
        <ele>1156</ele>
        <time>2019-07-11T18:17:43Z</time>
      </trkpt>
      <trkpt lat="45.05557" lon="5.51848">
        <ele>1162</ele>
        <time>2019-07-11T18:17:47Z</time>
      </trkpt>
      <trkpt lat="45.0556" lon="5.51839">
        <ele>1161</ele>
        <time>2019-07-11T18:17:48Z</time>
      </trkpt>
      <trkpt lat="45.05583" lon="5.51782">
        <ele>1154</ele>
        <time>2019-07-11T18:17:52Z</time>
      </trkpt>
      <trkpt lat="45.05584" lon="5.51769">
        <ele>1154</ele>
        <time>2019-07-11T18:17:53Z</time>
      </trkpt>
      <trkpt lat="45.05582" lon="5.51762">
        <ele>1154</ele>
        <time>2019-07-11T18:17:55Z</time>
      </trkpt>
      <trkpt lat="45.05569" lon="5.51741">
        <ele>1157</ele>
        <time>2019-07-11T18:18:00Z</time>
      </trkpt>
      <trkpt lat="45.05568" lon="5.51734">
        <ele>1156</ele>
        <time>2019-07-11T18:18:02Z</time>
      </trkpt>
      <trkpt lat="45.05571" lon="5.51703">
        <ele>1153</ele>
        <time>2019-07-11T18:18:09Z</time>
      </trkpt>
      <trkpt lat="45.0557" lon="5.51691">
        <ele>1152</ele>
        <time>2019-07-11T18:18:10Z</time>
      </trkpt>
      <trkpt lat="45.05568" lon="5.51679">
        <ele>1152</ele>
        <time>2019-07-11T18:18:13Z</time>
      </trkpt>
      <trkpt lat="45.05549" lon="5.51649">
        <ele>1155</ele>
        <time>2019-07-11T18:18:15Z</time>
      </trkpt>
      <trkpt lat="45.05543" lon="5.51636">
        <ele>1155</ele>
        <time>2019-07-11T18:18:16Z</time>
      </trkpt>
      <trkpt lat="45.05534" lon="5.51583">
        <ele>1153</ele>
        <time>2019-07-11T18:18:18Z</time>
      </trkpt>
      <trkpt lat="45.05533" lon="5.51572">
        <ele>1154</ele>
        <time>2019-07-11T18:18:21Z</time>
      </trkpt>
      <trkpt lat="45.05534" lon="5.51548">
        <ele>1157</ele>
        <time>2019-07-11T18:18:25Z</time>
      </trkpt>
      <trkpt lat="45.05539" lon="5.51536">
        <ele>1158</ele>
        <time>2019-07-11T18:18:27Z</time>
      </trkpt>
      <trkpt lat="45.05545" lon="5.51528">
        <ele>1158</ele>
        <time>2019-07-11T18:18:29Z</time>
      </trkpt>
      <trkpt lat="45.05556" lon="5.51523">
        <ele>1158</ele>
        <time>2019-07-11T18:18:31Z</time>
      </trkpt>
      <trkpt lat="45.05573" lon="5.51519">
        <ele>1156</ele>
        <time>2019-07-11T18:18:33Z</time>
      </trkpt>
      <trkpt lat="45.05593" lon="5.5151">
        <ele>1155</ele>
        <time>2019-07-11T18:18:38Z</time>
      </trkpt>
      <trkpt lat="45.05602" lon="5.51501">
        <ele>1154</ele>
        <time>2019-07-11T18:18:41Z</time>
      </trkpt>
      <trkpt lat="45.05609" lon="5.51489">
        <ele>1153</ele>
        <time>2019-07-11T18:18:42Z</time>
      </trkpt>
      <trkpt lat="45.05613" lon="5.51472">
        <ele>1154</ele>
        <time>2019-07-11T18:18:44Z</time>
      </trkpt>
      <trkpt lat="45.05612" lon="5.51454">
        <ele>1156</ele>
        <time>2019-07-11T18:18:48Z</time>
      </trkpt>
      <trkpt lat="45.05601" lon="5.51423">
        <ele>1161</ele>
        <time>2019-07-11T18:18:50Z</time>
      </trkpt>
      <trkpt lat="45.05601" lon="5.51398">
        <ele>1164</ele>
        <time>2019-07-11T18:18:52Z</time>
      </trkpt>
      <trkpt lat="45.05604" lon="5.51389">
        <ele>1164</ele>
        <time>2019-07-11T18:18:53Z</time>
      </trkpt>
      <trkpt lat="45.05612" lon="5.5138">
        <ele>1164</ele>
        <time>2019-07-11T18:18:56Z</time>
      </trkpt>
      <trkpt lat="45.05633" lon="5.51361">
        <ele>1161</ele>
        <time>2019-07-11T18:18:59Z</time>
      </trkpt>
      <trkpt lat="45.05639" lon="5.51351">
        <ele>1161</ele>
        <time>2019-07-11T18:19:02Z</time>
      </trkpt>
      <trkpt lat="45.05643" lon="5.51341">
        <ele>1162</ele>
        <time>2019-07-11T18:19:06Z</time>
      </trkpt>
      <trkpt lat="45.05645" lon="5.51331">
        <ele>1163</ele>
        <time>2019-07-11T18:19:14Z</time>
      </trkpt>
      <trkpt lat="45.05643" lon="5.51306">
        <ele>1166</ele>
        <time>2019-07-11T18:19:16Z</time>
      </trkpt>
      <trkpt lat="45.05637" lon="5.5128">
        <ele>1169</ele>
        <time>2019-07-11T18:19:18Z</time>
      </trkpt>
      <trkpt lat="45.05631" lon="5.51264">
        <ele>1172</ele>
        <time>2019-07-11T18:19:19Z</time>
      </trkpt>
      <trkpt lat="45.05616" lon="5.51235">
        <ele>1176</ele>
        <time>2019-07-11T18:19:21Z</time>
      </trkpt>
      <trkpt lat="45.05585" lon="5.51196">
        <ele>1181</ele>
        <time>2019-07-11T18:19:22Z</time>
      </trkpt>
      <trkpt lat="45.0558" lon="5.51182">
        <ele>1183</ele>
        <time>2019-07-11T18:19:26Z</time>
      </trkpt>
      <trkpt lat="45.05576" lon="5.51167">
        <ele>1184</ele>
        <time>2019-07-11T18:19:38Z</time>
      </trkpt>
      <trkpt lat="45.05576" lon="5.51157">
        <ele>1184</ele>
        <time>2019-07-11T18:19:42Z</time>
      </trkpt>
      <trkpt lat="45.05582" lon="5.51141">
        <ele>1184</ele>
        <time>2019-07-11T18:19:44Z</time>
      </trkpt>
      <trkpt lat="45.05587" lon="5.51135">
        <ele>1184</ele>
        <time>2019-07-11T18:19:46Z</time>
      </trkpt>
      <trkpt lat="45.05607" lon="5.5113">
        <ele>1184</ele>
        <time>2019-07-11T18:19:47Z</time>
      </trkpt>
      <trkpt lat="45.05676" lon="5.51136">
        <ele>1181</ele>
        <time>2019-07-11T18:19:51Z</time>
      </trkpt>
      <trkpt lat="45.05696" lon="5.51133">
        <ele>1179</ele>
        <time>2019-07-11T18:19:53Z</time>
      </trkpt>
      <trkpt lat="45.05709" lon="5.51126">
        <ele>1178</ele>
        <time>2019-07-11T18:19:54Z</time>
      </trkpt>
      <trkpt lat="45.05714" lon="5.51119">
        <ele>1179</ele>
        <time>2019-07-11T18:20:09Z</time>
      </trkpt>
      <trkpt lat="45.05719" lon="5.5111">
        <ele>1179</ele>
        <time>2019-07-11T18:20:14Z</time>
      </trkpt>
      <trkpt lat="45.05726" lon="5.51078">
        <ele>1184</ele>
        <time>2019-07-11T18:20:15Z</time>
      </trkpt>
      <trkpt lat="45.05731" lon="5.5107">
        <ele>1185</ele>
        <time>2019-07-11T18:20:22Z</time>
      </trkpt>
      <trkpt lat="45.05738" lon="5.51062">
        <ele>1185</ele>
        <time>2019-07-11T18:20:29Z</time>
      </trkpt>
      <trkpt lat="45.05818" lon="5.51025">
        <ele>1180</ele>
        <time>2019-07-11T18:20:39Z</time>
      </trkpt>
      <trkpt lat="45.0584" lon="5.51004">
        <ele>1180</ele>
        <time>2019-07-11T18:20:52Z</time>
      </trkpt>
      <trkpt lat="45.05847" lon="5.50996">
        <ele>1180</ele>
        <time>2019-07-11T18:21:00Z</time>
      </trkpt>
      <trkpt lat="45.05871" lon="5.50954">
        <ele>1181</ele>
        <time>2019-07-11T18:21:09Z</time>
      </trkpt>
      <trkpt lat="45.05894" lon="5.50911">
        <ele>1184</ele>
        <time>2019-07-11T18:21:26Z</time>
      </trkpt>
      <trkpt lat="45.05941" lon="5.50861">
        <ele>1186</ele>
        <time>2019-07-11T18:21:39Z</time>
      </trkpt>
      <trkpt lat="45.05987" lon="5.50787">
        <ele>1197</ele>
        <time>2019-07-11T18:21:47Z</time>
      </trkpt>
      <trkpt lat="45.06028" lon="5.50751">
        <ele>1198</ele>
        <time>2019-07-11T18:21:53Z</time>
      </trkpt>
      <trkpt lat="45.06069" lon="5.5072">
        <ele>1194</ele>
        <time>2019-07-11T18:21:57Z</time>
      </trkpt>
      <trkpt lat="45.06154" lon="5.5065">
        <ele>1191</ele>
        <time>2019-07-11T18:22:01Z</time>
      </trkpt>
      <trkpt lat="45.06186" lon="5.50556">
        <ele>1199</ele>
        <time>2019-07-11T18:22:05Z</time>
      </trkpt>
      <trkpt lat="45.06221" lon="5.50519">
        <ele>1200</ele>
        <time>2019-07-11T18:22:09Z</time>
      </trkpt>
      <trkpt lat="45.06251" lon="5.50492">
        <ele>1198</ele>
        <time>2019-07-11T18:22:12Z</time>
      </trkpt>
      <trkpt lat="45.06263" lon="5.50469">
        <ele>1200</ele>
        <time>2019-07-11T18:22:24Z</time>
      </trkpt>
      <trkpt lat="45.06276" lon="5.50447">
        <ele>1201</ele>
        <time>2019-07-11T18:22:45Z</time>
      </trkpt>
      <trkpt lat="45.06294" lon="5.50426">
        <ele>1199</ele>
        <time>2019-07-11T18:22:50Z</time>
      </trkpt>
      <trkpt lat="45.06308" lon="5.50401">
        <ele>1198</ele>
        <time>2019-07-11T18:22:54Z</time>
      </trkpt>
      <trkpt lat="45.06314" lon="5.50374">
        <ele>1199</ele>
        <time>2019-07-11T18:23:20Z</time>
      </trkpt>
      <trkpt lat="45.06344" lon="5.50296">
        <ele>1200</ele>
        <time>2019-07-11T18:23:28Z</time>
      </trkpt>
      <trkpt lat="45.06411" lon="5.5015">
        <ele>1202</ele>
        <time>2019-07-11T18:23:29Z</time>
      </trkpt>
      <trkpt lat="45.06428" lon="5.50125">
        <ele>1204</ele>
        <time>2019-07-11T18:23:31Z</time>
      </trkpt>
      <trkpt lat="45.06447" lon="5.50103">
        <ele>1204</ele>
        <time>2019-07-11T18:23:32Z</time>
      </trkpt>
      <trkpt lat="45.06584" lon="5.50033">
        <ele>1193</ele>
        <time>2019-07-11T18:23:39Z</time>
      </trkpt>
      <trkpt lat="45.06622" lon="5.49997">
        <ele>1190</ele>
        <time>2019-07-11T18:23:41Z</time>
      </trkpt>
      <trkpt lat="45.06626" lon="5.49991">
        <ele>1190</ele>
        <time>2019-07-11T18:23:43Z</time>
      </trkpt>
      <trkpt lat="45.0663" lon="5.49977">
        <ele>1190</ele>
        <time>2019-07-11T18:23:44Z</time>
      </trkpt>
      <trkpt lat="45.06629" lon="5.49971">
        <ele>1191</ele>
        <time>2019-07-11T18:23:50Z</time>
      </trkpt>
      <trkpt lat="45.06605" lon="5.4993">
        <ele>1202</ele>
        <time>2019-07-11T18:23:52Z</time>
      </trkpt>
      <trkpt lat="45.06599" lon="5.49909">
        <ele>1205</ele>
        <time>2019-07-11T18:23:54Z</time>
      </trkpt>
      <trkpt lat="45.06598" lon="5.49898">
        <ele>1205</ele>
        <time>2019-07-11T18:24:00Z</time>
      </trkpt>
      <trkpt lat="45.06601" lon="5.49887">
        <ele>1204</ele>
        <time>2019-07-11T18:24:17Z</time>
      </trkpt>
      <trkpt lat="45.06624" lon="5.4985">
        <ele>1197</ele>
        <time>2019-07-11T18:24:23Z</time>
      </trkpt>
      <trkpt lat="45.06627" lon="5.49836">
        <ele>1196</ele>
        <time>2019-07-11T18:24:30Z</time>
      </trkpt>
      <trkpt lat="45.06625" lon="5.49824">
        <ele>1196</ele>
        <time>2019-07-11T18:24:36Z</time>
      </trkpt>
      <trkpt lat="45.06612" lon="5.4978">
        <ele>1199</ele>
        <time>2019-07-11T18:24:44Z</time>
      </trkpt>
      <trkpt lat="45.06567" lon="5.49663">
        <ele>1194</ele>
        <time>2019-07-11T18:24:47Z</time>
      </trkpt>
      <trkpt lat="45.06535" lon="5.49647">
        <ele>1199</ele>
        <time>2019-07-11T18:24:50Z</time>
      </trkpt>
      <trkpt lat="45.06501" lon="5.49617">
        <ele>1198</ele>
        <time>2019-07-11T18:24:53Z</time>
      </trkpt>
      <trkpt lat="45.06475" lon="5.49579">
        <ele>1197</ele>
        <time>2019-07-11T18:24:58Z</time>
      </trkpt>
      <trkpt lat="45.06452" lon="5.49528">
        <ele>1184</ele>
        <time>2019-07-11T18:25:06Z</time>
      </trkpt>
      <trkpt lat="45.06444" lon="5.49508">
        <ele>1178</ele>
        <time>2019-07-11T18:25:14Z</time>
      </trkpt>
      <trkpt lat="45.06429" lon="5.49499">
        <ele>1181</ele>
        <time>2019-07-11T18:25:27Z</time>
      </trkpt>
      <trkpt lat="45.06409" lon="5.49494">
        <ele>1190</ele>
        <time>2019-07-11T18:25:29Z</time>
      </trkpt>
      <trkpt lat="45.06384" lon="5.49481">
        <ele>1196</ele>
        <time>2019-07-11T18:25:33Z</time>
      </trkpt>
      <trkpt lat="45.06349" lon="5.49445">
        <ele>1199</ele>
        <time>2019-07-11T18:25:34Z</time>
      </trkpt>
      <trkpt lat="45.06317" lon="5.49394">
        <ele>1198</ele>
        <time>2019-07-11T18:25:36Z</time>
      </trkpt>
      <trkpt lat="45.06273" lon="5.49317">
        <ele>1206</ele>
        <time>2019-07-11T18:25:38Z</time>
      </trkpt>
      <trkpt lat="45.06264" lon="5.49309">
        <ele>1211</ele>
        <time>2019-07-11T18:25:39Z</time>
      </trkpt>
      <trkpt lat="45.06242" lon="5.49295">
        <ele>1223</ele>
        <time>2019-07-11T18:25:46Z</time>
      </trkpt>
      <trkpt lat="45.06236" lon="5.49288">
        <ele>1227</ele>
        <time>2019-07-11T18:25:49Z</time>
      </trkpt>
      <trkpt lat="45.06234" lon="5.49279">
        <ele>1229</ele>
        <time>2019-07-11T18:25:51Z</time>
      </trkpt>
      <trkpt lat="45.06234" lon="5.49261">
        <ele>1229</ele>
        <time>2019-07-11T18:25:55Z</time>
      </trkpt>
      <trkpt lat="45.06237" lon="5.4925">
        <ele>1228</ele>
        <time>2019-07-11T18:25:58Z</time>
      </trkpt>
      <trkpt lat="45.06264" lon="5.49209">
        <ele>1220</ele>
        <time>2019-07-11T18:26:04Z</time>
      </trkpt>
      <trkpt lat="45.06271" lon="5.49193">
        <ele>1218</ele>
        <time>2019-07-11T18:26:06Z</time>
      </trkpt>
      <trkpt lat="45.06276" lon="5.49175">
        <ele>1218</ele>
        <time>2019-07-11T18:26:11Z</time>
      </trkpt>
      <trkpt lat="45.06279" lon="5.49147">
        <ele>1223</ele>
        <time>2019-07-11T18:26:15Z</time>
      </trkpt>
      <trkpt lat="45.06287" lon="5.4912">
        <ele>1224</ele>
        <time>2019-07-11T18:26:23Z</time>
      </trkpt>
      <trkpt lat="45.063" lon="5.49081">
        <ele>1222</ele>
        <time>2019-07-11T18:26:41Z</time>
      </trkpt>
      <trkpt lat="45.06303" lon="5.49064">
        <ele>1221</ele>
        <time>2019-07-11T18:26:51Z</time>
      </trkpt>
      <trkpt lat="45.06309" lon="5.49022">
        <ele>1221</ele>
        <time>2019-07-11T18:27:01Z</time>
      </trkpt>
      <trkpt lat="45.0631" lon="5.48997">
        <ele>1223</ele>
        <time>2019-07-11T18:27:09Z</time>
      </trkpt>
      <trkpt lat="45.06299" lon="5.4893">
        <ele>1226</ele>
        <time>2019-07-11T18:27:17Z</time>
      </trkpt>
      <trkpt lat="45.06243" lon="5.48816">
        <ele>1224</ele>
        <time>2019-07-11T18:27:33Z</time>
      </trkpt>
      <trkpt lat="45.06202" lon="5.48762">
        <ele>1226</ele>
        <time>2019-07-11T18:28:07Z</time>
      </trkpt>
      <trkpt lat="45.06152" lon="5.48724">
        <ele>1234</ele>
        <time>2019-07-11T18:28:12Z</time>
      </trkpt>
      <trkpt lat="45.0611" lon="5.48689">
        <ele>1235</ele>
        <time>2019-07-11T18:28:19Z</time>
      </trkpt>
      <trkpt lat="45.06082" lon="5.48639">
        <ele>1228</ele>
        <time>2019-07-11T18:28:29Z</time>
      </trkpt>
      <trkpt lat="45.06031" lon="5.48539">
        <ele>1230</ele>
        <time>2019-07-11T18:28:37Z</time>
      </trkpt>
      <trkpt lat="45.05907" lon="5.48337">
        <ele>1244</ele>
        <time>2019-07-11T18:28:49Z</time>
      </trkpt>
      <trkpt lat="45.05888" lon="5.48301">
        <ele>1245</ele>
        <time>2019-07-11T18:28:56Z</time>
      </trkpt>
      <trkpt lat="45.05862" lon="5.48261">
        <ele>1247</ele>
        <time>2019-07-11T18:29:00Z</time>
      </trkpt>
      <trkpt lat="45.05828" lon="5.48199">
        <ele>1248</ele>
        <time>2019-07-11T18:29:05Z</time>
      </trkpt>
      <trkpt lat="45.05805" lon="5.48144">
        <ele>1250</ele>
        <time>2019-07-11T18:29:12Z</time>
      </trkpt>
      <trkpt lat="45.05774" lon="5.48063">
        <ele>1254</ele>
        <time>2019-07-11T18:29:14Z</time>
      </trkpt>
      <trkpt lat="45.0576" lon="5.48008">
        <ele>1255</ele>
        <time>2019-07-11T18:29:19Z</time>
      </trkpt>
      <trkpt lat="45.05756" lon="5.47975">
        <ele>1257</ele>
        <time>2019-07-11T18:29:21Z</time>
      </trkpt>
      <trkpt lat="45.05743" lon="5.47939">
        <ele>1259</ele>
        <time>2019-07-11T18:29:22Z</time>
      </trkpt>
      <trkpt lat="45.0572" lon="5.47893">
        <ele>1262</ele>
        <time>2019-07-11T18:29:25Z</time>
      </trkpt>
      <trkpt lat="45.05717" lon="5.47876">
        <ele>1262</ele>
        <time>2019-07-11T18:29:29Z</time>
      </trkpt>
      <trkpt lat="45.05701" lon="5.47844">
        <ele>1263</ele>
        <time>2019-07-11T18:29:39Z</time>
      </trkpt>
      <trkpt lat="45.05696" lon="5.47838">
        <ele>1262</ele>
        <time>2019-07-11T18:29:51Z</time>
      </trkpt>
      <trkpt lat="45.05689" lon="5.47834">
        <ele>1262</ele>
        <time>2019-07-11T18:29:55Z</time>
      </trkpt>
      <trkpt lat="45.05678" lon="5.47813">
        <ele>1262</ele>
        <time>2019-07-11T18:29:57Z</time>
      </trkpt>
      <trkpt lat="45.05665" lon="5.47793">
        <ele>1262</ele>
        <time>2019-07-11T18:30:29Z</time>
      </trkpt>
      <trkpt lat="45.05619" lon="5.47737">
        <ele>1267</ele>
        <time>2019-07-11T18:30:34Z</time>
      </trkpt>
      <trkpt lat="45.05564" lon="5.47681">
        <ele>1271</ele>
        <time>2019-07-11T18:30:37Z</time>
      </trkpt>
      <trkpt lat="45.05551" lon="5.47659">
        <ele>1272</ele>
        <time>2019-07-11T18:30:43Z</time>
      </trkpt>
      <trkpt lat="45.05542" lon="5.47651">
        <ele>1274</ele>
        <time>2019-07-11T18:30:54Z</time>
      </trkpt>
      <trkpt lat="45.05366" lon="5.47588">
        <ele>1293</ele>
        <time>2019-07-11T18:31:08Z</time>
      </trkpt>
      <trkpt lat="45.0534" lon="5.47569">
        <ele>1297</ele>
        <time>2019-07-11T18:31:11Z</time>
      </trkpt>
      <trkpt lat="45.05327" lon="5.47557">
        <ele>1300</ele>
        <time>2019-07-11T18:31:16Z</time>
      </trkpt>
      <trkpt lat="45.053" lon="5.47539">
        <ele>1304</ele>
        <time>2019-07-11T18:31:19Z</time>
      </trkpt>
      <trkpt lat="45.05241" lon="5.47509">
        <ele>1307</ele>
        <time>2019-07-11T18:31:21Z</time>
      </trkpt>
      <trkpt lat="45.05168" lon="5.47468">
        <ele>1316</ele>
        <time>2019-07-11T18:31:24Z</time>
      </trkpt>
      <trkpt lat="45.05152" lon="5.47458">
        <ele>1318</ele>
        <time>2019-07-11T18:31:30Z</time>
      </trkpt>
      <trkpt lat="45.05128" lon="5.47435">
        <ele>1320</ele>
        <time>2019-07-11T18:31:35Z</time>
      </trkpt>
      <trkpt lat="45.0511" lon="5.47427">
        <ele>1322</ele>
        <time>2019-07-11T18:31:38Z</time>
      </trkpt>
      <trkpt lat="45.05098" lon="5.47424">
        <ele>1322</ele>
        <time>2019-07-11T18:31:53Z</time>
      </trkpt>
      <trkpt lat="45.05086" lon="5.47423">
        <ele>1323</ele>
        <time>2019-07-11T18:31:56Z</time>
      </trkpt>
      <trkpt lat="45.05051" lon="5.47431">
        <ele>1326</ele>
        <time>2019-07-11T18:32:08Z</time>
      </trkpt>
      <trkpt lat="45.05025" lon="5.47433">
        <ele>1329</ele>
        <time>2019-07-11T18:32:11Z</time>
      </trkpt>
      <trkpt lat="45.05004" lon="5.47428">
        <ele>1331</ele>
        <time>2019-07-11T18:32:25Z</time>
      </trkpt>
      <trkpt lat="45.04926" lon="5.47402">
        <ele>1342</ele>
        <time>2019-07-11T18:32:45Z</time>
      </trkpt>
      <trkpt lat="45.04909" lon="5.47402">
        <ele>1344</ele>
        <time>2019-07-11T18:33:01Z</time>
      </trkpt>
      <trkpt lat="45.04839" lon="5.47419">
        <ele>1350</ele>
        <time>2019-07-11T18:33:06Z</time>
      </trkpt>
      <trkpt lat="45.04823" lon="5.47427">
        <ele>1353</ele>
        <time>2019-07-11T18:33:12Z</time>
      </trkpt>
      <trkpt lat="45.04752" lon="5.47472">
        <ele>1363</ele>
        <time>2019-07-11T18:33:16Z</time>
      </trkpt>
      <trkpt lat="45.04644" lon="5.47524">
        <ele>1371</ele>
        <time>2019-07-11T18:33:25Z</time>
      </trkpt>
      <trkpt lat="45.0456" lon="5.4754">
        <ele>1377</ele>
        <time>2019-07-11T18:33:34Z</time>
      </trkpt>
      <trkpt lat="45.04532" lon="5.47555">
        <ele>1377</ele>
        <time>2019-07-11T18:33:36Z</time>
      </trkpt>
      <trkpt lat="45.04499" lon="5.47568">
        <ele>1377</ele>
        <time>2019-07-11T18:33:41Z</time>
      </trkpt>
      <trkpt lat="45.04475" lon="5.47573">
        <ele>1378</ele>
        <time>2019-07-11T18:33:54Z</time>
      </trkpt>
      <trkpt lat="45.04423" lon="5.47574">
        <ele>1382</ele>
        <time>2019-07-11T18:34:00Z</time>
      </trkpt>
      <trkpt lat="45.04378" lon="5.4759">
        <ele>1380</ele>
        <time>2019-07-11T18:34:04Z</time>
      </trkpt>
      <trkpt lat="45.04363" lon="5.4759">
        <ele>1380</ele>
        <time>2019-07-11T18:34:11Z</time>
      </trkpt>
      <trkpt lat="45.04338" lon="5.47583">
        <ele>1381</ele>
        <time>2019-07-11T18:34:19Z</time>
      </trkpt>
      <trkpt lat="45.04267" lon="5.47573">
        <ele>1384</ele>
        <time>2019-07-11T18:34:23Z</time>
      </trkpt>
      <trkpt lat="45.04231" lon="5.47563">
        <ele>1386</ele>
        <time>2019-07-11T18:34:27Z</time>
      </trkpt>
      <trkpt lat="45.04209" lon="5.47574">
        <ele>1384</ele>
        <time>2019-07-11T18:34:35Z</time>
      </trkpt>
      <trkpt lat="45.04174" lon="5.47598">
        <ele>1380</ele>
        <time>2019-07-11T18:35:14Z</time>
      </trkpt>
      <trkpt lat="45.04136" lon="5.47628">
        <ele>1377</ele>
        <time>2019-07-11T18:35:32Z</time>
      </trkpt>
      <trkpt lat="45.04113" lon="5.47636">
        <ele>1376</ele>
        <time>2019-07-11T18:35:38Z</time>
      </trkpt>
      <trkpt lat="45.0409" lon="5.47639">
        <ele>1375</ele>
        <time>2019-07-11T18:35:43Z</time>
      </trkpt>
      <trkpt lat="45.04047" lon="5.47639">
        <ele>1376</ele>
        <time>2019-07-11T18:35:49Z</time>
      </trkpt>
      <trkpt lat="45.03831" lon="5.47613">
        <ele>1380</ele>
        <time>2019-07-11T18:36:00Z</time>
      </trkpt>
      <trkpt lat="45.03732" lon="5.47648">
        <ele>1374</ele>
        <time>2019-07-11T18:36:15Z</time>
      </trkpt>
      <trkpt lat="45.03697" lon="5.47653">
        <ele>1373</ele>
        <time>2019-07-11T18:36:20Z</time>
      </trkpt>
      <trkpt lat="45.03668" lon="5.47653">
        <ele>1373</ele>
        <time>2019-07-11T18:36:22Z</time>
      </trkpt>
      <trkpt lat="45.03636" lon="5.47665">
        <ele>1371</ele>
        <time>2019-07-11T18:36:24Z</time>
      </trkpt>
      <trkpt lat="45.03574" lon="5.47678">
        <ele>1371</ele>
        <time>2019-07-11T18:36:25Z</time>
      </trkpt>
      <trkpt lat="45.0349" lon="5.47704">
        <ele>1360</ele>
        <time>2019-07-11T18:36:28Z</time>
      </trkpt>
      <trkpt lat="45.03464" lon="5.47711">
        <ele>1350</ele>
        <time>2019-07-11T18:36:31Z</time>
      </trkpt>
      <trkpt lat="45.03451" lon="5.4771">
        <ele>1346</ele>
        <time>2019-07-11T18:36:39Z</time>
      </trkpt>
      <trkpt lat="45.03445" lon="5.47706">
        <ele>1345</ele>
        <time>2019-07-11T18:36:42Z</time>
      </trkpt>
      <trkpt lat="45.0344" lon="5.477">
        <ele>1345</ele>
        <time>2019-07-11T18:36:43Z</time>
      </trkpt>
      <trkpt lat="45.03431" lon="5.47678">
        <ele>1346</ele>
        <time>2019-07-11T18:36:44Z</time>
      </trkpt>
      <trkpt lat="45.03427" lon="5.47653">
        <ele>1350</ele>
        <time>2019-07-11T18:36:49Z</time>
      </trkpt>
      <trkpt lat="45.03422" lon="5.47589">
        <ele>1360</ele>
        <time>2019-07-11T18:36:50Z</time>
      </trkpt>
      <trkpt lat="45.03416" lon="5.47572">
        <ele>1361</ele>
        <time>2019-07-11T18:36:51Z</time>
      </trkpt>
      <trkpt lat="45.03413" lon="5.47566">
        <ele>1361</ele>
        <time>2019-07-11T18:36:54Z</time>
      </trkpt>
      <trkpt lat="45.03408" lon="5.47562">
        <ele>1361</ele>
        <time>2019-07-11T18:36:57Z</time>
      </trkpt>
      <trkpt lat="45.03381" lon="5.47558">
        <ele>1353</ele>
        <time>2019-07-11T18:37:06Z</time>
      </trkpt>
      <trkpt lat="45.03374" lon="5.47552">
        <ele>1352</ele>
        <time>2019-07-11T18:37:09Z</time>
      </trkpt>
      <trkpt lat="45.03368" lon="5.47544">
        <ele>1352</ele>
        <time>2019-07-11T18:37:14Z</time>
      </trkpt>
      <trkpt lat="45.03358" lon="5.47528">
        <ele>1351</ele>
        <time>2019-07-11T18:37:16Z</time>
      </trkpt>
      <trkpt lat="45.03349" lon="5.47509">
        <ele>1351</ele>
        <time>2019-07-11T18:37:29Z</time>
      </trkpt>
      <trkpt lat="45.03329" lon="5.47443">
        <ele>1353</ele>
        <time>2019-07-11T18:37:41Z</time>
      </trkpt>
      <trkpt lat="45.03319" lon="5.47422">
        <ele>1354</ele>
        <time>2019-07-11T18:37:47Z</time>
      </trkpt>
      <trkpt lat="45.033" lon="5.47393">
        <ele>1353</ele>
        <time>2019-07-11T18:37:54Z</time>
      </trkpt>
      <trkpt lat="45.03292" lon="5.47385">
        <ele>1352</ele>
        <time>2019-07-11T18:37:57Z</time>
      </trkpt>
      <trkpt lat="45.03226" lon="5.47346">
        <ele>1344</ele>
        <time>2019-07-11T18:38:06Z</time>
      </trkpt>
      <trkpt lat="45.03161" lon="5.47319">
        <ele>1337</ele>
        <time>2019-07-11T18:38:13Z</time>
      </trkpt>
      <trkpt lat="45.03131" lon="5.47298">
        <ele>1337</ele>
        <time>2019-07-11T18:38:18Z</time>
      </trkpt>
      <trkpt lat="45.03094" lon="5.47278">
        <ele>1336</ele>
        <time>2019-07-11T18:38:20Z</time>
      </trkpt>
      <trkpt lat="45.03078" lon="5.47276">
        <ele>1335</ele>
        <time>2019-07-11T18:38:23Z</time>
      </trkpt>
      <trkpt lat="45.03026" lon="5.47278">
        <ele>1331</ele>
        <time>2019-07-11T18:38:24Z</time>
      </trkpt>
      <trkpt lat="45.02985" lon="5.47265">
        <ele>1331</ele>
        <time>2019-07-11T18:38:29Z</time>
      </trkpt>
      <trkpt lat="45.02959" lon="5.47254">
        <ele>1330</ele>
        <time>2019-07-11T18:38:37Z</time>
      </trkpt>
      <trkpt lat="45.02949" lon="5.47255">
        <ele>1329</ele>
        <time>2019-07-11T18:38:43Z</time>
      </trkpt>
      <trkpt lat="45.02932" lon="5.47264">
        <ele>1326</ele>
        <time>2019-07-11T18:38:45Z</time>
      </trkpt>
      <trkpt lat="45.02926" lon="5.47266">
        <ele>1325</ele>
        <time>2019-07-11T18:38:51Z</time>
      </trkpt>
      <trkpt lat="45.02899" lon="5.47261">
        <ele>1323</ele>
        <time>2019-07-11T18:38:55Z</time>
      </trkpt>
      <trkpt lat="45.02856" lon="5.47243">
        <ele>1322</ele>
        <time>2019-07-11T18:39:08Z</time>
      </trkpt>
      <trkpt lat="45.02823" lon="5.47234">
        <ele>1322</ele>
        <time>2019-07-11T18:39:12Z</time>
      </trkpt>
      <trkpt lat="45.02814" lon="5.47235">
        <ele>1321</ele>
        <time>2019-07-11T18:39:26Z</time>
      </trkpt>
      <trkpt lat="45.02779" lon="5.47248">
        <ele>1318</ele>
        <time>2019-07-11T18:39:34Z</time>
      </trkpt>
      <trkpt lat="45.02759" lon="5.47252">
        <ele>1317</ele>
        <time>2019-07-11T18:39:44Z</time>
      </trkpt>
      <trkpt lat="45.02683" lon="5.47251">
        <ele>1310</ele>
        <time>2019-07-11T18:39:58Z</time>
      </trkpt>
      <trkpt lat="45.02662" lon="5.47248">
        <ele>1308</ele>
        <time>2019-07-11T18:40:05Z</time>
      </trkpt>
      <trkpt lat="45.02587" lon="5.4721">
        <ele>1312</ele>
        <time>2019-07-11T18:40:15Z</time>
      </trkpt>
      <trkpt lat="45.02545" lon="5.47199">
        <ele>1312</ele>
        <time>2019-07-11T18:40:24Z</time>
      </trkpt>
      <trkpt lat="45.02489" lon="5.47192">
        <ele>1310</ele>
        <time>2019-07-11T18:40:25Z</time>
      </trkpt>
      <trkpt lat="45.02409" lon="5.47196">
        <ele>1307</ele>
        <time>2019-07-11T18:40:27Z</time>
      </trkpt>
      <trkpt lat="45.02368" lon="5.47187">
        <ele>1307</ele>
        <time>2019-07-11T18:40:36Z</time>
      </trkpt>
      <trkpt lat="45.02314" lon="5.47184">
        <ele>1305</ele>
        <time>2019-07-11T18:40:45Z</time>
      </trkpt>
      <trkpt lat="45.02266" lon="5.4717">
        <ele>1306</ele>
        <time>2019-07-11T18:40:51Z</time>
      </trkpt>
      <trkpt lat="45.02259" lon="5.47169">
        <ele>1306</ele>
        <time>2019-07-11T18:40:57Z</time>
      </trkpt>
      <trkpt lat="45.02247" lon="5.47171">
        <ele>1306</ele>
        <time>2019-07-11T18:41:01Z</time>
      </trkpt>
      <trkpt lat="45.02198" lon="5.47198">
        <ele>1308</ele>
        <time>2019-07-11T18:41:03Z</time>
      </trkpt>
      <trkpt lat="45.02151" lon="5.47214">
        <ele>1311</ele>
        <time>2019-07-11T18:41:08Z</time>
      </trkpt>
      <trkpt lat="45.02119" lon="5.47219">
        <ele>1313</ele>
        <time>2019-07-11T18:41:14Z</time>
      </trkpt>
      <trkpt lat="45.02086" lon="5.47234">
        <ele>1314</ele>
        <time>2019-07-11T18:41:16Z</time>
      </trkpt>
      <trkpt lat="45.02065" lon="5.47249">
        <ele>1313</ele>
        <time>2019-07-11T18:41:18Z</time>
      </trkpt>
      <trkpt lat="45.02058" lon="5.47257">
        <ele>1313</ele>
        <time>2019-07-11T18:41:20Z</time>
      </trkpt>
      <trkpt lat="45.0204" lon="5.47288">
        <ele>1311</ele>
        <time>2019-07-11T18:41:34Z</time>
      </trkpt>
      <trkpt lat="45.02013" lon="5.47317">
        <ele>1313</ele>
        <time>2019-07-11T18:41:38Z</time>
      </trkpt>
      <trkpt lat="45.02004" lon="5.47323">
        <ele>1314</ele>
        <time>2019-07-11T18:41:48Z</time>
      </trkpt>
      <trkpt lat="45.01989" lon="5.47329">
        <ele>1315</ele>
        <time>2019-07-11T18:41:52Z</time>
      </trkpt>
      <trkpt lat="45.01979" lon="5.47329">
        <ele>1315</ele>
        <time>2019-07-11T18:42:09Z</time>
      </trkpt>
      <trkpt lat="45.01903" lon="5.473">
        <ele>1318</ele>
        <time>2019-07-11T18:42:12Z</time>
      </trkpt>
      <trkpt lat="45.01884" lon="5.47289">
        <ele>1319</ele>
        <time>2019-07-11T18:42:13Z</time>
      </trkpt>
      <trkpt lat="45.01835" lon="5.47253">
        <ele>1322</ele>
        <time>2019-07-11T18:42:18Z</time>
      </trkpt>
      <trkpt lat="45.01812" lon="5.47241">
        <ele>1323</ele>
        <time>2019-07-11T18:42:20Z</time>
      </trkpt>
      <trkpt lat="45.01716" lon="5.47228">
        <ele>1324</ele>
        <time>2019-07-11T18:42:24Z</time>
      </trkpt>
      <trkpt lat="45.017" lon="5.47234">
        <ele>1323</ele>
        <time>2019-07-11T18:42:25Z</time>
      </trkpt>
      <trkpt lat="45.01696" lon="5.47238">
        <ele>1323</ele>
        <time>2019-07-11T18:42:31Z</time>
      </trkpt>
      <trkpt lat="45.01679" lon="5.47272">
        <ele>1321</ele>
        <time>2019-07-11T18:42:32Z</time>
      </trkpt>
      <trkpt lat="45.01672" lon="5.47279">
        <ele>1321</ele>
        <time>2019-07-11T18:42:34Z</time>
      </trkpt>
      <trkpt lat="45.01652" lon="5.4729">
        <ele>1320</ele>
        <time>2019-07-11T18:42:38Z</time>
      </trkpt>
      <trkpt lat="45.01645" lon="5.47296">
        <ele>1319</ele>
        <time>2019-07-11T18:42:41Z</time>
      </trkpt>
      <trkpt lat="45.01622" lon="5.47326">
        <ele>1318</ele>
        <time>2019-07-11T18:42:48Z</time>
      </trkpt>
      <trkpt lat="45.01617" lon="5.4733">
        <ele>1318</ele>
        <time>2019-07-11T18:42:50Z</time>
      </trkpt>
      <trkpt lat="45.01604" lon="5.47335">
        <ele>1317</ele>
        <time>2019-07-11T18:42:52Z</time>
      </trkpt>
      <trkpt lat="45.0158" lon="5.47338">
        <ele>1317</ele>
        <time>2019-07-11T18:42:56Z</time>
      </trkpt>
      <trkpt lat="45.01564" lon="5.47336">
        <ele>1316</ele>
        <time>2019-07-11T18:42:59Z</time>
      </trkpt>
      <trkpt lat="45.01528" lon="5.47317">
        <ele>1316</ele>
        <time>2019-07-11T18:43:01Z</time>
      </trkpt>
      <trkpt lat="45.01518" lon="5.47317">
        <ele>1315</ele>
        <time>2019-07-11T18:43:03Z</time>
      </trkpt>
      <trkpt lat="45.01507" lon="5.47325">
        <ele>1315</ele>
        <time>2019-07-11T18:43:04Z</time>
      </trkpt>
      <trkpt lat="45.01489" lon="5.47342">
        <ele>1314</ele>
        <time>2019-07-11T18:43:05Z</time>
      </trkpt>
      <trkpt lat="45.01475" lon="5.47351">
        <ele>1314</ele>
        <time>2019-07-11T18:43:10Z</time>
      </trkpt>
      <trkpt lat="45.01461" lon="5.47356">
        <ele>1314</ele>
        <time>2019-07-11T18:43:12Z</time>
      </trkpt>
      <trkpt lat="45.0145" lon="5.47354">
        <ele>1314</ele>
        <time>2019-07-11T18:43:30Z</time>
      </trkpt>
      <trkpt lat="45.01447" lon="5.4735">
        <ele>1314</ele>
        <time>2019-07-11T18:43:36Z</time>
      </trkpt>
      <trkpt lat="45.01445" lon="5.47343">
        <ele>1314</ele>
        <time>2019-07-11T18:43:39Z</time>
      </trkpt>
      <trkpt lat="45.01445" lon="5.47305">
        <ele>1313</ele>
        <time>2019-07-11T18:43:45Z</time>
      </trkpt>
      <trkpt lat="45.0144" lon="5.47289">
        <ele>1312</ele>
        <time>2019-07-11T18:43:47Z</time>
      </trkpt>
      <trkpt lat="45.01368" lon="5.47182">
        <ele>1304</ele>
        <time>2019-07-11T18:43:48Z</time>
      </trkpt>
      <trkpt lat="45.01351" lon="5.47142">
        <ele>1302</ele>
        <time>2019-07-11T18:43:50Z</time>
      </trkpt>
      <trkpt lat="45.01347" lon="5.47124">
        <ele>1301</ele>
        <time>2019-07-11T18:43:58Z</time>
      </trkpt>
      <trkpt lat="45.01341" lon="5.47076">
        <ele>1300</ele>
        <time>2019-07-11T18:44:00Z</time>
      </trkpt>
      <trkpt lat="45.01338" lon="5.47062">
        <ele>1298</ele>
        <time>2019-07-11T18:44:10Z</time>
      </trkpt>
      <trkpt lat="45.01334" lon="5.47049">
        <ele>1296</ele>
        <time>2019-07-11T18:44:17Z</time>
      </trkpt>
      <trkpt lat="45.01326" lon="5.4704">
        <ele>1295</ele>
        <time>2019-07-11T18:44:24Z</time>
      </trkpt>
      <trkpt lat="45.01288" lon="5.47006">
        <ele>1290</ele>
        <time>2019-07-11T18:44:26Z</time>
      </trkpt>
      <trkpt lat="45.01277" lon="5.46999">
        <ele>1289</ele>
        <time>2019-07-11T18:44:40Z</time>
      </trkpt>
      <trkpt lat="45.0122" lon="5.46997">
        <ele>1286</ele>
        <time>2019-07-11T18:44:43Z</time>
      </trkpt>
      <trkpt lat="45.01184" lon="5.4699">
        <ele>1282</ele>
        <time>2019-07-11T18:44:46Z</time>
      </trkpt>
      <trkpt lat="45.01146" lon="5.4698">
        <ele>1276</ele>
        <time>2019-07-11T18:45:02Z</time>
      </trkpt>
      <trkpt lat="45.01136" lon="5.46979">
        <ele>1274</ele>
        <time>2019-07-11T18:45:05Z</time>
      </trkpt>
      <trkpt lat="45.01057" lon="5.46989">
        <ele>1268</ele>
        <time>2019-07-11T18:45:13Z</time>
      </trkpt>
      <trkpt lat="45.01041" lon="5.46993">
        <ele>1266</ele>
        <time>2019-07-11T18:45:15Z</time>
      </trkpt>
      <trkpt lat="45.01024" lon="5.47002">
        <ele>1265</ele>
        <time>2019-07-11T18:45:18Z</time>
      </trkpt>
      <trkpt lat="45.00941" lon="5.47062">
        <ele>1260</ele>
        <time>2019-07-11T18:45:20Z</time>
      </trkpt>
      <trkpt lat="45.0093" lon="5.47074">
        <ele>1259</ele>
        <time>2019-07-11T18:45:24Z</time>
      </trkpt>
      <trkpt lat="45.00898" lon="5.47121">
        <ele>1262</ele>
        <time>2019-07-11T18:45:26Z</time>
      </trkpt>
      <trkpt lat="45.00886" lon="5.4713">
        <ele>1263</ele>
        <time>2019-07-11T18:45:27Z</time>
      </trkpt>
      <trkpt lat="45.00874" lon="5.47131">
        <ele>1261</ele>
        <time>2019-07-11T18:45:32Z</time>
      </trkpt>
      <trkpt lat="45.00863" lon="5.47124">
        <ele>1258</ele>
        <time>2019-07-11T18:45:37Z</time>
      </trkpt>
      <trkpt lat="45.00842" lon="5.47102">
        <ele>1250</ele>
        <time>2019-07-11T18:45:38Z</time>
      </trkpt>
      <trkpt lat="45.00835" lon="5.47099">
        <ele>1248</ele>
        <time>2019-07-11T18:45:39Z</time>
      </trkpt>
      <trkpt lat="45.00827" lon="5.47099">
        <ele>1247</ele>
        <time>2019-07-11T18:45:40Z</time>
      </trkpt>
      <trkpt lat="45.008" lon="5.47107">
        <ele>1246</ele>
        <time>2019-07-11T18:45:40Z</time>
      </trkpt>
      <trkpt lat="45.00774" lon="5.47118">
        <ele>1246</ele>
        <time>2019-07-11T18:45:45Z</time>
      </trkpt>
      <trkpt lat="45.00768" lon="5.47117">
        <ele>1245</ele>
        <time>2019-07-11T18:45:48Z</time>
      </trkpt>
      <trkpt lat="45.00765" lon="5.47112">
        <ele>1243</ele>
        <time>2019-07-11T18:45:51Z</time>
      </trkpt>
      <trkpt lat="45.00764" lon="5.47104">
        <ele>1241</ele>
        <time>2019-07-11T18:45:54Z</time>
      </trkpt>
      <trkpt lat="45.00766" lon="5.471">
        <ele>1240</ele>
        <time>2019-07-11T18:45:57Z</time>
      </trkpt>
      <trkpt lat="45.00789" lon="5.47084">
        <ele>1238</ele>
        <time>2019-07-11T18:45:59Z</time>
      </trkpt>
      <trkpt lat="45.00804" lon="5.47069">
        <ele>1238</ele>
        <time>2019-07-11T18:46:03Z</time>
      </trkpt>
      <trkpt lat="45.00816" lon="5.4705">
        <ele>1238</ele>
        <time>2019-07-11T18:46:05Z</time>
      </trkpt>
      <trkpt lat="45.00824" lon="5.47031">
        <ele>1236</ele>
        <time>2019-07-11T18:46:07Z</time>
      </trkpt>
      <trkpt lat="45.00826" lon="5.47008">
        <ele>1234</ele>
        <time>2019-07-11T18:46:13Z</time>
      </trkpt>
      <trkpt lat="45.00824" lon="5.46996">
        <ele>1232</ele>
        <time>2019-07-11T18:46:15Z</time>
      </trkpt>
      <trkpt lat="45.00811" lon="5.46963">
        <ele>1227</ele>
        <time>2019-07-11T18:46:19Z</time>
      </trkpt>
      <trkpt lat="45.00802" lon="5.46955">
        <ele>1225</ele>
        <time>2019-07-11T18:46:22Z</time>
      </trkpt>
      <trkpt lat="45.00793" lon="5.46955">
        <ele>1224</ele>
        <time>2019-07-11T18:46:26Z</time>
      </trkpt>
      <trkpt lat="45.00764" lon="5.46973">
        <ele>1221</ele>
        <time>2019-07-11T18:46:27Z</time>
      </trkpt>
      <trkpt lat="45.0075" lon="5.46972">
        <ele>1219</ele>
        <time>2019-07-11T18:46:29Z</time>
      </trkpt>
      <trkpt lat="45.0073" lon="5.46969">
        <ele>1217</ele>
        <time>2019-07-11T18:46:31Z</time>
      </trkpt>
      <trkpt lat="45.00714" lon="5.4696">
        <ele>1215</ele>
        <time>2019-07-11T18:46:33Z</time>
      </trkpt>
      <trkpt lat="45.00698" lon="5.46939">
        <ele>1212</ele>
        <time>2019-07-11T18:46:35Z</time>
      </trkpt>
      <trkpt lat="45.0069" lon="5.46933">
        <ele>1210</ele>
        <time>2019-07-11T18:46:39Z</time>
      </trkpt>
      <trkpt lat="45.0068" lon="5.46928">
        <ele>1209</ele>
        <time>2019-07-11T18:46:43Z</time>
      </trkpt>
      <trkpt lat="45.0067" lon="5.46927">
        <ele>1207</ele>
        <time>2019-07-11T18:46:45Z</time>
      </trkpt>
      <trkpt lat="45.00658" lon="5.46929">
        <ele>1207</ele>
        <time>2019-07-11T18:46:47Z</time>
      </trkpt>
      <trkpt lat="45.00646" lon="5.46935">
        <ele>1206</ele>
        <time>2019-07-11T18:46:49Z</time>
      </trkpt>
      <trkpt lat="45.00628" lon="5.46951">
        <ele>1207</ele>
        <time>2019-07-11T18:46:51Z</time>
      </trkpt>
      <trkpt lat="45.00609" lon="5.46973">
        <ele>1208</ele>
        <time>2019-07-11T18:46:56Z</time>
      </trkpt>
      <trkpt lat="45.00601" lon="5.46979">
        <ele>1209</ele>
        <time>2019-07-11T18:47:03Z</time>
      </trkpt>
      <trkpt lat="45.00593" lon="5.46982">
        <ele>1209</ele>
        <time>2019-07-11T18:47:08Z</time>
      </trkpt>
      <trkpt lat="45.00579" lon="5.4698">
        <ele>1208</ele>
        <time>2019-07-11T18:47:12Z</time>
      </trkpt>
      <trkpt lat="45.00568" lon="5.46971">
        <ele>1208</ele>
        <time>2019-07-11T18:47:17Z</time>
      </trkpt>
      <trkpt lat="45.00547" lon="5.46942">
        <ele>1204</ele>
        <time>2019-07-11T18:47:22Z</time>
      </trkpt>
      <trkpt lat="45.00511" lon="5.46922">
        <ele>1203</ele>
        <time>2019-07-11T18:47:24Z</time>
      </trkpt>
      <trkpt lat="45.00488" lon="5.46905">
        <ele>1202</ele>
        <time>2019-07-11T18:47:33Z</time>
      </trkpt>
      <trkpt lat="45.0047" lon="5.46882">
        <ele>1200</ele>
        <time>2019-07-11T18:47:39Z</time>
      </trkpt>
      <trkpt lat="45.00455" lon="5.46855">
        <ele>1197</ele>
        <time>2019-07-11T18:47:40Z</time>
      </trkpt>
      <trkpt lat="45.00433" lon="5.46828">
        <ele>1194</ele>
        <time>2019-07-11T18:47:41Z</time>
      </trkpt>
      <trkpt lat="45.00421" lon="5.46817">
        <ele>1192</ele>
        <time>2019-07-11T18:47:42Z</time>
      </trkpt>
      <trkpt lat="45.00377" lon="5.46784">
        <ele>1187</ele>
        <time>2019-07-11T18:47:43Z</time>
      </trkpt>
      <trkpt lat="45.00349" lon="5.46758">
        <ele>1184</ele>
        <time>2019-07-11T18:47:49Z</time>
      </trkpt>
      <trkpt lat="45.00347" lon="5.46754">
        <ele>1183</ele>
        <time>2019-07-11T18:47:56Z</time>
      </trkpt>
      <trkpt lat="45.00348" lon="5.46748">
        <ele>1181</ele>
        <time>2019-07-11T18:48:05Z</time>
      </trkpt>
      <trkpt lat="45.00353" lon="5.46743">
        <ele>1178</ele>
        <time>2019-07-11T18:48:13Z</time>
      </trkpt>
      <trkpt lat="45.00359" lon="5.46743">
        <ele>1177</ele>
        <time>2019-07-11T18:48:17Z</time>
      </trkpt>
      <trkpt lat="45.00393" lon="5.46767">
        <ele>1179</ele>
        <time>2019-07-11T18:48:21Z</time>
      </trkpt>
      <trkpt lat="45.00427" lon="5.4677">
        <ele>1174</ele>
        <time>2019-07-11T18:48:24Z</time>
      </trkpt>
      <trkpt lat="45.00477" lon="5.46789">
        <ele>1171</ele>
        <time>2019-07-11T18:48:30Z</time>
      </trkpt>
      <trkpt lat="45.00524" lon="5.46781">
        <ele>1161</ele>
        <time>2019-07-11T18:48:35Z</time>
      </trkpt>
      <trkpt lat="45.00543" lon="5.46781">
        <ele>1159</ele>
        <time>2019-07-11T18:48:36Z</time>
      </trkpt>
      <trkpt lat="45.00565" lon="5.46788">
        <ele>1160</ele>
        <time>2019-07-11T18:48:55Z</time>
      </trkpt>
      <trkpt lat="45.00584" lon="5.46797">
        <ele>1163</ele>
        <time>2019-07-11T18:48:58Z</time>
      </trkpt>
      <trkpt lat="45.00619" lon="5.46793">
        <ele>1159</ele>
        <time>2019-07-11T18:49:02Z</time>
      </trkpt>
      <trkpt lat="45.00644" lon="5.46781">
        <ele>1151</ele>
        <time>2019-07-11T18:49:11Z</time>
      </trkpt>
      <trkpt lat="45.00651" lon="5.46781">
        <ele>1151</ele>
        <time>2019-07-11T18:49:21Z</time>
      </trkpt>
      <trkpt lat="45.00757" lon="5.4679">
        <ele>1154</ele>
        <time>2019-07-11T18:49:36Z</time>
      </trkpt>
      <trkpt lat="45.0077" lon="5.46789">
        <ele>1152</ele>
        <time>2019-07-11T18:49:41Z</time>
      </trkpt>
      <trkpt lat="45.00795" lon="5.46782">
        <ele>1146</ele>
        <time>2019-07-11T18:49:46Z</time>
      </trkpt>
      <trkpt lat="45.00843" lon="5.46774">
        <ele>1137</ele>
        <time>2019-07-11T18:49:56Z</time>
      </trkpt>
      <trkpt lat="45.009" lon="5.46773">
        <ele>1138</ele>
        <time>2019-07-11T18:50:05Z</time>
      </trkpt>
      <trkpt lat="45.00987" lon="5.46765">
        <ele>1135</ele>
        <time>2019-07-11T18:50:21Z</time>
      </trkpt>
      <trkpt lat="45.01014" lon="5.46759">
        <ele>1132</ele>
        <time>2019-07-11T18:50:26Z</time>
      </trkpt>
      <trkpt lat="45.01039" lon="5.46745">
        <ele>1124</ele>
        <time>2019-07-11T18:50:31Z</time>
      </trkpt>
      <trkpt lat="45.01093" lon="5.46723">
        <ele>1116</ele>
        <time>2019-07-11T18:50:41Z</time>
      </trkpt>
      <trkpt lat="45.01141" lon="5.46712">
        <ele>1116</ele>
        <time>2019-07-11T18:50:47Z</time>
      </trkpt>
      <trkpt lat="45.01231" lon="5.46685">
        <ele>1112</ele>
        <time>2019-07-11T18:50:52Z</time>
      </trkpt>
      <trkpt lat="45.01261" lon="5.46675">
        <ele>1111</ele>
        <time>2019-07-11T18:50:55Z</time>
      </trkpt>
      <trkpt lat="45.01286" lon="5.46659">
        <ele>1108</ele>
        <time>2019-07-11T18:50:57Z</time>
      </trkpt>
      <trkpt lat="45.01332" lon="5.46619">
        <ele>1102</ele>
        <time>2019-07-11T18:51:00Z</time>
      </trkpt>
      <trkpt lat="45.01361" lon="5.46589">
        <ele>1099</ele>
        <time>2019-07-11T18:51:01Z</time>
      </trkpt>
      <trkpt lat="45.0138" lon="5.46565">
        <ele>1098</ele>
        <time>2019-07-11T18:51:02Z</time>
      </trkpt>
      <trkpt lat="45.01392" lon="5.46544">
        <ele>1099</ele>
        <time>2019-07-11T18:51:05Z</time>
      </trkpt>
      <trkpt lat="45.01397" lon="5.46531">
        <ele>1100</ele>
        <time>2019-07-11T18:51:19Z</time>
      </trkpt>
      <trkpt lat="45.014" lon="5.46512">
        <ele>1099</ele>
        <time>2019-07-11T18:51:33Z</time>
      </trkpt>
      <trkpt lat="45.01399" lon="5.46503">
        <ele>1098</ele>
        <time>2019-07-11T18:51:35Z</time>
      </trkpt>
      <trkpt lat="45.01394" lon="5.46492">
        <ele>1097</ele>
        <time>2019-07-11T18:51:35Z</time>
      </trkpt>
      <trkpt lat="45.01385" lon="5.46479">
        <ele>1096</ele>
        <time>2019-07-11T18:51:36Z</time>
      </trkpt>
      <trkpt lat="45.01318" lon="5.46423">
        <ele>1080</ele>
        <time>2019-07-11T18:51:37Z</time>
      </trkpt>
      <trkpt lat="45.01243" lon="5.46372">
        <ele>1059</ele>
        <time>2019-07-11T18:51:41Z</time>
      </trkpt>
      <trkpt lat="45.0124" lon="5.46363">
        <ele>1059</ele>
        <time>2019-07-11T18:51:44Z</time>
      </trkpt>
      <trkpt lat="45.01241" lon="5.46357">
        <ele>1059</ele>
        <time>2019-07-11T18:51:48Z</time>
      </trkpt>
      <trkpt lat="45.01244" lon="5.46354">
        <ele>1060</ele>
        <time>2019-07-11T18:51:57Z</time>
      </trkpt>
      <trkpt lat="45.0125" lon="5.46353">
        <ele>1061</ele>
        <time>2019-07-11T18:52:08Z</time>
      </trkpt>
      <trkpt lat="45.01271" lon="5.46355">
        <ele>1064</ele>
        <time>2019-07-11T18:52:14Z</time>
      </trkpt>
      <trkpt lat="45.01288" lon="5.46353">
        <ele>1066</ele>
        <time>2019-07-11T18:52:24Z</time>
      </trkpt>
      <trkpt lat="45.01308" lon="5.46344">
        <ele>1068</ele>
        <time>2019-07-11T18:52:28Z</time>
      </trkpt>
      <trkpt lat="45.01355" lon="5.46313">
        <ele>1067</ele>
        <time>2019-07-11T18:52:33Z</time>
      </trkpt>
      <trkpt lat="45.01416" lon="5.46283">
        <ele>1067</ele>
        <time>2019-07-11T18:52:41Z</time>
      </trkpt>
      <trkpt lat="45.01441" lon="5.46262">
        <ele>1065</ele>
        <time>2019-07-11T18:52:49Z</time>
      </trkpt>
      <trkpt lat="45.01486" lon="5.46205">
        <ele>1053</ele>
        <time>2019-07-11T18:53:00Z</time>
      </trkpt>
      <trkpt lat="45.01507" lon="5.46192">
        <ele>1052</ele>
        <time>2019-07-11T18:53:14Z</time>
      </trkpt>
      <trkpt lat="45.01531" lon="5.46182">
        <ele>1051</ele>
        <time>2019-07-11T18:53:24Z</time>
      </trkpt>
      <trkpt lat="45.01579" lon="5.46176">
        <ele>1056</ele>
        <time>2019-07-11T18:53:44Z</time>
      </trkpt>
      <trkpt lat="45.01619" lon="5.46167">
        <ele>1053</ele>
        <time>2019-07-11T18:53:48Z</time>
      </trkpt>
      <trkpt lat="45.01679" lon="5.46147">
        <ele>1045</ele>
        <time>2019-07-11T18:53:51Z</time>
      </trkpt>
      <trkpt lat="45.01759" lon="5.46131">
        <ele>1038</ele>
        <time>2019-07-11T18:53:55Z</time>
      </trkpt>
      <trkpt lat="45.01816" lon="5.46129">
        <ele>1035</ele>
        <time>2019-07-11T18:54:00Z</time>
      </trkpt>
      <trkpt lat="45.0193" lon="5.46111">
        <ele>1021</ele>
        <time>2019-07-11T18:54:04Z</time>
      </trkpt>
      <trkpt lat="45.01952" lon="5.46112">
        <ele>1022</ele>
        <time>2019-07-11T18:54:08Z</time>
      </trkpt>
      <trkpt lat="45.01969" lon="5.46118">
        <ele>1026</ele>
        <time>2019-07-11T18:54:13Z</time>
      </trkpt>
      <trkpt lat="45.01989" lon="5.46118">
        <ele>1027</ele>
        <time>2019-07-11T18:54:26Z</time>
      </trkpt>
      <trkpt lat="45.02015" lon="5.46112">
        <ele>1022</ele>
        <time>2019-07-11T18:54:34Z</time>
      </trkpt>
      <trkpt lat="45.02039" lon="5.46111">
        <ele>1020</ele>
        <time>2019-07-11T18:54:40Z</time>
      </trkpt>
      <trkpt lat="45.02064" lon="5.4611">
        <ele>1017</ele>
        <time>2019-07-11T18:54:42Z</time>
      </trkpt>
      <trkpt lat="45.02092" lon="5.46113">
        <ele>1017</ele>
        <time>2019-07-11T18:54:48Z</time>
      </trkpt>
      <trkpt lat="45.02163" lon="5.46099">
        <ele>1005</ele>
        <time>2019-07-11T18:54:53Z</time>
      </trkpt>
      <trkpt lat="45.02207" lon="5.46095">
        <ele>1009</ele>
        <time>2019-07-11T18:54:56Z</time>
      </trkpt>
      <trkpt lat="45.02237" lon="5.46085">
        <ele>1008</ele>
        <time>2019-07-11T18:54:58Z</time>
      </trkpt>
      <trkpt lat="45.02251" lon="5.46078">
        <ele>1007</ele>
        <time>2019-07-11T18:55:07Z</time>
      </trkpt>
      <trkpt lat="45.02279" lon="5.46054">
        <ele>1003</ele>
        <time>2019-07-11T18:55:11Z</time>
      </trkpt>
      <trkpt lat="45.02301" lon="5.46026">
        <ele>996</ele>
        <time>2019-07-11T18:55:15Z</time>
      </trkpt>
      <trkpt lat="45.02312" lon="5.46016">
        <ele>993</ele>
        <time>2019-07-11T18:55:16Z</time>
      </trkpt>
      <trkpt lat="45.02324" lon="5.4601">
        <ele>992</ele>
        <time>2019-07-11T18:55:22Z</time>
      </trkpt>
      <trkpt lat="45.02371" lon="5.45993">
        <ele>990</ele>
        <time>2019-07-11T18:55:24Z</time>
      </trkpt>
      <trkpt lat="45.02396" lon="5.4598">
        <ele>989</ele>
        <time>2019-07-11T18:55:25Z</time>
      </trkpt>
      <trkpt lat="45.02406" lon="5.45957">
        <ele>983</ele>
        <time>2019-07-11T18:55:34Z</time>
      </trkpt>
      <trkpt lat="45.02413" lon="5.45946">
        <ele>980</ele>
        <time>2019-07-11T18:55:41Z</time>
      </trkpt>
      <trkpt lat="45.02439" lon="5.45922">
        <ele>979</ele>
        <time>2019-07-11T18:55:46Z</time>
      </trkpt>
      <trkpt lat="45.02444" lon="5.45912">
        <ele>979</ele>
        <time>2019-07-11T18:55:51Z</time>
      </trkpt>
      <trkpt lat="45.02448" lon="5.45901">
        <ele>978</ele>
        <time>2019-07-11T18:55:54Z</time>
      </trkpt>
      <trkpt lat="45.0246" lon="5.45834">
        <ele>971</ele>
        <time>2019-07-11T18:55:57Z</time>
      </trkpt>
      <trkpt lat="45.02474" lon="5.45784">
        <ele>966</ele>
        <time>2019-07-11T18:56:02Z</time>
      </trkpt>
      <trkpt lat="45.02492" lon="5.45746">
        <ele>965</ele>
        <time>2019-07-11T18:56:07Z</time>
      </trkpt>
      <trkpt lat="45.02501" lon="5.45712">
        <ele>960</ele>
        <time>2019-07-11T18:56:10Z</time>
      </trkpt>
      <trkpt lat="45.02504" lon="5.45689">
        <ele>957</ele>
        <time>2019-07-11T18:56:12Z</time>
      </trkpt>
      <trkpt lat="45.02512" lon="5.45667">
        <ele>955</ele>
        <time>2019-07-11T18:56:21Z</time>
      </trkpt>
      <trkpt lat="45.02531" lon="5.45635">
        <ele>952</ele>
        <time>2019-07-11T18:56:31Z</time>
      </trkpt>
      <trkpt lat="45.02546" lon="5.45603">
        <ele>948</ele>
        <time>2019-07-11T18:56:37Z</time>
      </trkpt>
      <trkpt lat="45.02552" lon="5.45585">
        <ele>945</ele>
        <time>2019-07-11T18:56:38Z</time>
      </trkpt>
      <trkpt lat="45.02562" lon="5.45568">
        <ele>944</ele>
        <time>2019-07-11T18:56:56Z</time>
      </trkpt>
      <trkpt lat="45.02601" lon="5.45524">
        <ele>943</ele>
        <time>2019-07-11T18:57:02Z</time>
      </trkpt>
      <trkpt lat="45.02637" lon="5.45462">
        <ele>937</ele>
        <time>2019-07-11T18:57:10Z</time>
      </trkpt>
      <trkpt lat="45.02667" lon="5.45451">
        <ele>938</ele>
        <time>2019-07-11T18:57:16Z</time>
      </trkpt>
      <trkpt lat="45.02673" lon="5.45445">
        <ele>938</ele>
        <time>2019-07-11T18:57:18Z</time>
      </trkpt>
      <trkpt lat="45.02742" lon="5.45338">
        <ele>926</ele>
        <time>2019-07-11T18:57:20Z</time>
      </trkpt>
      <trkpt lat="45.02767" lon="5.45306">
        <ele>922</ele>
        <time>2019-07-11T18:57:22Z</time>
      </trkpt>
      <trkpt lat="45.02801" lon="5.45272">
        <ele>921</ele>
        <time>2019-07-11T18:57:24Z</time>
      </trkpt>
      <trkpt lat="45.02827" lon="5.45239">
        <ele>920</ele>
        <time>2019-07-11T18:57:27Z</time>
      </trkpt>
      <trkpt lat="45.02834" lon="5.45224">
        <ele>917</ele>
        <time>2019-07-11T18:57:34Z</time>
      </trkpt>
      <trkpt lat="45.0284" lon="5.45209">
        <ele>915</ele>
        <time>2019-07-11T18:57:37Z</time>
      </trkpt>
      <trkpt lat="45.02843" lon="5.45196">
        <ele>912</ele>
        <time>2019-07-11T18:57:48Z</time>
      </trkpt>
      <trkpt lat="45.02848" lon="5.45185">
        <ele>910</ele>
        <time>2019-07-11T18:57:59Z</time>
      </trkpt>
      <trkpt lat="45.02866" lon="5.45174">
        <ele>910</ele>
        <time>2019-07-11T18:58:07Z</time>
      </trkpt>
      <trkpt lat="45.02904" lon="5.45159">
        <ele>912</ele>
        <time>2019-07-11T18:58:20Z</time>
      </trkpt>
      <trkpt lat="45.02919" lon="5.45148">
        <ele>910</ele>
        <time>2019-07-11T18:58:29Z</time>
      </trkpt>
      <trkpt lat="45.0297" lon="5.45105">
        <ele>901</ele>
        <time>2019-07-11T18:58:36Z</time>
      </trkpt>
      <trkpt lat="45.0303" lon="5.45075">
        <ele>899</ele>
        <time>2019-07-11T18:58:43Z</time>
      </trkpt>
      <trkpt lat="45.03068" lon="5.4505">
        <ele>895</ele>
        <time>2019-07-11T18:58:47Z</time>
      </trkpt>
      <trkpt lat="45.03134" lon="5.44992">
        <ele>886</ele>
        <time>2019-07-11T18:58:51Z</time>
      </trkpt>
      <trkpt lat="45.03168" lon="5.44949">
        <ele>878</ele>
        <time>2019-07-11T18:58:55Z</time>
      </trkpt>
      <trkpt lat="45.03197" lon="5.44907">
        <ele>867</ele>
        <time>2019-07-11T18:59:01Z</time>
      </trkpt>
      <trkpt lat="45.03228" lon="5.44876">
        <ele>864</ele>
        <time>2019-07-11T18:59:03Z</time>
      </trkpt>
      <trkpt lat="45.03247" lon="5.44861">
        <ele>863</ele>
        <time>2019-07-11T18:59:05Z</time>
      </trkpt>
      <trkpt lat="45.0327" lon="5.44848">
        <ele>862</ele>
        <time>2019-07-11T18:59:06Z</time>
      </trkpt>
      <trkpt lat="45.03293" lon="5.44841">
        <ele>862</ele>
        <time>2019-07-11T18:59:14Z</time>
      </trkpt>
      <trkpt lat="45.03328" lon="5.44842">
        <ele>863</ele>
        <time>2019-07-11T18:59:16Z</time>
      </trkpt>
      <trkpt lat="45.03338" lon="5.4484">
        <ele>863</ele>
        <time>2019-07-11T18:59:30Z</time>
      </trkpt>
      <trkpt lat="45.03345" lon="5.44833">
        <ele>863</ele>
        <time>2019-07-11T18:59:52Z</time>
      </trkpt>
      <trkpt lat="45.03351" lon="5.44826">
        <ele>862</ele>
        <time>2019-07-11T18:59:56Z</time>
      </trkpt>
      <trkpt lat="45.03375" lon="5.44774">
        <ele>855</ele>
        <time>2019-07-11T18:59:58Z</time>
      </trkpt>
      <trkpt lat="45.03383" lon="5.4476">
        <ele>854</ele>
        <time>2019-07-11T19:00:00Z</time>
      </trkpt>
      <trkpt lat="45.03423" lon="5.44664">
        <ele>846</ele>
        <time>2019-07-11T19:00:05Z</time>
      </trkpt>
      <trkpt lat="45.03496" lon="5.44522">
        <ele>832</ele>
        <time>2019-07-11T19:00:07Z</time>
      </trkpt>
      <trkpt lat="45.03513" lon="5.44498">
        <ele>830</ele>
        <time>2019-07-11T19:00:09Z</time>
      </trkpt>
      <trkpt lat="45.03522" lon="5.44491">
        <ele>830</ele>
        <time>2019-07-11T19:00:11Z</time>
      </trkpt>
      <trkpt lat="45.03532" lon="5.44486">
        <ele>831</ele>
        <time>2019-07-11T19:00:39Z</time>
      </trkpt>
      <trkpt lat="45.03558" lon="5.44481">
        <ele>833</ele>
        <time>2019-07-11T19:01:02Z</time>
      </trkpt>
      <trkpt lat="45.03567" lon="5.4447">
        <ele>834</ele>
        <time>2019-07-11T19:01:04Z</time>
      </trkpt>
      <trkpt lat="45.03571" lon="5.44455">
        <ele>835</ele>
        <time>2019-07-11T19:01:15Z</time>
      </trkpt>
      <trkpt lat="45.03572" lon="5.44436">
        <ele>835</ele>
        <time>2019-07-11T19:01:21Z</time>
      </trkpt>
      <trkpt lat="45.03418" lon="5.44395">
        <ele>825</ele>
        <time>2019-07-11T19:01:34Z</time>
      </trkpt>
      <trkpt lat="45.03291" lon="5.44387">
        <ele>819</ele>
        <time>2019-07-11T19:01:38Z</time>
      </trkpt>
      <trkpt lat="45.03278" lon="5.44388">
        <ele>819</ele>
        <time>2019-07-11T19:01:43Z</time>
      </trkpt>
      <trkpt lat="45.0322" lon="5.44399">
        <ele>813</ele>
        <time>2019-07-11T19:01:46Z</time>
      </trkpt>
      <trkpt lat="45.03182" lon="5.44399">
        <ele>810</ele>
        <time>2019-07-11T19:02:03Z</time>
      </trkpt>
      <trkpt lat="45.03113" lon="5.44394">
        <ele>807</ele>
        <time>2019-07-11T19:02:08Z</time>
      </trkpt>
      <trkpt lat="45.0309" lon="5.44396">
        <ele>805</ele>
        <time>2019-07-11T19:02:15Z</time>
      </trkpt>
      <trkpt lat="45.0306" lon="5.44408">
        <ele>799</ele>
        <time>2019-07-11T19:02:22Z</time>
      </trkpt>
      <trkpt lat="45.03047" lon="5.44411">
        <ele>797</ele>
        <time>2019-07-11T19:02:25Z</time>
      </trkpt>
      <trkpt lat="45.02947" lon="5.44405">
        <ele>789</ele>
        <time>2019-07-11T19:02:27Z</time>
      </trkpt>
      <trkpt lat="45.02922" lon="5.44398">
        <ele>789</ele>
        <time>2019-07-11T19:02:30Z</time>
      </trkpt>
      <trkpt lat="45.02883" lon="5.44379">
        <ele>791</ele>
        <time>2019-07-11T19:02:38Z</time>
      </trkpt>
      <trkpt lat="45.02849" lon="5.44359">
        <ele>793</ele>
        <time>2019-07-11T19:02:42Z</time>
      </trkpt>
      <trkpt lat="45.02832" lon="5.44355">
        <ele>793</ele>
        <time>2019-07-11T19:02:46Z</time>
      </trkpt>
      <trkpt lat="45.0282" lon="5.44356">
        <ele>791</ele>
        <time>2019-07-11T19:02:49Z</time>
      </trkpt>
      <trkpt lat="45.02803" lon="5.44363">
        <ele>787</ele>
        <time>2019-07-11T19:03:05Z</time>
      </trkpt>
      <trkpt lat="45.02762" lon="5.44371">
        <ele>780</ele>
        <time>2019-07-11T19:03:17Z</time>
      </trkpt>
      <trkpt lat="45.02742" lon="5.44387">
        <ele>774</ele>
        <time>2019-07-11T19:03:23Z</time>
      </trkpt>
      <trkpt lat="45.02722" lon="5.44398">
        <ele>769</ele>
        <time>2019-07-11T19:03:36Z</time>
      </trkpt>
      <trkpt lat="45.02703" lon="5.444">
        <ele>768</ele>
        <time>2019-07-11T19:03:55Z</time>
      </trkpt>
      <trkpt lat="45.02614" lon="5.44394">
        <ele>762</ele>
        <time>2019-07-11T19:04:25Z</time>
      </trkpt>
      <trkpt lat="45.02544" lon="5.44395">
        <ele>759</ele>
        <time>2019-07-11T19:04:36Z</time>
      </trkpt>
      <trkpt lat="45.0251" lon="5.44391">
        <ele>759</ele>
        <time>2019-07-11T19:04:36Z</time>
      </trkpt>
      <trkpt lat="45.0244" lon="5.44372">
        <ele>758</ele>
        <time>2019-07-11T19:04:40Z</time>
      </trkpt>
      <trkpt lat="45.02336" lon="5.44338">
        <ele>755</ele>
        <time>2019-07-11T19:04:44Z</time>
      </trkpt>
      <trkpt lat="45.0217" lon="5.44286">
        <ele>758</ele>
        <time>2019-07-11T19:04:50Z</time>
      </trkpt>
      <trkpt lat="45.0217" lon="5.44286">
        <ele>758</ele>
        <time>2019-07-11T19:04:54Z</time>
      </trkpt>
      <trkpt lat="45.02115" lon="5.44254">
        <ele>758</ele>
        <time>2019-07-11T19:05:05Z</time>
      </trkpt>
      <trkpt lat="45.02093" lon="5.44243">
        <ele>757</ele>
        <time>2019-07-11T19:05:07Z</time>
      </trkpt>
      <trkpt lat="45.02072" lon="5.44238">
        <ele>756</ele>
        <time>2019-07-11T19:05:48Z</time>
      </trkpt>
      <trkpt lat="45.02037" lon="5.4424">
        <ele>754</ele>
        <time>2019-07-11T19:05:52Z</time>
      </trkpt>
      <trkpt lat="45.02015" lon="5.44247">
        <ele>751</ele>
        <time>2019-07-11T19:06:09Z</time>
      </trkpt>
      <trkpt lat="45.01958" lon="5.44279">
        <ele>747</ele>
        <time>2019-07-11T19:06:15Z</time>
      </trkpt>
      <trkpt lat="45.01944" lon="5.44283">
        <ele>746</ele>
        <time>2019-07-11T19:06:20Z</time>
      </trkpt>
      <trkpt lat="45.01715" lon="5.44276">
        <ele>737</ele>
        <time>2019-07-11T19:06:48Z</time>
      </trkpt>
      <trkpt lat="45.01692" lon="5.44271">
        <ele>736</ele>
        <time>2019-07-11T19:06:54Z</time>
      </trkpt>
      <trkpt lat="45.01601" lon="5.4424">
        <ele>734</ele>
        <time>2019-07-11T19:07:06Z</time>
      </trkpt>
      <trkpt lat="45.01569" lon="5.44234">
        <ele>734</ele>
        <time>2019-07-11T19:07:11Z</time>
      </trkpt>
      <trkpt lat="45.01537" lon="5.44234">
        <ele>733</ele>
        <time>2019-07-11T19:07:15Z</time>
      </trkpt>
      <trkpt lat="45.0138" lon="5.44252">
        <ele>726</ele>
        <time>2019-07-11T19:07:29Z</time>
      </trkpt>
      <trkpt lat="45.01351" lon="5.44257">
        <ele>727</ele>
        <time>2019-07-11T19:07:57Z</time>
      </trkpt>
      <trkpt lat="45.01281" lon="5.44279">
        <ele>724</ele>
        <time>2019-07-11T19:08:03Z</time>
      </trkpt>
      <trkpt lat="45.01257" lon="5.44282">
        <ele>723</ele>
        <time>2019-07-11T19:08:07Z</time>
      </trkpt>
      <trkpt lat="45.01232" lon="5.44283">
        <ele>723</ele>
        <time>2019-07-11T19:08:15Z</time>
      </trkpt>
      <trkpt lat="45.01156" lon="5.44271">
        <ele>726</ele>
        <time>2019-07-11T19:08:18Z</time>
      </trkpt>
      <trkpt lat="45.00997" lon="5.44275">
        <ele>719</ele>
        <time>2019-07-11T19:08:20Z</time>
      </trkpt>
      <trkpt lat="45.00966" lon="5.4427">
        <ele>719</ele>
        <time>2019-07-11T19:08:23Z</time>
      </trkpt>
      <trkpt lat="45.00944" lon="5.44256">
        <ele>718</ele>
        <time>2019-07-11T19:08:34Z</time>
      </trkpt>
      <trkpt lat="45.00907" lon="5.44222">
        <ele>722</ele>
        <time>2019-07-11T19:08:37Z</time>
      </trkpt>
      <trkpt lat="45.00892" lon="5.44212">
        <ele>723</ele>
        <time>2019-07-11T19:08:39Z</time>
      </trkpt>
      <trkpt lat="45.00877" lon="5.4421">
        <ele>723</ele>
        <time>2019-07-11T19:08:42Z</time>
      </trkpt>
      <trkpt lat="45.00861" lon="5.44214">
        <ele>723</ele>
        <time>2019-07-11T19:08:44Z</time>
      </trkpt>
      <trkpt lat="45.00809" lon="5.44254">
        <ele>716</ele>
        <time>2019-07-11T19:08:46Z</time>
      </trkpt>
      <trkpt lat="45.00792" lon="5.44262">
        <ele>715</ele>
        <time>2019-07-11T19:08:50Z</time>
      </trkpt>
      <trkpt lat="45.00779" lon="5.44261">
        <ele>715</ele>
        <time>2019-07-11T19:08:56Z</time>
      </trkpt>
      <trkpt lat="45.00767" lon="5.44254">
        <ele>715</ele>
        <time>2019-07-11T19:09:01Z</time>
      </trkpt>
      <trkpt lat="45.00758" lon="5.44246">
        <ele>715</ele>
        <time>2019-07-11T19:09:03Z</time>
      </trkpt>
      <trkpt lat="45.00749" lon="5.44227">
        <ele>716</ele>
        <time>2019-07-11T19:09:05Z</time>
      </trkpt>
      <trkpt lat="45.00743" lon="5.44202">
        <ele>718</ele>
        <time>2019-07-11T19:09:07Z</time>
      </trkpt>
      <trkpt lat="45.0074" lon="5.44155">
        <ele>720</ele>
        <time>2019-07-11T19:09:10Z</time>
      </trkpt>
      <trkpt lat="45.00735" lon="5.44117">
        <ele>723</ele>
        <time>2019-07-11T19:09:35Z</time>
      </trkpt>
      <trkpt lat="45.00729" lon="5.44099">
        <ele>724</ele>
        <time>2019-07-11T19:09:38Z</time>
      </trkpt>
      <trkpt lat="45.0072" lon="5.44088">
        <ele>724</ele>
        <time>2019-07-11T19:09:44Z</time>
      </trkpt>
      <trkpt lat="45.00711" lon="5.44083">
        <ele>724</ele>
        <time>2019-07-11T19:09:46Z</time>
      </trkpt>
      <trkpt lat="45.00693" lon="5.44084">
        <ele>723</ele>
        <time>2019-07-11T19:09:47Z</time>
      </trkpt>
      <trkpt lat="45.00554" lon="5.44117">
        <ele>722</ele>
        <time>2019-07-11T19:09:53Z</time>
      </trkpt>
      <trkpt lat="45.00537" lon="5.44113">
        <ele>721</ele>
        <time>2019-07-11T19:09:56Z</time>
      </trkpt>
      <trkpt lat="45.00506" lon="5.44111">
        <ele>719</ele>
        <time>2019-07-11T19:09:58Z</time>
      </trkpt>
      <trkpt lat="45.00496" lon="5.44112">
        <ele>719</ele>
        <time>2019-07-11T19:10:07Z</time>
      </trkpt>
      <trkpt lat="45.00488" lon="5.44116">
        <ele>717</ele>
        <time>2019-07-11T19:10:10Z</time>
      </trkpt>
      <trkpt lat="45.00459" lon="5.44137">
        <ele>713</ele>
        <time>2019-07-11T19:10:11Z</time>
      </trkpt>
      <trkpt lat="45.0044" lon="5.44143">
        <ele>710</ele>
        <time>2019-07-11T19:10:24Z</time>
      </trkpt>
      <trkpt lat="45.00428" lon="5.44144">
        <ele>708</ele>
        <time>2019-07-11T19:10:26Z</time>
      </trkpt>
      <trkpt lat="45.00383" lon="5.44133">
        <ele>707</ele>
        <time>2019-07-11T19:10:28Z</time>
      </trkpt>
      <trkpt lat="45.00367" lon="5.44125">
        <ele>707</ele>
        <time>2019-07-11T19:10:56Z</time>
      </trkpt>
      <trkpt lat="45.00359" lon="5.44118">
        <ele>707</ele>
        <time>2019-07-11T19:11:02Z</time>
      </trkpt>
      <trkpt lat="45.0031" lon="5.44049">
        <ele>712</ele>
        <time>2019-07-11T19:11:05Z</time>
      </trkpt>
      <trkpt lat="45.00304" lon="5.44034">
        <ele>714</ele>
        <time>2019-07-11T19:11:10Z</time>
      </trkpt>
      <trkpt lat="45.00302" lon="5.44018">
        <ele>715</ele>
        <time>2019-07-11T19:11:12Z</time>
      </trkpt>
      <trkpt lat="45.00325" lon="5.43795">
        <ele>693</ele>
        <time>2019-07-11T19:11:16Z</time>
      </trkpt>
      <trkpt lat="45.00329" lon="5.43746">
        <ele>692</ele>
        <time>2019-07-11T19:11:24Z</time>
      </trkpt>
      <trkpt lat="45.00327" lon="5.43725">
        <ele>695</ele>
        <time>2019-07-11T19:11:36Z</time>
      </trkpt>
      <trkpt lat="45.00313" lon="5.43693">
        <ele>698</ele>
        <time>2019-07-11T19:11:39Z</time>
      </trkpt>
      <trkpt lat="45.00304" lon="5.43683">
        <ele>699</ele>
        <time>2019-07-11T19:11:44Z</time>
      </trkpt>
      <trkpt lat="45.00282" lon="5.43671">
        <ele>698</ele>
        <time>2019-07-11T19:11:51Z</time>
      </trkpt>
      <trkpt lat="45.00237" lon="5.43652">
        <ele>698</ele>
        <time>2019-07-11T19:11:58Z</time>
      </trkpt>
      <trkpt lat="45.00174" lon="5.43618">
        <ele>696</ele>
        <time>2019-07-11T19:12:00Z</time>
      </trkpt>
      <trkpt lat="45.00162" lon="5.43631">
        <ele>694</ele>
        <time>2019-07-11T19:12:02Z</time>
      </trkpt>
      <trkpt lat="45.00145" lon="5.43661">
        <ele>693</ele>
        <time>2019-07-11T19:12:10Z</time>
      </trkpt>
      <trkpt lat="45.00117" lon="5.43701">
        <ele>698</ele>
        <time>2019-07-11T19:12:15Z</time>
      </trkpt>
      <trkpt lat="45.00081" lon="5.43733">
        <ele>700</ele>
        <time>2019-07-11T19:12:19Z</time>
      </trkpt>
      <trkpt lat="45.00075" lon="5.43744">
        <ele>701</ele>
        <time>2019-07-11T19:12:38Z</time>
      </trkpt>
      <trkpt lat="45.00071" lon="5.43756">
        <ele>703</ele>
        <time>2019-07-11T19:12:43Z</time>
      </trkpt>
      <trkpt lat="45.00059" lon="5.4382">
        <ele>711</ele>
        <time>2019-07-11T19:12:47Z</time>
      </trkpt>
      <trkpt lat="45.00044" lon="5.43849">
        <ele>712</ele>
        <time>2019-07-11T19:12:50Z</time>
      </trkpt>
      <trkpt lat="45.00027" lon="5.43874">
        <ele>712</ele>
        <time>2019-07-11T19:12:58Z</time>
      </trkpt>
      <trkpt lat="44.99959" lon="5.43987">
        <ele>716</ele>
        <time>2019-07-11T19:13:12Z</time>
      </trkpt>
      <trkpt lat="44.99939" lon="5.44018">
        <ele>713</ele>
        <time>2019-07-11T19:13:17Z</time>
      </trkpt>
      <trkpt lat="44.9992" lon="5.44034">
        <ele>708</ele>
        <time>2019-07-11T19:13:24Z</time>
      </trkpt>
      <trkpt lat="44.99904" lon="5.4404">
        <ele>708</ele>
        <time>2019-07-11T19:14:00Z</time>
      </trkpt>
      <trkpt lat="44.99862" lon="5.44053">
        <ele>710</ele>
        <time>2019-07-11T19:14:07Z</time>
      </trkpt>
      <trkpt lat="44.99783" lon="5.44058">
        <ele>713</ele>
        <time>2019-07-11T19:14:11Z</time>
      </trkpt>
      <trkpt lat="44.99754" lon="5.44063">
        <ele>711</ele>
        <time>2019-07-11T19:14:24Z</time>
      </trkpt>
      <trkpt lat="44.99716" lon="5.44065">
        <ele>710</ele>
        <time>2019-07-11T19:14:29Z</time>
      </trkpt>
      <trkpt lat="44.99514" lon="5.44051">
        <ele>712</ele>
        <time>2019-07-11T19:14:39Z</time>
      </trkpt>
      <trkpt lat="44.99474" lon="5.4405">
        <ele>711</ele>
        <time>2019-07-11T19:15:17Z</time>
      </trkpt>
      <trkpt lat="44.99451" lon="5.44044">
        <ele>713</ele>
        <time>2019-07-11T19:15:24Z</time>
      </trkpt>
      <trkpt lat="44.99379" lon="5.44019">
        <ele>720</ele>
        <time>2019-07-11T19:15:46Z</time>
      </trkpt>
      <trkpt lat="44.99352" lon="5.44013">
        <ele>720</ele>
        <time>2019-07-11T19:15:50Z</time>
      </trkpt>
      <trkpt lat="44.99297" lon="5.44008">
        <ele>719</ele>
        <time>2019-07-11T19:15:54Z</time>
      </trkpt>
      <trkpt lat="44.99082" lon="5.4398">
        <ele>716</ele>
        <time>2019-07-11T19:16:02Z</time>
      </trkpt>
      <trkpt lat="44.99045" lon="5.43978">
        <ele>718</ele>
        <time>2019-07-11T19:16:10Z</time>
      </trkpt>
      <trkpt lat="44.98918" lon="5.4398">
        <ele>723</ele>
        <time>2019-07-11T19:16:18Z</time>
      </trkpt>
      <trkpt lat="44.98897" lon="5.43978">
        <ele>723</ele>
        <time>2019-07-11T19:16:56Z</time>
      </trkpt>
      <trkpt lat="44.98876" lon="5.43974">
        <ele>724</ele>
        <time>2019-07-11T19:16:59Z</time>
      </trkpt>
      <trkpt lat="44.98833" lon="5.4396">
        <ele>729</ele>
        <time>2019-07-11T19:17:18Z</time>
      </trkpt>
      <trkpt lat="44.98787" lon="5.43954">
        <ele>728</ele>
        <time>2019-07-11T19:17:23Z</time>
      </trkpt>
      <trkpt lat="44.98743" lon="5.43944">
        <ele>729</ele>
        <time>2019-07-11T19:17:28Z</time>
      </trkpt>
      <trkpt lat="44.98528" lon="5.43921">
        <ele>724</ele>
        <time>2019-07-11T19:17:35Z</time>
      </trkpt>
      <trkpt lat="44.98513" lon="5.43916">
        <ele>724</ele>
        <time>2019-07-11T19:17:40Z</time>
      </trkpt>
      <trkpt lat="44.98412" lon="5.43871">
        <ele>728</ele>
        <time>2019-07-11T19:17:44Z</time>
      </trkpt>
      <trkpt lat="44.98385" lon="5.43861">
        <ele>729</ele>
        <time>2019-07-11T19:17:56Z</time>
      </trkpt>
      <trkpt lat="44.98357" lon="5.43859">
        <ele>726</ele>
        <time>2019-07-11T19:18:04Z</time>
      </trkpt>
      <trkpt lat="44.98314" lon="5.43858">
        <ele>722</ele>
        <time>2019-07-11T19:18:14Z</time>
      </trkpt>
      <trkpt lat="44.98291" lon="5.43854">
        <ele>721</ele>
        <time>2019-07-11T19:18:25Z</time>
      </trkpt>
      <trkpt lat="44.98269" lon="5.43845">
        <ele>720</ele>
        <time>2019-07-11T19:18:31Z</time>
      </trkpt>
      <trkpt lat="44.98206" lon="5.43811">
        <ele>731</ele>
        <time>2019-07-11T19:18:36Z</time>
      </trkpt>
      <trkpt lat="44.98159" lon="5.43797">
        <ele>739</ele>
        <time>2019-07-11T19:18:42Z</time>
      </trkpt>
      <trkpt lat="44.98104" lon="5.43785">
        <ele>738</ele>
        <time>2019-07-11T19:18:44Z</time>
      </trkpt>
      <trkpt lat="44.98044" lon="5.43767">
        <ele>738</ele>
        <time>2019-07-11T19:18:58Z</time>
      </trkpt>
      <trkpt lat="44.98011" lon="5.43754">
        <ele>736</ele>
        <time>2019-07-11T19:19:11Z</time>
      </trkpt>
      <trkpt lat="44.97988" lon="5.4374">
        <ele>740</ele>
        <time>2019-07-11T19:19:27Z</time>
      </trkpt>
      <trkpt lat="44.97956" lon="5.43716">
        <ele>751</ele>
        <time>2019-07-11T19:19:35Z</time>
      </trkpt>
      <trkpt lat="44.97944" lon="5.43711">
        <ele>752</ele>
        <time>2019-07-11T19:19:41Z</time>
      </trkpt>
      <trkpt lat="44.97867" lon="5.43695">
        <ele>751</ele>
        <time>2019-07-11T19:19:44Z</time>
      </trkpt>
      <trkpt lat="44.97792" lon="5.43683">
        <ele>750</ele>
        <time>2019-07-11T19:19:47Z</time>
      </trkpt>
      <trkpt lat="44.97704" lon="5.43665">
        <ele>750</ele>
        <time>2019-07-11T19:19:49Z</time>
      </trkpt>
      <trkpt lat="44.97659" lon="5.43658">
        <ele>748</ele>
        <time>2019-07-11T19:19:51Z</time>
      </trkpt>
      <trkpt lat="44.97629" lon="5.4365">
        <ele>747</ele>
        <time>2019-07-11T19:19:54Z</time>
      </trkpt>
      <trkpt lat="44.97614" lon="5.43637">
        <ele>748</ele>
        <time>2019-07-11T19:19:58Z</time>
      </trkpt>
      <trkpt lat="44.97597" lon="5.4363">
        <ele>748</ele>
        <time>2019-07-11T19:20:02Z</time>
      </trkpt>
      <trkpt lat="44.97585" lon="5.43629">
        <ele>747</ele>
        <time>2019-07-11T19:20:11Z</time>
      </trkpt>
      <trkpt lat="44.97574" lon="5.43631">
        <ele>746</ele>
        <time>2019-07-11T19:20:20Z</time>
      </trkpt>
      <trkpt lat="44.97557" lon="5.43641">
        <ele>744</ele>
        <time>2019-07-11T19:20:22Z</time>
      </trkpt>
      <trkpt lat="44.97537" lon="5.43648">
        <ele>743</ele>
        <time>2019-07-11T19:20:24Z</time>
      </trkpt>
      <trkpt lat="44.97514" lon="5.43649">
        <ele>744</ele>
        <time>2019-07-11T19:20:28Z</time>
      </trkpt>
      <trkpt lat="44.97466" lon="5.43643">
        <ele>747</ele>
        <time>2019-07-11T19:20:37Z</time>
      </trkpt>
      <trkpt lat="44.97416" lon="5.43624">
        <ele>756</ele>
        <time>2019-07-11T19:20:47Z</time>
      </trkpt>
      <trkpt lat="44.97404" lon="5.43617">
        <ele>759</ele>
        <time>2019-07-11T19:20:58Z</time>
      </trkpt>
      <trkpt lat="44.97392" lon="5.43617">
        <ele>759</ele>
        <time>2019-07-11T19:21:08Z</time>
      </trkpt>
      <trkpt lat="44.97374" lon="5.43611">
        <ele>761</ele>
        <time>2019-07-11T19:21:20Z</time>
      </trkpt>
      <trkpt lat="44.97324" lon="5.43607">
        <ele>762</ele>
        <time>2019-07-11T19:21:28Z</time>
      </trkpt>
      <trkpt lat="44.97266" lon="5.43594">
        <ele>766</ele>
        <time>2019-07-11T19:21:40Z</time>
      </trkpt>
      <trkpt lat="44.97205" lon="5.43593">
        <ele>768</ele>
        <time>2019-07-11T19:21:46Z</time>
      </trkpt>
      <trkpt lat="44.97149" lon="5.436">
        <ele>767</ele>
        <time>2019-07-11T19:21:59Z</time>
      </trkpt>
      <trkpt lat="44.97081" lon="5.43602">
        <ele>768</ele>
        <time>2019-07-11T19:22:07Z</time>
      </trkpt>
      <trkpt lat="44.97039" lon="5.43609">
        <ele>769</ele>
        <time>2019-07-11T19:22:20Z</time>
      </trkpt>
      <trkpt lat="44.96972" lon="5.43634">
        <ele>765</ele>
        <time>2019-07-11T19:22:51Z</time>
      </trkpt>
      <trkpt lat="44.9694" lon="5.43643">
        <ele>763</ele>
        <time>2019-07-11T19:22:56Z</time>
      </trkpt>
      <trkpt lat="44.96866" lon="5.43634">
        <ele>767</ele>
        <time>2019-07-11T19:23:03Z</time>
      </trkpt>
      <trkpt lat="44.96819" lon="5.43625">
        <ele>771</ele>
        <time>2019-07-11T19:23:09Z</time>
      </trkpt>
      <trkpt lat="44.96749" lon="5.4362">
        <ele>771</ele>
        <time>2019-07-11T19:23:16Z</time>
      </trkpt>
      <trkpt lat="44.96575" lon="5.43591">
        <ele>771</ele>
        <time>2019-07-11T19:23:40Z</time>
      </trkpt>
      <trkpt lat="44.96549" lon="5.43593">
        <ele>770</ele>
        <time>2019-07-11T19:23:43Z</time>
      </trkpt>
      <trkpt lat="44.96508" lon="5.43605">
        <ele>767</ele>
        <time>2019-07-11T19:23:54Z</time>
      </trkpt>
      <trkpt lat="44.96479" lon="5.4362">
        <ele>764</ele>
        <time>2019-07-11T19:23:58Z</time>
      </trkpt>
      <trkpt lat="44.96444" lon="5.43658">
        <ele>756</ele>
        <time>2019-07-11T19:24:01Z</time>
      </trkpt>
      <trkpt lat="44.96338" lon="5.43766">
        <ele>754</ele>
        <time>2019-07-11T19:24:09Z</time>
      </trkpt>
      <trkpt lat="44.96319" lon="5.43773">
        <ele>755</ele>
        <time>2019-07-11T19:24:10Z</time>
      </trkpt>
      <trkpt lat="44.96258" lon="5.43771">
        <ele>757</ele>
        <time>2019-07-11T19:24:15Z</time>
      </trkpt>
      <trkpt lat="44.96235" lon="5.43764">
        <ele>757</ele>
        <time>2019-07-11T19:24:19Z</time>
      </trkpt>
      <trkpt lat="44.9622" lon="5.43749">
        <ele>756</ele>
        <time>2019-07-11T19:24:35Z</time>
      </trkpt>
      <trkpt lat="44.96194" lon="5.43707">
        <ele>758</ele>
        <time>2019-07-11T19:24:41Z</time>
      </trkpt>
      <trkpt lat="44.96185" lon="5.43698">
        <ele>758</ele>
        <time>2019-07-11T19:24:47Z</time>
      </trkpt>
      <trkpt lat="44.96162" lon="5.43694">
        <ele>755</ele>
        <time>2019-07-11T19:25:24Z</time>
      </trkpt>
      <trkpt lat="44.9614" lon="5.43697">
        <ele>754</ele>
        <time>2019-07-11T19:25:40Z</time>
      </trkpt>
      <trkpt lat="44.96051" lon="5.43717">
        <ele>751</ele>
        <time>2019-07-11T19:25:49Z</time>
      </trkpt>
      <trkpt lat="44.96015" lon="5.43722">
        <ele>749</ele>
        <time>2019-07-11T19:25:57Z</time>
      </trkpt>
      <trkpt lat="44.9598" lon="5.43719">
        <ele>749</ele>
        <time>2019-07-11T19:26:43Z</time>
      </trkpt>
      <trkpt lat="44.95778" lon="5.43672">
        <ele>754</ele>
        <time>2019-07-11T19:26:51Z</time>
      </trkpt>
      <trkpt lat="44.95688" lon="5.43644">
        <ele>756</ele>
        <time>2019-07-11T19:26:59Z</time>
      </trkpt>
      <trkpt lat="44.95643" lon="5.43618">
        <ele>761</ele>
        <time>2019-07-11T19:27:17Z</time>
      </trkpt>
      <trkpt lat="44.95598" lon="5.43602">
        <ele>765</ele>
        <time>2019-07-11T19:27:21Z</time>
      </trkpt>
      <trkpt lat="44.95338" lon="5.43575">
        <ele>769</ele>
        <time>2019-07-11T19:27:45Z</time>
      </trkpt>
      <trkpt lat="44.95295" lon="5.43569">
        <ele>770</ele>
        <time>2019-07-11T19:28:00Z</time>
      </trkpt>
      <trkpt lat="44.95249" lon="5.43556">
        <ele>773</ele>
        <time>2019-07-11T19:28:06Z</time>
      </trkpt>
      <trkpt lat="44.95164" lon="5.4349">
        <ele>784</ele>
        <time>2019-07-11T19:29:49Z</time>
      </trkpt>
      <trkpt lat="44.95143" lon="5.4348">
        <ele>784</ele>
        <time>2019-07-11T19:30:13Z</time>
      </trkpt>
      <trkpt lat="44.95007" lon="5.43457">
        <ele>772</ele>
        <time>2019-07-11T19:30:23Z</time>
      </trkpt>
      <trkpt lat="44.94925" lon="5.43433">
        <ele>773</ele>
        <time>2019-07-11T19:30:34Z</time>
      </trkpt>
      <trkpt lat="44.94888" lon="5.4343">
        <ele>771</ele>
        <time>2019-07-11T19:31:00Z</time>
      </trkpt>
      <trkpt lat="44.94314" lon="5.43403">
        <ele>771</ele>
        <time>2019-07-11T19:31:34Z</time>
      </trkpt>
      <trkpt lat="44.94179" lon="5.43409">
        <ele>776</ele>
        <time>2019-07-11T19:31:41Z</time>
      </trkpt>
      <trkpt lat="44.94119" lon="5.43408">
        <ele>781</ele>
        <time>2019-07-11T19:31:45Z</time>
      </trkpt>
      <trkpt lat="44.9406" lon="5.43404">
        <ele>786</ele>
        <time>2019-07-11T19:31:48Z</time>
      </trkpt>
      <trkpt lat="44.93913" lon="5.43382">
        <ele>793</ele>
        <time>2019-07-11T19:31:51Z</time>
      </trkpt>
      <trkpt lat="44.93729" lon="5.4333">
        <ele>793</ele>
        <time>2019-07-11T19:31:54Z</time>
      </trkpt>
      <trkpt lat="44.93691" lon="5.43311">
        <ele>794</ele>
        <time>2019-07-11T19:31:57Z</time>
      </trkpt>
      <trkpt lat="44.93668" lon="5.43295">
        <ele>795</ele>
        <time>2019-07-11T19:32:02Z</time>
      </trkpt>
      <trkpt lat="44.93658" lon="5.43284">
        <ele>796</ele>
        <time>2019-07-11T19:32:05Z</time>
      </trkpt>
      <trkpt lat="44.93648" lon="5.43258">
        <ele>801</ele>
        <time>2019-07-11T19:32:08Z</time>
      </trkpt>
      <trkpt lat="44.93645" lon="5.4324">
        <ele>803</ele>
      </trkpt>
      <trkpt lat="44.93646" lon="5.43211">
        <ele>803</ele>
      </trkpt>
      <trkpt lat="44.93651" lon="5.43178">
        <ele>803</ele>
      </trkpt>
      <trkpt lat="44.9365" lon="5.43154">
        <ele>803</ele>
      </trkpt>
    </trkseg>
  </trk>
</gpx>